<?xml version='1.0' encoding='UTF-8'?>
<gpx version="1.1" creator="https://www.komoot.de" xmlns="http://www.topografix.com/GPX/1/1" xmlns:xsi="http://www.w3.org/2001/XMLSchema-instance" xsi:schemaLocation="http://www.topografix.com/GPX/1/1 http://www.topografix.com/GPX/1/1/gpx.xsd">
  <metadata>
    <name>74_1100WittnSchafmSaal</name>
    <author>
      <link href="https://www.komoot.de">
        <text>komoot</text>
        <type>text/html</type>
      </link>
    </author>
  </metadata>
  <trk>
    <name>74_1100WittnSchafmSaal</name>
    <trkseg>
      <trkpt lat="47.541414" lon="7.870788">
        <ele>341.047979</ele>
        <time>2021-11-21T07:50:54.929Z</time>
      </trkpt>
      <trkpt lat="47.541576" lon="7.870664">
        <ele>341.047979</ele>
        <time>2021-11-21T07:50:59.093Z</time>
      </trkpt>
      <trkpt lat="47.541796" lon="7.871042">
        <ele>341.047979</ele>
        <time>2021-11-21T07:51:06.352Z</time>
      </trkpt>
      <trkpt lat="47.541953" lon="7.871286">
        <ele>341.047979</ele>
        <time>2021-11-21T07:51:11.263Z</time>
      </trkpt>
      <trkpt lat="47.542039" lon="7.871556">
        <ele>341.241317</ele>
        <time>2021-11-21T07:51:15.766Z</time>
      </trkpt>
      <trkpt lat="47.542067" lon="7.871664">
        <ele>341.549299</ele>
        <time>2021-11-21T07:51:17.436Z</time>
      </trkpt>
      <trkpt lat="47.542091" lon="7.871721">
        <ele>341.728137</ele>
        <time>2021-11-21T07:51:18.053Z</time>
      </trkpt>
      <trkpt lat="47.542218" lon="7.871866">
        <ele>342.360461</ele>
        <time>2021-11-21T07:51:23.265Z</time>
      </trkpt>
      <trkpt lat="47.542394" lon="7.872341">
        <ele>343.802915</ele>
        <time>2021-11-21T07:51:33.493Z</time>
      </trkpt>
      <trkpt lat="47.542436" lon="7.872494">
        <ele>344.242604</ele>
        <time>2021-11-21T07:51:36.910Z</time>
      </trkpt>
      <trkpt lat="47.542537" lon="7.872430">
        <ele>344.675814</ele>
        <time>2021-11-21T07:51:39.011Z</time>
      </trkpt>
      <trkpt lat="47.542714" lon="7.872334">
        <ele>345.419138</ele>
        <time>2021-11-21T07:51:45.967Z</time>
      </trkpt>
      <trkpt lat="47.542719" lon="7.872331">
        <ele>345.440412</ele>
        <time>2021-11-21T07:51:46.191Z</time>
      </trkpt>
      <trkpt lat="47.542814" lon="7.872280">
        <ele>345.838893</ele>
        <time>2021-11-21T07:51:48.981Z</time>
      </trkpt>
      <trkpt lat="47.542919" lon="7.872226">
        <ele>346.277211</ele>
        <time>2021-11-21T07:51:52.820Z</time>
      </trkpt>
      <trkpt lat="47.543013" lon="7.872182">
        <ele>346.665972</ele>
        <time>2021-11-21T07:51:56.326Z</time>
      </trkpt>
      <trkpt lat="47.543233" lon="7.872082">
        <ele>347.573480</ele>
        <time>2021-11-21T07:52:03.565Z</time>
      </trkpt>
      <trkpt lat="47.543251" lon="7.872152">
        <ele>347.772885</ele>
        <time>2021-11-21T07:52:06.938Z</time>
      </trkpt>
      <trkpt lat="47.543332" lon="7.872237">
        <ele>348.179111</ele>
        <time>2021-11-21T07:52:10.243Z</time>
      </trkpt>
      <trkpt lat="47.544390" lon="7.872423">
        <ele>355.047267</ele>
        <time>2021-11-21T07:52:51.963Z</time>
      </trkpt>
      <trkpt lat="47.544883" lon="7.872555">
        <ele>358.276834</ele>
        <time>2021-11-21T07:53:14.372Z</time>
      </trkpt>
      <trkpt lat="47.545131" lon="7.872664">
        <ele>359.946890</ele>
        <time>2021-11-21T07:53:25.376Z</time>
      </trkpt>
      <trkpt lat="47.545375" lon="7.872836">
        <ele>361.709446</ele>
        <time>2021-11-21T07:53:36.317Z</time>
      </trkpt>
      <trkpt lat="47.545478" lon="7.872968">
        <ele>362.597795</ele>
        <time>2021-11-21T07:53:43.124Z</time>
      </trkpt>
      <trkpt lat="47.545515" lon="7.873015">
        <ele>362.915711</ele>
        <time>2021-11-21T07:53:45.081Z</time>
      </trkpt>
      <trkpt lat="47.545746" lon="7.873302">
        <ele>364.882216</ele>
        <time>2021-11-21T07:53:58.281Z</time>
      </trkpt>
      <trkpt lat="47.545934" lon="7.873549">
        <ele>366.521266</ele>
        <time>2021-11-21T07:54:08.381Z</time>
      </trkpt>
      <trkpt lat="47.546077" lon="7.873763">
        <ele>367.847096</ele>
        <time>2021-11-21T07:54:17.577Z</time>
      </trkpt>
      <trkpt lat="47.546135" lon="7.873859">
        <ele>368.414356</ele>
        <time>2021-11-21T07:54:20.816Z</time>
      </trkpt>
      <trkpt lat="47.546309" lon="7.874154">
        <ele>370.139223</ele>
        <time>2021-11-21T07:54:31.931Z</time>
      </trkpt>
      <trkpt lat="47.547126" lon="7.875801">
        <ele>375.830898</ele>
        <time>2021-11-21T07:55:17.692Z</time>
      </trkpt>
      <trkpt lat="47.547574" lon="7.876801">
        <ele>377.966403</ele>
        <time>2021-11-21T07:55:36.688Z</time>
      </trkpt>
      <trkpt lat="47.547992" lon="7.877974">
        <ele>377.130487</ele>
        <time>2021-11-21T07:55:49.488Z</time>
      </trkpt>
      <trkpt lat="47.548234" lon="7.878638">
        <ele>376.654935</ele>
        <time>2021-11-21T07:55:54.800Z</time>
      </trkpt>
      <trkpt lat="47.548422" lon="7.878959">
        <ele>376.132390</ele>
        <time>2021-11-21T07:55:57.643Z</time>
      </trkpt>
      <trkpt lat="47.548718" lon="7.879258">
        <ele>374.660930</ele>
        <time>2021-11-21T07:56:01.182Z</time>
      </trkpt>
      <trkpt lat="47.549140" lon="7.879391">
        <ele>372.888856</ele>
        <time>2021-11-21T07:56:05.368Z</time>
      </trkpt>
      <trkpt lat="47.549318" lon="7.879398">
        <ele>372.157495</ele>
        <time>2021-11-21T07:56:06.995Z</time>
      </trkpt>
      <trkpt lat="47.549327" lon="7.879547">
        <ele>371.742777</ele>
        <time>2021-11-21T07:56:07.982Z</time>
      </trkpt>
      <trkpt lat="47.549726" lon="7.880786">
        <ele>368.101979</ele>
        <time>2021-11-21T07:56:16.998Z</time>
      </trkpt>
      <trkpt lat="47.549927" lon="7.881490">
        <ele>366.290208</ele>
        <time>2021-11-21T07:56:22.055Z</time>
      </trkpt>
      <trkpt lat="47.550216" lon="7.883119">
        <ele>362.179256</ele>
        <time>2021-11-21T07:56:33.793Z</time>
      </trkpt>
      <trkpt lat="47.550234" lon="7.883221">
        <ele>361.864879</ele>
        <time>2021-11-21T07:56:34.450Z</time>
      </trkpt>
      <trkpt lat="47.550332" lon="7.884727">
        <ele>357.353334</ele>
        <time>2021-11-21T07:56:44.306Z</time>
      </trkpt>
      <trkpt lat="47.550391" lon="7.885109">
        <ele>356.184811</ele>
        <time>2021-11-21T07:56:46.810Z</time>
      </trkpt>
      <trkpt lat="47.550548" lon="7.885799">
        <ele>353.772886</ele>
        <time>2021-11-21T07:56:51.379Z</time>
      </trkpt>
      <trkpt lat="47.550677" lon="7.886476">
        <ele>351.042867</ele>
        <time>2021-11-21T07:56:55.810Z</time>
      </trkpt>
      <trkpt lat="47.550758" lon="7.887295">
        <ele>347.830529</ele>
        <time>2021-11-21T07:57:00.952Z</time>
      </trkpt>
      <trkpt lat="47.550789" lon="7.887816">
        <ele>345.800779</ele>
        <time>2021-11-21T07:57:04.184Z</time>
      </trkpt>
      <trkpt lat="47.550831" lon="7.888611">
        <ele>342.550807</ele>
        <time>2021-11-21T07:57:09.140Z</time>
      </trkpt>
      <trkpt lat="47.550833" lon="7.889069">
        <ele>340.616858</ele>
        <time>2021-11-21T07:57:11.949Z</time>
      </trkpt>
      <trkpt lat="47.550915" lon="7.890600">
        <ele>334.131884</ele>
        <time>2021-11-21T07:57:21.342Z</time>
      </trkpt>
      <trkpt lat="47.550904" lon="7.891725">
        <ele>330.711954</ele>
        <time>2021-11-21T07:57:28.346Z</time>
      </trkpt>
      <trkpt lat="47.550892" lon="7.893176">
        <ele>326.710423</ele>
        <time>2021-11-21T07:57:37.958Z</time>
      </trkpt>
      <trkpt lat="47.550908" lon="7.894308">
        <ele>325.164827</ele>
        <time>2021-11-21T07:57:47.164Z</time>
      </trkpt>
      <trkpt lat="47.550878" lon="7.895158">
        <ele>324.440536</ele>
        <time>2021-11-21T07:57:54.349Z</time>
      </trkpt>
      <trkpt lat="47.550838" lon="7.895509">
        <ele>324.137626</ele>
        <time>2021-11-21T07:57:57.512Z</time>
      </trkpt>
      <trkpt lat="47.550660" lon="7.896255">
        <ele>323.306113</ele>
        <time>2021-11-21T07:58:04.001Z</time>
      </trkpt>
      <trkpt lat="47.550639" lon="7.896345">
        <ele>323.131155</ele>
        <time>2021-11-21T07:58:05.188Z</time>
      </trkpt>
      <trkpt lat="47.550648" lon="7.896481">
        <ele>322.880088</ele>
        <time>2021-11-21T07:58:06.143Z</time>
      </trkpt>
      <trkpt lat="47.550819" lon="7.898109">
        <ele>319.853005</ele>
        <time>2021-11-21T07:58:17.891Z</time>
      </trkpt>
      <trkpt lat="47.550801" lon="7.900244">
        <ele>314.363338</ele>
        <time>2021-11-21T07:58:31.729Z</time>
      </trkpt>
      <trkpt lat="47.550769" lon="7.901362">
        <ele>311.146437</ele>
        <time>2021-11-21T07:58:39.000Z</time>
      </trkpt>
      <trkpt lat="47.550757" lon="7.901591">
        <ele>310.562560</ele>
        <time>2021-11-21T07:58:41.136Z</time>
      </trkpt>
      <trkpt lat="47.550688" lon="7.902451">
        <ele>308.414173</ele>
        <time>2021-11-21T07:58:49.571Z</time>
      </trkpt>
      <trkpt lat="47.550498" lon="7.903445">
        <ele>305.851414</ele>
        <time>2021-11-21T07:58:59.821Z</time>
      </trkpt>
      <trkpt lat="47.550302" lon="7.904164">
        <ele>303.898313</ele>
        <time>2021-11-21T07:59:07.080Z</time>
      </trkpt>
      <trkpt lat="47.550025" lon="7.904774">
        <ele>301.967917</ele>
        <time>2021-11-21T07:59:13.972Z</time>
      </trkpt>
      <trkpt lat="47.549868" lon="7.905010">
        <ele>301.097864</ele>
        <time>2021-11-21T07:59:17.089Z</time>
      </trkpt>
      <trkpt lat="47.549867" lon="7.905155">
        <ele>300.717123</ele>
        <time>2021-11-21T07:59:18.477Z</time>
      </trkpt>
      <trkpt lat="47.550067" lon="7.905245">
        <ele>299.903996</ele>
        <time>2021-11-21T07:59:21.389Z</time>
      </trkpt>
      <trkpt lat="47.550283" lon="7.905413">
        <ele>298.954976</ele>
        <time>2021-11-21T07:59:24.822Z</time>
      </trkpt>
      <trkpt lat="47.550497" lon="7.905558">
        <ele>298.039557</ele>
        <time>2021-11-21T07:59:28.175Z</time>
      </trkpt>
      <trkpt lat="47.550298" lon="7.906194">
        <ele>296.710859</ele>
        <time>2021-11-21T07:59:32.860Z</time>
      </trkpt>
      <trkpt lat="47.549539" lon="7.908625">
        <ele>292.922849</ele>
        <time>2021-11-21T07:59:52.845Z</time>
      </trkpt>
      <trkpt lat="47.549520" lon="7.908678">
        <ele>292.871867</ele>
        <time>2021-11-21T07:59:53.354Z</time>
      </trkpt>
      <trkpt lat="47.549306" lon="7.909387">
        <ele>292.212057</ele>
        <time>2021-11-21T07:59:59.766Z</time>
      </trkpt>
      <trkpt lat="47.549271" lon="7.909502">
        <ele>292.104887</ele>
        <time>2021-11-21T08:00:00.839Z</time>
      </trkpt>
      <trkpt lat="47.549195" lon="7.909756">
        <ele>291.868850</ele>
        <time>2021-11-21T08:00:03.124Z</time>
      </trkpt>
      <trkpt lat="47.549102" lon="7.910058">
        <ele>291.586845</ele>
        <time>2021-11-21T08:00:05.855Z</time>
      </trkpt>
      <trkpt lat="47.549012" lon="7.910340">
        <ele>291.321841</ele>
        <time>2021-11-21T08:00:08.373Z</time>
      </trkpt>
      <trkpt lat="47.548412" lon="7.912168">
        <ele>289.806509</ele>
        <time>2021-11-21T08:00:24.707Z</time>
      </trkpt>
      <trkpt lat="47.548027" lon="7.913334">
        <ele>289.056848</ele>
        <time>2021-11-21T08:00:35.468Z</time>
      </trkpt>
      <trkpt lat="47.547994" lon="7.913433">
        <ele>289.034633</ele>
        <time>2021-11-21T08:00:36.389Z</time>
      </trkpt>
      <trkpt lat="47.547423" lon="7.915080">
        <ele>288.662101</ele>
        <time>2021-11-21T08:00:53.885Z</time>
      </trkpt>
      <trkpt lat="47.547113" lon="7.915971">
        <ele>288.794626</ele>
        <time>2021-11-21T08:01:04.426Z</time>
      </trkpt>
      <trkpt lat="47.547091" lon="7.916039">
        <ele>288.817069</ele>
        <time>2021-11-21T08:01:05.459Z</time>
      </trkpt>
      <trkpt lat="47.547032" lon="7.916218">
        <ele>288.876357</ele>
        <time>2021-11-21T08:01:07.685Z</time>
      </trkpt>
      <trkpt lat="47.546821" lon="7.916867">
        <ele>289.090757</ele>
        <time>2021-11-21T08:01:15.789Z</time>
      </trkpt>
      <trkpt lat="47.546732" lon="7.917220">
        <ele>289.202910</ele>
        <time>2021-11-21T08:01:20.537Z</time>
      </trkpt>
      <trkpt lat="47.546262" lon="7.919081">
        <ele>289.712111</ele>
        <time>2021-11-21T08:01:43.311Z</time>
      </trkpt>
      <trkpt lat="47.546128" lon="7.919617">
        <ele>289.847793</ele>
        <time>2021-11-21T08:01:48.741Z</time>
      </trkpt>
      <trkpt lat="47.545973" lon="7.920313">
        <ele>290.024177</ele>
        <time>2021-11-21T08:01:57.135Z</time>
      </trkpt>
      <trkpt lat="47.545913" lon="7.920765">
        <ele>290.419895</ele>
        <time>2021-11-21T08:02:01.291Z</time>
      </trkpt>
      <trkpt lat="47.545881" lon="7.921096">
        <ele>290.707135</ele>
        <time>2021-11-21T08:02:05.296Z</time>
      </trkpt>
      <trkpt lat="47.545810" lon="7.921755">
        <ele>291.280402</ele>
        <time>2021-11-21T08:02:14.203Z</time>
      </trkpt>
      <trkpt lat="47.545778" lon="7.921947">
        <ele>291.450289</ele>
        <time>2021-11-21T08:02:17.812Z</time>
      </trkpt>
      <trkpt lat="47.545714" lon="7.922249">
        <ele>291.722202</ele>
        <time>2021-11-21T08:02:21.010Z</time>
      </trkpt>
      <trkpt lat="47.545699" lon="7.922325">
        <ele>291.790222</ele>
        <time>2021-11-21T08:02:22.208Z</time>
      </trkpt>
      <trkpt lat="47.545690" lon="7.922369">
        <ele>291.829717</ele>
        <time>2021-11-21T08:02:24.306Z</time>
      </trkpt>
      <trkpt lat="47.545641" lon="7.922610">
        <ele>292.045931</ele>
        <time>2021-11-21T08:02:26.660Z</time>
      </trkpt>
      <trkpt lat="47.545587" lon="7.922895">
        <ele>292.300218</ele>
        <time>2021-11-21T08:02:32.456Z</time>
      </trkpt>
      <trkpt lat="47.545553" lon="7.923142">
        <ele>292.886755</ele>
        <time>2021-11-21T08:02:35.103Z</time>
      </trkpt>
      <trkpt lat="47.545536" lon="7.923407">
        <ele>293.524348</ele>
        <time>2021-11-21T08:02:40.993Z</time>
      </trkpt>
      <trkpt lat="47.545521" lon="7.923709">
        <ele>294.249660</ele>
        <time>2021-11-21T08:02:45.146Z</time>
      </trkpt>
      <trkpt lat="47.545481" lon="7.924396">
        <ele>295.901286</ele>
        <time>2021-11-21T08:02:59.749Z</time>
      </trkpt>
      <trkpt lat="47.545466" lon="7.924880">
        <ele>297.061795</ele>
        <time>2021-11-21T08:03:11.056Z</time>
      </trkpt>
      <trkpt lat="47.545446" lon="7.925350">
        <ele>298.189784</ele>
        <time>2021-11-21T08:03:21.431Z</time>
      </trkpt>
      <trkpt lat="47.545417" lon="7.925848">
        <ele>299.143635</ele>
        <time>2021-11-21T08:03:31.910Z</time>
      </trkpt>
      <trkpt lat="47.545409" lon="7.926773">
        <ele>300.583145</ele>
        <time>2021-11-21T08:03:49.111Z</time>
      </trkpt>
      <trkpt lat="47.545407" lon="7.927001">
        <ele>300.937965</ele>
        <time>2021-11-21T08:03:52.920Z</time>
      </trkpt>
      <trkpt lat="47.545406" lon="7.927306">
        <ele>301.412581</ele>
        <time>2021-11-21T08:03:57.524Z</time>
      </trkpt>
      <trkpt lat="47.545421" lon="7.927686">
        <ele>302.004909</ele>
        <time>2021-11-21T08:04:03.060Z</time>
      </trkpt>
      <trkpt lat="47.545475" lon="7.928419">
        <ele>302.651006</ele>
        <time>2021-11-21T08:04:12.377Z</time>
      </trkpt>
      <trkpt lat="47.545563" lon="7.929641">
        <ele>301.506445</ele>
        <time>2021-11-21T08:04:22.257Z</time>
      </trkpt>
      <trkpt lat="47.545661" lon="7.930955">
        <ele>300.282819</ele>
        <time>2021-11-21T08:04:31.653Z</time>
      </trkpt>
      <trkpt lat="47.545696" lon="7.931497">
        <ele>299.822873</ele>
        <time>2021-11-21T08:04:35.621Z</time>
      </trkpt>
      <trkpt lat="47.545721" lon="7.931992">
        <ele>299.403552</ele>
        <time>2021-11-21T08:04:39.414Z</time>
      </trkpt>
      <trkpt lat="47.545724" lon="7.932758">
        <ele>298.756461</ele>
        <time>2021-11-21T08:04:45.623Z</time>
      </trkpt>
      <trkpt lat="47.545702" lon="7.933290">
        <ele>298.306211</ele>
        <time>2021-11-21T08:04:50.266Z</time>
      </trkpt>
      <trkpt lat="47.545674" lon="7.933625">
        <ele>298.168186</ele>
        <time>2021-11-21T08:04:53.467Z</time>
      </trkpt>
      <trkpt lat="47.545457" lon="7.935110">
        <ele>299.106841</ele>
        <time>2021-11-21T08:05:11.602Z</time>
      </trkpt>
      <trkpt lat="47.545074" lon="7.936484">
        <ele>300.273791</ele>
        <time>2021-11-21T08:05:33.129Z</time>
      </trkpt>
      <trkpt lat="47.544903" lon="7.936917">
        <ele>300.865913</ele>
        <time>2021-11-21T08:05:40.445Z</time>
      </trkpt>
      <trkpt lat="47.544705" lon="7.937395">
        <ele>301.527868</ele>
        <time>2021-11-21T08:05:48.629Z</time>
      </trkpt>
      <trkpt lat="47.544472" lon="7.937932">
        <ele>302.281355</ele>
        <time>2021-11-21T08:05:58.037Z</time>
      </trkpt>
      <trkpt lat="47.543826" lon="7.939433">
        <ele>304.336115</ele>
        <time>2021-11-21T08:06:24.918Z</time>
      </trkpt>
      <trkpt lat="47.543435" lon="7.940670">
        <ele>305.897990</ele>
        <time>2021-11-21T08:06:44.879Z</time>
      </trkpt>
      <trkpt lat="47.543161" lon="7.942213">
        <ele>306.525320</ele>
        <time>2021-11-21T08:07:05.728Z</time>
      </trkpt>
      <trkpt lat="47.543007" lon="7.943867">
        <ele>306.416726</ele>
        <time>2021-11-21T08:07:21.272Z</time>
      </trkpt>
      <trkpt lat="47.542913" lon="7.945267">
        <ele>305.102927</ele>
        <time>2021-11-21T08:07:32.179Z</time>
      </trkpt>
      <trkpt lat="47.542872" lon="7.945781">
        <ele>304.619604</ele>
        <time>2021-11-21T08:07:35.995Z</time>
      </trkpt>
      <trkpt lat="47.542875" lon="7.946089">
        <ele>304.314464</ele>
        <time>2021-11-21T08:07:38.229Z</time>
      </trkpt>
      <trkpt lat="47.542902" lon="7.946514">
        <ele>303.857624</ele>
        <time>2021-11-21T08:07:41.323Z</time>
      </trkpt>
      <trkpt lat="47.542943" lon="7.946806">
        <ele>303.538441</ele>
        <time>2021-11-21T08:07:43.534Z</time>
      </trkpt>
      <trkpt lat="47.542974" lon="7.946965">
        <ele>303.361326</ele>
        <time>2021-11-21T08:07:44.842Z</time>
      </trkpt>
      <trkpt lat="47.542979" lon="7.946989">
        <ele>303.334446</ele>
        <time>2021-11-21T08:07:44.999Z</time>
      </trkpt>
      <trkpt lat="47.542989" lon="7.947104">
        <ele>303.210358</ele>
        <time>2021-11-21T08:07:45.870Z</time>
      </trkpt>
      <trkpt lat="47.542984" lon="7.947304">
        <ele>302.996174</ele>
        <time>2021-11-21T08:07:47.445Z</time>
      </trkpt>
      <trkpt lat="47.542979" lon="7.947370">
        <ele>302.925099</ele>
        <time>2021-11-21T08:07:47.946Z</time>
      </trkpt>
      <trkpt lat="47.542935" lon="7.947564">
        <ele>302.706077</ele>
        <time>2021-11-21T08:07:49.513Z</time>
      </trkpt>
      <trkpt lat="47.542892" lon="7.947789">
        <ele>302.455821</ele>
        <time>2021-11-21T08:07:51.431Z</time>
      </trkpt>
      <trkpt lat="47.542875" lon="7.948001">
        <ele>302.227346</ele>
        <time>2021-11-21T08:07:53.247Z</time>
      </trkpt>
      <trkpt lat="47.542838" lon="7.948225">
        <ele>301.980551</ele>
        <time>2021-11-21T08:07:55.032Z</time>
      </trkpt>
      <trkpt lat="47.542826" lon="7.948298">
        <ele>301.900145</ele>
        <time>2021-11-21T08:07:55.653Z</time>
      </trkpt>
      <trkpt lat="47.542719" lon="7.949175">
        <ele>301.397958</ele>
        <time>2021-11-21T08:08:02.878Z</time>
      </trkpt>
      <trkpt lat="47.542609" lon="7.949914">
        <ele>301.147425</ele>
        <time>2021-11-21T08:08:09.652Z</time>
      </trkpt>
      <trkpt lat="47.542560" lon="7.950202">
        <ele>301.049097</ele>
        <time>2021-11-21T08:08:12.521Z</time>
      </trkpt>
      <trkpt lat="47.542554" lon="7.950231">
        <ele>301.039056</ele>
        <time>2021-11-21T08:08:12.796Z</time>
      </trkpt>
      <trkpt lat="47.542546" lon="7.950274">
        <ele>301.024289</ele>
        <time>2021-11-21T08:08:13.200Z</time>
      </trkpt>
      <trkpt lat="47.542444" lon="7.950687">
        <ele>300.878696</ele>
        <time>2021-11-21T08:08:17.663Z</time>
      </trkpt>
      <trkpt lat="47.542357" lon="7.951037">
        <ele>300.755218</ele>
        <time>2021-11-21T08:08:21.307Z</time>
      </trkpt>
      <trkpt lat="47.542192" lon="7.951713">
        <ele>300.613910</ele>
        <time>2021-11-21T08:08:28.255Z</time>
      </trkpt>
      <trkpt lat="47.542169" lon="7.951815">
        <ele>300.595442</ele>
        <time>2021-11-21T08:08:29.183Z</time>
      </trkpt>
      <trkpt lat="47.541991" lon="7.952667">
        <ele>300.442277</ele>
        <time>2021-11-21T08:08:37.464Z</time>
      </trkpt>
      <trkpt lat="47.541791" lon="7.953601">
        <ele>300.274000</ele>
        <time>2021-11-21T08:08:46.515Z</time>
      </trkpt>
      <trkpt lat="47.541773" lon="7.953695">
        <ele>300.270032</ele>
        <time>2021-11-21T08:08:47.452Z</time>
      </trkpt>
      <trkpt lat="47.541735" lon="7.953892">
        <ele>300.371116</ele>
        <time>2021-11-21T08:08:49.334Z</time>
      </trkpt>
      <trkpt lat="47.541660" lon="7.954250">
        <ele>300.556052</ele>
        <time>2021-11-21T08:08:53.093Z</time>
      </trkpt>
      <trkpt lat="47.541530" lon="7.954936">
        <ele>300.907588</ele>
        <time>2021-11-21T08:09:00.314Z</time>
      </trkpt>
      <trkpt lat="47.541482" lon="7.955294">
        <ele>301.087665</ele>
        <time>2021-11-21T08:09:04.362Z</time>
      </trkpt>
      <trkpt lat="47.541465" lon="7.955512">
        <ele>301.195935</ele>
        <time>2021-11-21T08:09:06.698Z</time>
      </trkpt>
      <trkpt lat="47.541442" lon="7.955866">
        <ele>301.371396</ele>
        <time>2021-11-21T08:09:11.990Z</time>
      </trkpt>
      <trkpt lat="47.541410" lon="7.956569">
        <ele>302.189893</ele>
        <time>2021-11-21T08:09:23.291Z</time>
      </trkpt>
      <trkpt lat="47.541404" lon="7.956677">
        <ele>302.418255</ele>
        <time>2021-11-21T08:09:25.396Z</time>
      </trkpt>
      <trkpt lat="47.541280" lon="7.957569">
        <ele>304.337445</ele>
        <time>2021-11-21T08:09:41.044Z</time>
      </trkpt>
      <trkpt lat="47.541237" lon="7.957756">
        <ele>304.753753</ele>
        <time>2021-11-21T08:09:45.392Z</time>
      </trkpt>
      <trkpt lat="47.541141" lon="7.958127">
        <ele>305.591047</ele>
        <time>2021-11-21T08:09:52.943Z</time>
      </trkpt>
      <trkpt lat="47.540957" lon="7.959132">
        <ele>307.765055</ele>
        <time>2021-11-21T08:10:14.386Z</time>
      </trkpt>
      <trkpt lat="47.540954" lon="7.959705">
        <ele>308.931261</ele>
        <time>2021-11-21T08:10:25.813Z</time>
      </trkpt>
      <trkpt lat="47.540979" lon="7.959950">
        <ele>309.435549</ele>
        <time>2021-11-21T08:10:31.263Z</time>
      </trkpt>
      <trkpt lat="47.541002" lon="7.960092">
        <ele>309.732750</ele>
        <time>2021-11-21T08:10:33.856Z</time>
      </trkpt>
      <trkpt lat="47.541060" lon="7.960321">
        <ele>310.230534</ele>
        <time>2021-11-21T08:10:38.579Z</time>
      </trkpt>
      <trkpt lat="47.541153" lon="7.960814">
        <ele>311.272324</ele>
        <time>2021-11-21T08:10:47.148Z</time>
      </trkpt>
      <trkpt lat="47.541242" lon="7.961294">
        <ele>312.285396</ele>
        <time>2021-11-21T08:10:55.106Z</time>
      </trkpt>
      <trkpt lat="47.541316" lon="7.962197">
        <ele>313.168069</ele>
        <time>2021-11-21T08:11:08.222Z</time>
      </trkpt>
      <trkpt lat="47.541314" lon="7.962377">
        <ele>313.301611</ele>
        <time>2021-11-21T08:11:10.863Z</time>
      </trkpt>
      <trkpt lat="47.541308" lon="7.962513">
        <ele>313.402711</ele>
        <time>2021-11-21T08:11:12.214Z</time>
      </trkpt>
      <trkpt lat="47.541293" lon="7.962730">
        <ele>313.564524</ele>
        <time>2021-11-21T08:11:14.575Z</time>
      </trkpt>
      <trkpt lat="47.541258" lon="7.962975">
        <ele>313.750291</ele>
        <time>2021-11-21T08:11:17.967Z</time>
      </trkpt>
      <trkpt lat="47.541217" lon="7.963187">
        <ele>313.913879</ele>
        <time>2021-11-21T08:11:20.024Z</time>
      </trkpt>
      <trkpt lat="47.541123" lon="7.963520">
        <ele>314.181627</ele>
        <time>2021-11-21T08:11:24.806Z</time>
      </trkpt>
      <trkpt lat="47.541019" lon="7.963815">
        <ele>314.428504</ele>
        <time>2021-11-21T08:11:29.063Z</time>
      </trkpt>
      <trkpt lat="47.541129" lon="7.964008">
        <ele>314.609253</ele>
        <time>2021-11-21T08:11:31.796Z</time>
      </trkpt>
      <trkpt lat="47.541169" lon="7.964123">
        <ele>314.681555</ele>
        <time>2021-11-21T08:11:32.961Z</time>
      </trkpt>
      <trkpt lat="47.541095" lon="7.964204">
        <ele>314.757731</ele>
        <time>2021-11-21T08:11:35.361Z</time>
      </trkpt>
      <trkpt lat="47.540896" lon="7.964711">
        <ele>315.085504</ele>
        <time>2021-11-21T08:11:42.388Z</time>
      </trkpt>
      <trkpt lat="47.540214" lon="7.967628">
        <ele>317.197219</ele>
        <time>2021-11-21T08:12:20.235Z</time>
      </trkpt>
      <trkpt lat="47.539783" lon="7.969587">
        <ele>319.420660</ele>
        <time>2021-11-21T08:12:49.935Z</time>
      </trkpt>
      <trkpt lat="47.539262" lon="7.971768">
        <ele>322.939590</ele>
        <time>2021-11-21T08:13:28.885Z</time>
      </trkpt>
      <trkpt lat="47.538706" lon="7.974459">
        <ele>327.276100</ele>
        <time>2021-11-21T08:14:14.682Z</time>
      </trkpt>
      <trkpt lat="47.538242" lon="7.976347">
        <ele>330.037255</ele>
        <time>2021-11-21T08:14:45.500Z</time>
      </trkpt>
      <trkpt lat="47.538107" lon="7.977240">
        <ele>330.848551</ele>
        <time>2021-11-21T08:14:59.194Z</time>
      </trkpt>
      <trkpt lat="47.537955" lon="7.978125">
        <ele>331.571512</ele>
        <time>2021-11-21T08:15:12.737Z</time>
      </trkpt>
      <trkpt lat="47.537583" lon="7.979760">
        <ele>331.465625</ele>
        <time>2021-11-21T08:15:31.035Z</time>
      </trkpt>
      <trkpt lat="47.537461" lon="7.980118">
        <ele>330.985906</ele>
        <time>2021-11-21T08:15:34.044Z</time>
      </trkpt>
      <trkpt lat="47.537107" lon="7.981082">
        <ele>329.673174</ele>
        <time>2021-11-21T08:15:41.852Z</time>
      </trkpt>
      <trkpt lat="47.536959" lon="7.981602">
        <ele>328.915038</ele>
        <time>2021-11-21T08:15:45.691Z</time>
      </trkpt>
      <trkpt lat="47.536896" lon="7.981697">
        <ele>328.676093</ele>
        <time>2021-11-21T08:15:46.629Z</time>
      </trkpt>
      <trkpt lat="47.536842" lon="7.981878">
        <ele>328.321018</ele>
        <time>2021-11-21T08:15:47.964Z</time>
      </trkpt>
      <trkpt lat="47.536775" lon="7.982096">
        <ele>327.891224</ele>
        <time>2021-11-21T08:15:49.562Z</time>
      </trkpt>
      <trkpt lat="47.536764" lon="7.982225">
        <ele>327.657914</ele>
        <time>2021-11-21T08:15:50.467Z</time>
      </trkpt>
      <trkpt lat="47.536574" lon="7.982738">
        <ele>326.607992</ele>
        <time>2021-11-21T08:15:54.435Z</time>
      </trkpt>
      <trkpt lat="47.536530" lon="7.982859">
        <ele>326.361383</ele>
        <time>2021-11-21T08:15:55.384Z</time>
      </trkpt>
      <trkpt lat="47.536481" lon="7.983015">
        <ele>326.052651</ele>
        <time>2021-11-21T08:15:56.558Z</time>
      </trkpt>
      <trkpt lat="47.536410" lon="7.983244">
        <ele>325.600483</ele>
        <time>2021-11-21T08:15:58.389Z</time>
      </trkpt>
      <trkpt lat="47.536199" lon="7.983737">
        <ele>324.553080</ele>
        <time>2021-11-21T08:16:02.671Z</time>
      </trkpt>
      <trkpt lat="47.536026" lon="7.984206">
        <ele>324.306562</ele>
        <time>2021-11-21T08:16:06.969Z</time>
      </trkpt>
      <trkpt lat="47.535614" lon="7.985212">
        <ele>324.100152</ele>
        <time>2021-11-21T08:16:17.856Z</time>
      </trkpt>
      <trkpt lat="47.535270" lon="7.985985">
        <ele>323.937738</ele>
        <time>2021-11-21T08:16:28.078Z</time>
      </trkpt>
      <trkpt lat="47.534974" lon="7.986602">
        <ele>324.684308</ele>
        <time>2021-11-21T08:16:37.154Z</time>
      </trkpt>
      <trkpt lat="47.534590" lon="7.987330">
        <ele>325.801002</ele>
        <time>2021-11-21T08:16:50.846Z</time>
      </trkpt>
      <trkpt lat="47.534466" lon="7.987626">
        <ele>326.222074</ele>
        <time>2021-11-21T08:16:56.720Z</time>
      </trkpt>
      <trkpt lat="47.534363" lon="7.987895">
        <ele>326.595882</ele>
        <time>2021-11-21T08:17:02.182Z</time>
      </trkpt>
      <trkpt lat="47.534280" lon="7.987862">
        <ele>326.749743</ele>
        <time>2021-11-21T08:17:04.422Z</time>
      </trkpt>
      <trkpt lat="47.534072" lon="7.987749">
        <ele>327.147894</ele>
        <time>2021-11-21T08:17:10.255Z</time>
      </trkpt>
      <trkpt lat="47.533728" lon="7.987557">
        <ele>327.906839</ele>
        <time>2021-11-21T08:17:19.444Z</time>
      </trkpt>
      <trkpt lat="47.533509" lon="7.987411">
        <ele>328.402657</ele>
        <time>2021-11-21T08:17:24.358Z</time>
      </trkpt>
      <trkpt lat="47.533195" lon="7.987215">
        <ele>329.106132</ele>
        <time>2021-11-21T08:17:32.767Z</time>
      </trkpt>
      <trkpt lat="47.533142" lon="7.987165">
        <ele>329.235862</ele>
        <time>2021-11-21T08:17:33.698Z</time>
      </trkpt>
      <trkpt lat="47.533114" lon="7.987128">
        <ele>329.313331</ele>
        <time>2021-11-21T08:17:34.998Z</time>
      </trkpt>
      <trkpt lat="47.532879" lon="7.987447">
        <ele>329.971431</ele>
        <time>2021-11-21T08:17:42.333Z</time>
      </trkpt>
      <trkpt lat="47.532716" lon="7.987667">
        <ele>330.426713</ele>
        <time>2021-11-21T08:17:48.194Z</time>
      </trkpt>
      <trkpt lat="47.532621" lon="7.987826">
        <ele>330.722663</ele>
        <time>2021-11-21T08:17:50.336Z</time>
      </trkpt>
      <trkpt lat="47.532544" lon="7.987973">
        <ele>330.841692</ele>
        <time>2021-11-21T08:17:54.591Z</time>
      </trkpt>
      <trkpt lat="47.532464" lon="7.988171">
        <ele>330.821557</ele>
        <time>2021-11-21T08:17:56.692Z</time>
      </trkpt>
      <trkpt lat="47.532401" lon="7.988331">
        <ele>330.805395</ele>
        <time>2021-11-21T08:17:58.726Z</time>
      </trkpt>
      <trkpt lat="47.532373" lon="7.988399">
        <ele>330.798445</ele>
        <time>2021-11-21T08:18:01.058Z</time>
      </trkpt>
      <trkpt lat="47.532299" lon="7.988577">
        <ele>330.780204</ele>
        <time>2021-11-21T08:18:02.699Z</time>
      </trkpt>
      <trkpt lat="47.532014" lon="7.989225">
        <ele>330.712721</ele>
        <time>2021-11-21T08:18:09.245Z</time>
      </trkpt>
      <trkpt lat="47.531897" lon="7.989450">
        <ele>330.687940</ele>
        <time>2021-11-21T08:18:12.154Z</time>
      </trkpt>
      <trkpt lat="47.531823" lon="7.989607">
        <ele>330.671232</ele>
        <time>2021-11-21T08:18:13.516Z</time>
      </trkpt>
      <trkpt lat="47.531667" lon="7.989873">
        <ele>330.640487</ele>
        <time>2021-11-21T08:18:16.666Z</time>
      </trkpt>
      <trkpt lat="47.531363" lon="7.990436">
        <ele>330.476588</ele>
        <time>2021-11-21T08:18:22.589Z</time>
      </trkpt>
      <trkpt lat="47.530979" lon="7.991211">
        <ele>330.180488</ele>
        <time>2021-11-21T08:18:31.037Z</time>
      </trkpt>
      <trkpt lat="47.530933" lon="7.991310">
        <ele>330.143471</ele>
        <time>2021-11-21T08:18:32.022Z</time>
      </trkpt>
      <trkpt lat="47.530776" lon="7.991586">
        <ele>330.032307</ele>
        <time>2021-11-21T08:18:35.539Z</time>
      </trkpt>
      <trkpt lat="47.530495" lon="7.992103">
        <ele>329.827872</ele>
        <time>2021-11-21T08:18:41.467Z</time>
      </trkpt>
      <trkpt lat="47.530141" lon="7.992757">
        <ele>330.954989</ele>
        <time>2021-11-21T08:18:50.142Z</time>
      </trkpt>
      <trkpt lat="47.529350" lon="7.994228">
        <ele>333.906422</ele>
        <time>2021-11-21T08:19:26.047Z</time>
      </trkpt>
      <trkpt lat="47.529261" lon="7.994394">
        <ele>334.209805</ele>
        <time>2021-11-21T08:19:30.196Z</time>
      </trkpt>
      <trkpt lat="47.529180" lon="7.994531">
        <ele>334.463554</ele>
        <time>2021-11-21T08:19:33.659Z</time>
      </trkpt>
      <trkpt lat="47.528851" lon="7.994185">
        <ele>335.296302</ele>
        <time>2021-11-21T08:19:47.183Z</time>
      </trkpt>
      <trkpt lat="47.528522" lon="7.994788">
        <ele>336.376609</ele>
        <time>2021-11-21T08:20:03.672Z</time>
      </trkpt>
      <trkpt lat="47.527390" lon="7.996879">
        <ele>337.715345</ele>
        <time>2021-11-21T08:20:41.693Z</time>
      </trkpt>
      <trkpt lat="47.527239" lon="7.997118">
        <ele>337.720155</ele>
        <time>2021-11-21T08:20:45.373Z</time>
      </trkpt>
      <trkpt lat="47.527061" lon="7.997361">
        <ele>337.725423</ele>
        <time>2021-11-21T08:20:50.107Z</time>
      </trkpt>
      <trkpt lat="47.527005" lon="7.997436">
        <ele>337.727066</ele>
        <time>2021-11-21T08:20:51.473Z</time>
      </trkpt>
      <trkpt lat="47.526659" lon="7.997896">
        <ele>337.995642</ele>
        <time>2021-11-21T08:21:00.877Z</time>
      </trkpt>
      <trkpt lat="47.526462" lon="7.998465">
        <ele>338.300047</ele>
        <time>2021-11-21T08:21:10.479Z</time>
      </trkpt>
      <trkpt lat="47.526232" lon="7.998874">
        <ele>338.553432</ele>
        <time>2021-11-21T08:21:18.645Z</time>
      </trkpt>
      <trkpt lat="47.522812" lon="8.002772">
        <ele>344.778576</ele>
        <time>2021-11-21T08:23:12.528Z</time>
      </trkpt>
      <trkpt lat="47.522593" lon="8.003040">
        <ele>345.174652</ele>
        <time>2021-11-21T08:23:20.790Z</time>
      </trkpt>
      <trkpt lat="47.522286" lon="8.003405">
        <ele>345.723527</ele>
        <time>2021-11-21T08:23:32.090Z</time>
      </trkpt>
      <trkpt lat="47.521941" lon="8.003805">
        <ele>346.334389</ele>
        <time>2021-11-21T08:23:43.384Z</time>
      </trkpt>
      <trkpt lat="47.521691" lon="8.004044">
        <ele>346.749244</ele>
        <time>2021-11-21T08:23:51.100Z</time>
      </trkpt>
      <trkpt lat="47.521488" lon="8.004236">
        <ele>347.085054</ele>
        <time>2021-11-21T08:23:56.446Z</time>
      </trkpt>
      <trkpt lat="47.521214" lon="8.004538">
        <ele>346.919742</ele>
        <time>2021-11-21T08:24:04.292Z</time>
      </trkpt>
      <trkpt lat="47.521327" lon="8.004951">
        <ele>346.665589</ele>
        <time>2021-11-21T08:24:10.238Z</time>
      </trkpt>
      <trkpt lat="47.521277" lon="8.005104">
        <ele>346.568645</ele>
        <time>2021-11-21T08:24:12.371Z</time>
      </trkpt>
      <trkpt lat="47.520956" lon="8.005345">
        <ele>346.264684</ele>
        <time>2021-11-21T08:24:18.633Z</time>
      </trkpt>
      <trkpt lat="47.518926" lon="8.007732">
        <ele>342.430296</ele>
        <time>2021-11-21T08:24:59.609Z</time>
      </trkpt>
      <trkpt lat="47.518239" lon="8.008485">
        <ele>342.764081</ele>
        <time>2021-11-21T08:25:15.635Z</time>
      </trkpt>
      <trkpt lat="47.517851" lon="8.008946">
        <ele>342.958348</ele>
        <time>2021-11-21T08:25:27.847Z</time>
      </trkpt>
      <trkpt lat="47.517791" lon="8.009018">
        <ele>342.988507</ele>
        <time>2021-11-21T08:25:30.195Z</time>
      </trkpt>
      <trkpt lat="47.517615" lon="8.009232">
        <ele>343.077440</ele>
        <time>2021-11-21T08:25:35.923Z</time>
      </trkpt>
      <trkpt lat="47.517564" lon="8.009350">
        <ele>343.140827</ele>
        <time>2021-11-21T08:25:39.166Z</time>
      </trkpt>
      <trkpt lat="47.517508" lon="8.009440">
        <ele>343.386647</ele>
        <time>2021-11-21T08:25:41.514Z</time>
      </trkpt>
      <trkpt lat="47.517409" lon="8.009275">
        <ele>343.830000</ele>
        <time>2021-11-21T08:25:45.465Z</time>
      </trkpt>
      <trkpt lat="47.517345" lon="8.009165">
        <ele>344.121652</ele>
        <time>2021-11-21T08:25:48.858Z</time>
      </trkpt>
      <trkpt lat="47.516966" lon="8.008595">
        <ele>345.728440</ele>
        <time>2021-11-21T08:26:06.098Z</time>
      </trkpt>
      <trkpt lat="47.516886" lon="8.008468">
        <ele>346.077299</ele>
        <time>2021-11-21T08:26:09.683Z</time>
      </trkpt>
      <trkpt lat="47.516850" lon="8.008403">
        <ele>346.246160</ele>
        <time>2021-11-21T08:26:12.053Z</time>
      </trkpt>
      <trkpt lat="47.516778" lon="8.008407">
        <ele>346.460462</ele>
        <time>2021-11-21T08:26:14.724Z</time>
      </trkpt>
      <trkpt lat="47.516279" lon="8.008426">
        <ele>347.945144</ele>
        <time>2021-11-21T08:26:31.696Z</time>
      </trkpt>
      <trkpt lat="47.515777" lon="8.008451">
        <ele>349.273537</ele>
        <time>2021-11-21T08:26:49.053Z</time>
      </trkpt>
      <trkpt lat="47.514868" lon="8.008490">
        <ele>351.520884</ele>
        <time>2021-11-21T08:27:17.152Z</time>
      </trkpt>
      <trkpt lat="47.514604" lon="8.008601">
        <ele>352.199102</ele>
        <time>2021-11-21T08:27:24.778Z</time>
      </trkpt>
      <trkpt lat="47.514240" lon="8.009205">
        <ele>352.999622</ele>
        <time>2021-11-21T08:27:38.747Z</time>
      </trkpt>
      <trkpt lat="47.513914" lon="8.009618">
        <ele>353.154935</ele>
        <time>2021-11-21T08:27:48.525Z</time>
      </trkpt>
      <trkpt lat="47.513230" lon="8.010045">
        <ele>353.423648</ele>
        <time>2021-11-21T08:28:03.616Z</time>
      </trkpt>
      <trkpt lat="47.513001" lon="8.010158">
        <ele>353.511027</ele>
        <time>2021-11-21T08:28:08.154Z</time>
      </trkpt>
      <trkpt lat="47.512828" lon="8.010284">
        <ele>353.597218</ele>
        <time>2021-11-21T08:28:11.863Z</time>
      </trkpt>
      <trkpt lat="47.512231" lon="8.010689">
        <ele>353.993432</ele>
        <time>2021-11-21T08:28:24.148Z</time>
      </trkpt>
      <trkpt lat="47.511819" lon="8.010960">
        <ele>354.265441</ele>
        <time>2021-11-21T08:28:34.151Z</time>
      </trkpt>
      <trkpt lat="47.511743" lon="8.011016">
        <ele>354.316661</ele>
        <time>2021-11-21T08:28:36.331Z</time>
      </trkpt>
      <trkpt lat="47.511725" lon="8.011067">
        <ele>354.340111</ele>
        <time>2021-11-21T08:28:36.842Z</time>
      </trkpt>
      <trkpt lat="47.511369" lon="8.012112">
        <ele>355.106579</ele>
        <time>2021-11-21T08:28:54.561Z</time>
      </trkpt>
      <trkpt lat="47.511339" lon="8.012189">
        <ele>355.202513</ele>
        <time>2021-11-21T08:28:55.969Z</time>
      </trkpt>
      <trkpt lat="47.511240" lon="8.012453">
        <ele>355.528395</ele>
        <time>2021-11-21T08:29:01.259Z</time>
      </trkpt>
      <trkpt lat="47.511153" lon="8.012630">
        <ele>355.764644</ele>
        <time>2021-11-21T08:29:04.107Z</time>
      </trkpt>
      <trkpt lat="47.511060" lon="8.012793">
        <ele>355.994919</ele>
        <time>2021-11-21T08:29:07.948Z</time>
      </trkpt>
      <trkpt lat="47.510610" lon="8.013245">
        <ele>356.863793</ele>
        <time>2021-11-21T08:29:19.199Z</time>
      </trkpt>
      <trkpt lat="47.510195" lon="8.013657">
        <ele>357.454924</ele>
        <time>2021-11-21T08:29:29.368Z</time>
      </trkpt>
      <trkpt lat="47.510139" lon="8.013722">
        <ele>357.408167</ele>
        <time>2021-11-21T08:29:30.837Z</time>
      </trkpt>
      <trkpt lat="47.510028" lon="8.013857">
        <ele>357.313776</ele>
        <time>2021-11-21T08:29:32.783Z</time>
      </trkpt>
      <trkpt lat="47.509928" lon="8.014411">
        <ele>357.059265</ele>
        <time>2021-11-21T08:29:38.669Z</time>
      </trkpt>
      <trkpt lat="47.509891" lon="8.014585">
        <ele>356.978302</ele>
        <time>2021-11-21T08:29:40.382Z</time>
      </trkpt>
      <trkpt lat="47.509823" lon="8.014904">
        <ele>356.829836</ele>
        <time>2021-11-21T08:29:42.942Z</time>
      </trkpt>
      <trkpt lat="47.509799" lon="8.014989">
        <ele>356.788947</ele>
        <time>2021-11-21T08:29:43.724Z</time>
      </trkpt>
      <trkpt lat="47.509686" lon="8.015069">
        <ele>356.706644</ele>
        <time>2021-11-21T08:29:45.206Z</time>
      </trkpt>
      <trkpt lat="47.509612" lon="8.015079">
        <ele>356.657818</ele>
        <time>2021-11-21T08:29:45.992Z</time>
      </trkpt>
      <trkpt lat="47.509546" lon="8.015060">
        <ele>356.613638</ele>
        <time>2021-11-21T08:29:46.695Z</time>
      </trkpt>
      <trkpt lat="47.509444" lon="8.014982">
        <ele>356.538203</ele>
        <time>2021-11-21T08:29:48.073Z</time>
      </trkpt>
      <trkpt lat="47.509142" lon="8.014737">
        <ele>356.301056</ele>
        <time>2021-11-21T08:29:51.897Z</time>
      </trkpt>
      <trkpt lat="47.508749" lon="8.014436">
        <ele>355.863609</ele>
        <time>2021-11-21T08:29:57.124Z</time>
      </trkpt>
      <trkpt lat="47.508646" lon="8.014383">
        <ele>355.755804</ele>
        <time>2021-11-21T08:29:58.352Z</time>
      </trkpt>
      <trkpt lat="47.508562" lon="8.014341">
        <ele>355.668151</ele>
        <time>2021-11-21T08:29:59.365Z</time>
      </trkpt>
      <trkpt lat="47.508375" lon="8.014403">
        <ele>355.478698</ele>
        <time>2021-11-21T08:30:01.966Z</time>
      </trkpt>
      <trkpt lat="47.508333" lon="8.014419">
        <ele>355.435822</ele>
        <time>2021-11-21T08:30:02.440Z</time>
      </trkpt>
      <trkpt lat="47.508281" lon="8.014277">
        <ele>355.327956</ele>
        <time>2021-11-21T08:30:03.695Z</time>
      </trkpt>
      <trkpt lat="47.508214" lon="8.014183">
        <ele>355.236698</ele>
        <time>2021-11-21T08:30:04.953Z</time>
      </trkpt>
      <trkpt lat="47.508075" lon="8.014054">
        <ele>355.074508</ele>
        <time>2021-11-21T08:30:07.023Z</time>
      </trkpt>
      <trkpt lat="47.508011" lon="8.013995">
        <ele>354.999971</ele>
        <time>2021-11-21T08:30:07.997Z</time>
      </trkpt>
      <trkpt lat="47.507595" lon="8.013616">
        <ele>354.538375</ele>
        <time>2021-11-21T08:30:14.402Z</time>
      </trkpt>
      <trkpt lat="47.507559" lon="8.013585">
        <ele>354.520167</ele>
        <time>2021-11-21T08:30:15.031Z</time>
      </trkpt>
      <trkpt lat="47.507231" lon="8.013292">
        <ele>354.352684</ele>
        <time>2021-11-21T08:30:20.151Z</time>
      </trkpt>
      <trkpt lat="47.507191" lon="8.013279">
        <ele>354.334780</ele>
        <time>2021-11-21T08:30:20.696Z</time>
      </trkpt>
      <trkpt lat="47.507106" lon="8.013288">
        <ele>354.297524</ele>
        <time>2021-11-21T08:30:21.829Z</time>
      </trkpt>
      <trkpt lat="47.507084" lon="8.013290">
        <ele>354.287887</ele>
        <time>2021-11-21T08:30:22.120Z</time>
      </trkpt>
      <trkpt lat="47.507038" lon="8.013279">
        <ele>354.267516</ele>
        <time>2021-11-21T08:30:22.821Z</time>
      </trkpt>
      <trkpt lat="47.507007" lon="8.013263">
        <ele>354.253163</ele>
        <time>2021-11-21T08:30:23.274Z</time>
      </trkpt>
      <trkpt lat="47.506989" lon="8.013246">
        <ele>354.243828</ele>
        <time>2021-11-21T08:30:23.587Z</time>
      </trkpt>
      <trkpt lat="47.506955" lon="8.013213">
        <ele>354.226054</ele>
        <time>2021-11-21T08:30:24.196Z</time>
      </trkpt>
      <trkpt lat="47.506929" lon="8.013191">
        <ele>354.212961</ele>
        <time>2021-11-21T08:30:24.671Z</time>
      </trkpt>
      <trkpt lat="47.506890" lon="8.013159">
        <ele>354.193467</ele>
        <time>2021-11-21T08:30:25.323Z</time>
      </trkpt>
      <trkpt lat="47.506825" lon="8.013107">
        <ele>354.161165</ele>
        <time>2021-11-21T08:30:26.347Z</time>
      </trkpt>
      <trkpt lat="47.506760" lon="8.013057">
        <ele>354.129140</ele>
        <time>2021-11-21T08:30:27.351Z</time>
      </trkpt>
      <trkpt lat="47.506697" lon="8.013001">
        <ele>354.097013</ele>
        <time>2021-11-21T08:30:28.354Z</time>
      </trkpt>
      <trkpt lat="47.506663" lon="8.012973">
        <ele>354.080004</ele>
        <time>2021-11-21T08:30:28.927Z</time>
      </trkpt>
      <trkpt lat="47.506633" lon="8.012949">
        <ele>354.065095</ele>
        <time>2021-11-21T08:30:29.423Z</time>
      </trkpt>
      <trkpt lat="47.506533" lon="8.012868">
        <ele>354.015260</ele>
        <time>2021-11-21T08:30:30.948Z</time>
      </trkpt>
      <trkpt lat="47.506492" lon="8.012798">
        <ele>353.987898</ele>
        <time>2021-11-21T08:30:31.830Z</time>
      </trkpt>
      <trkpt lat="47.506472" lon="8.012743">
        <ele>353.969451</ele>
        <time>2021-11-21T08:30:32.341Z</time>
      </trkpt>
      <trkpt lat="47.506389" lon="8.012514">
        <ele>353.892701</ele>
        <time>2021-11-21T08:30:34.589Z</time>
      </trkpt>
      <trkpt lat="47.506346" lon="8.012464">
        <ele>353.868796</ele>
        <time>2021-11-21T08:30:35.310Z</time>
      </trkpt>
      <trkpt lat="47.506308" lon="8.012429">
        <ele>353.849230</ele>
        <time>2021-11-21T08:30:35.894Z</time>
      </trkpt>
      <trkpt lat="47.506101" lon="8.012240">
        <ele>353.806319</ele>
        <time>2021-11-21T08:30:38.968Z</time>
      </trkpt>
      <trkpt lat="47.505808" lon="8.011926">
        <ele>354.033624</ele>
        <time>2021-11-21T08:30:43.595Z</time>
      </trkpt>
      <trkpt lat="47.505388" lon="8.011390">
        <ele>354.382091</ele>
        <time>2021-11-21T08:30:52.264Z</time>
      </trkpt>
      <trkpt lat="47.505237" lon="8.011270">
        <ele>354.489789</ele>
        <time>2021-11-21T08:30:55.246Z</time>
      </trkpt>
      <trkpt lat="47.504446" lon="8.010688">
        <ele>355.479840</ele>
        <time>2021-11-21T08:31:14.222Z</time>
      </trkpt>
      <trkpt lat="47.504256" lon="8.010566">
        <ele>355.998585</ele>
        <time>2021-11-21T08:31:19.315Z</time>
      </trkpt>
      <trkpt lat="47.504178" lon="8.010516">
        <ele>356.211487</ele>
        <time>2021-11-21T08:31:21.516Z</time>
      </trkpt>
      <trkpt lat="47.504018" lon="8.010447">
        <ele>356.628907</ele>
        <time>2021-11-21T08:31:26.405Z</time>
      </trkpt>
      <trkpt lat="47.503467" lon="8.010296">
        <ele>358.032476</ele>
        <time>2021-11-21T08:31:40.270Z</time>
      </trkpt>
      <trkpt lat="47.502991" lon="8.010405">
        <ele>359.238918</ele>
        <time>2021-11-21T08:31:52.844Z</time>
      </trkpt>
      <trkpt lat="47.502959" lon="8.010415">
        <ele>359.320837</ele>
        <time>2021-11-21T08:31:54.459Z</time>
      </trkpt>
      <trkpt lat="47.502773" lon="8.009928">
        <ele>359.997532</ele>
        <time>2021-11-21T08:32:04.255Z</time>
      </trkpt>
      <trkpt lat="47.502267" lon="8.008979">
        <ele>361.403464</ele>
        <time>2021-11-21T08:32:21.686Z</time>
      </trkpt>
      <trkpt lat="47.502158" lon="8.008808">
        <ele>361.676871</ele>
        <time>2021-11-21T08:32:24.718Z</time>
      </trkpt>
      <trkpt lat="47.502062" lon="8.008650">
        <ele>361.923995</ele>
        <time>2021-11-21T08:32:28.104Z</time>
      </trkpt>
      <trkpt lat="47.501943" lon="8.008353">
        <ele>362.325562</ele>
        <time>2021-11-21T08:32:32.329Z</time>
      </trkpt>
      <trkpt lat="47.501537" lon="8.007308">
        <ele>362.908977</ele>
        <time>2021-11-21T08:32:46.566Z</time>
      </trkpt>
      <trkpt lat="47.501496" lon="8.007247">
        <ele>362.942288</ele>
        <time>2021-11-21T08:32:47.597Z</time>
      </trkpt>
      <trkpt lat="47.501293" lon="8.006936">
        <ele>363.109702</ele>
        <time>2021-11-21T08:32:52.393Z</time>
      </trkpt>
      <trkpt lat="47.501276" lon="8.006911">
        <ele>363.123434</ele>
        <time>2021-11-21T08:32:52.769Z</time>
      </trkpt>
      <trkpt lat="47.500997" lon="8.006551">
        <ele>363.335530</ele>
        <time>2021-11-21T08:32:58.513Z</time>
      </trkpt>
      <trkpt lat="47.500764" lon="8.006290">
        <ele>363.502971</ele>
        <time>2021-11-21T08:33:02.996Z</time>
      </trkpt>
      <trkpt lat="47.500647" lon="8.006180">
        <ele>363.615375</ele>
        <time>2021-11-21T08:33:06.154Z</time>
      </trkpt>
      <trkpt lat="47.500540" lon="8.006079">
        <ele>363.734982</ele>
        <time>2021-11-21T08:33:07.822Z</time>
      </trkpt>
      <trkpt lat="47.500310" lon="8.005852">
        <ele>363.995522</ele>
        <time>2021-11-21T08:33:12.817Z</time>
      </trkpt>
      <trkpt lat="47.500252" lon="8.005784">
        <ele>364.065257</ele>
        <time>2021-11-21T08:33:13.982Z</time>
      </trkpt>
      <trkpt lat="47.500207" lon="8.005727">
        <ele>364.121078</ele>
        <time>2021-11-21T08:33:14.872Z</time>
      </trkpt>
      <trkpt lat="47.500009" lon="8.005488">
        <ele>364.361875</ele>
        <time>2021-11-21T08:33:19.808Z</time>
      </trkpt>
      <trkpt lat="47.499991" lon="8.005468">
        <ele>364.383087</ele>
        <time>2021-11-21T08:33:20.167Z</time>
      </trkpt>
      <trkpt lat="47.499880" lon="8.005358">
        <ele>364.508985</ele>
        <time>2021-11-21T08:33:22.555Z</time>
      </trkpt>
      <trkpt lat="47.499856" lon="8.005338">
        <ele>364.534943</ele>
        <time>2021-11-21T08:33:23.043Z</time>
      </trkpt>
      <trkpt lat="47.499770" lon="8.005268">
        <ele>364.627444</ele>
        <time>2021-11-21T08:33:25.796Z</time>
      </trkpt>
      <trkpt lat="47.499523" lon="8.005078">
        <ele>364.889798</ele>
        <time>2021-11-21T08:33:30.526Z</time>
      </trkpt>
      <trkpt lat="47.499496" lon="8.005059">
        <ele>364.917975</ele>
        <time>2021-11-21T08:33:31.873Z</time>
      </trkpt>
      <trkpt lat="47.499409" lon="8.005000">
        <ele>365.008168</ele>
        <time>2021-11-21T08:33:33.331Z</time>
      </trkpt>
      <trkpt lat="47.499183" lon="8.004875">
        <ele>365.242714</ele>
        <time>2021-11-21T08:33:37.895Z</time>
      </trkpt>
      <trkpt lat="47.499012" lon="8.004762">
        <ele>365.557940</ele>
        <time>2021-11-21T08:33:41.565Z</time>
      </trkpt>
      <trkpt lat="47.498965" lon="8.004710">
        <ele>365.656714</ele>
        <time>2021-11-21T08:33:42.727Z</time>
      </trkpt>
      <trkpt lat="47.498898" lon="8.004636">
        <ele>365.797431</ele>
        <time>2021-11-21T08:33:44.388Z</time>
      </trkpt>
      <trkpt lat="47.498753" lon="8.004410">
        <ele>366.151875</ele>
        <time>2021-11-21T08:33:48.875Z</time>
      </trkpt>
      <trkpt lat="47.498698" lon="8.004313">
        <ele>366.295889</ele>
        <time>2021-11-21T08:33:50.770Z</time>
      </trkpt>
      <trkpt lat="47.498450" lon="8.003874">
        <ele>366.946673</ele>
        <time>2021-11-21T08:33:59.565Z</time>
      </trkpt>
      <trkpt lat="47.498213" lon="8.003454">
        <ele>367.569005</ele>
        <time>2021-11-21T08:34:07.758Z</time>
      </trkpt>
      <trkpt lat="47.498166" lon="8.003383">
        <ele>367.682048</ele>
        <time>2021-11-21T08:34:09.186Z</time>
      </trkpt>
      <trkpt lat="47.498072" lon="8.003250">
        <ele>367.900942</ele>
        <time>2021-11-21T08:34:11.934Z</time>
      </trkpt>
      <trkpt lat="47.497951" lon="8.003094">
        <ele>368.171052</ele>
        <time>2021-11-21T08:34:15.769Z</time>
      </trkpt>
      <trkpt lat="47.497607" lon="8.002710">
        <ele>368.935245</ele>
        <time>2021-11-21T08:34:25.169Z</time>
      </trkpt>
      <trkpt lat="47.497540" lon="8.002634">
        <ele>369.085948</ele>
        <time>2021-11-21T08:34:27.028Z</time>
      </trkpt>
      <trkpt lat="47.497390" lon="8.002409">
        <ele>369.467222</ele>
        <time>2021-11-21T08:34:31.763Z</time>
      </trkpt>
      <trkpt lat="47.497307" lon="8.002279">
        <ele>369.682966</ele>
        <time>2021-11-21T08:34:34.345Z</time>
      </trkpt>
      <trkpt lat="47.497264" lon="8.002219">
        <ele>369.788470</ele>
        <time>2021-11-21T08:34:35.887Z</time>
      </trkpt>
      <trkpt lat="47.497207" lon="8.002132">
        <ele>369.934648</ele>
        <time>2021-11-21T08:34:37.515Z</time>
      </trkpt>
      <trkpt lat="47.496932" lon="8.001715">
        <ele>370.637526</ele>
        <time>2021-11-21T08:34:46.631Z</time>
      </trkpt>
      <trkpt lat="47.496908" lon="8.001680">
        <ele>370.697677</ele>
        <time>2021-11-21T08:34:47.376Z</time>
      </trkpt>
      <trkpt lat="47.496861" lon="8.001608">
        <ele>370.818438</ele>
        <time>2021-11-21T08:34:48.887Z</time>
      </trkpt>
      <trkpt lat="47.496820" lon="8.001547">
        <ele>370.922225</ele>
        <time>2021-11-21T08:34:50.203Z</time>
      </trkpt>
      <trkpt lat="47.496585" lon="8.001187">
        <ele>371.494247</ele>
        <time>2021-11-21T08:34:57.302Z</time>
      </trkpt>
      <trkpt lat="47.496535" lon="8.001108">
        <ele>371.556579</ele>
        <time>2021-11-21T08:34:58.861Z</time>
      </trkpt>
      <trkpt lat="47.496533" lon="8.001104">
        <ele>371.559445</ele>
        <time>2021-11-21T08:34:58.934Z</time>
      </trkpt>
      <trkpt lat="47.496517" lon="8.001077">
        <ele>371.580125</ele>
        <time>2021-11-21T08:34:59.734Z</time>
      </trkpt>
      <trkpt lat="47.496429" lon="8.000925">
        <ele>371.695389</ele>
        <time>2021-11-21T08:35:02.064Z</time>
      </trkpt>
      <trkpt lat="47.496280" lon="8.000664">
        <ele>371.892147</ele>
        <time>2021-11-21T08:35:06.926Z</time>
      </trkpt>
      <trkpt lat="47.496272" lon="8.000651">
        <ele>371.902272</ele>
        <time>2021-11-21T08:35:07.137Z</time>
      </trkpt>
      <trkpt lat="47.496234" lon="8.000584">
        <ele>371.952645</ele>
        <time>2021-11-21T08:35:08.027Z</time>
      </trkpt>
      <trkpt lat="47.496011" lon="8.000286">
        <ele>372.208706</ele>
        <time>2021-11-21T08:35:13.721Z</time>
      </trkpt>
      <trkpt lat="47.495718" lon="8.000005">
        <ele>372.506265</ele>
        <time>2021-11-21T08:35:19.875Z</time>
      </trkpt>
      <trkpt lat="47.495430" lon="7.999752">
        <ele>372.791699</ele>
        <time>2021-11-21T08:35:25.402Z</time>
      </trkpt>
      <trkpt lat="47.495197" lon="7.999589">
        <ele>373.001370</ele>
        <time>2021-11-21T08:35:29.625Z</time>
      </trkpt>
      <trkpt lat="47.494812" lon="7.999457">
        <ele>373.083495</ele>
        <time>2021-11-21T08:35:35.750Z</time>
      </trkpt>
      <trkpt lat="47.494643" lon="7.999430">
        <ele>373.118818</ele>
        <time>2021-11-21T08:35:38.174Z</time>
      </trkpt>
      <trkpt lat="47.494489" lon="7.999417">
        <ele>373.150872</ele>
        <time>2021-11-21T08:35:40.297Z</time>
      </trkpt>
      <trkpt lat="47.494454" lon="7.999411">
        <ele>373.158194</ele>
        <time>2021-11-21T08:35:40.765Z</time>
      </trkpt>
      <trkpt lat="47.494295" lon="7.999385">
        <ele>373.191436</ele>
        <time>2021-11-21T08:35:42.955Z</time>
      </trkpt>
      <trkpt lat="47.494272" lon="7.999381">
        <ele>373.196249</ele>
        <time>2021-11-21T08:35:43.282Z</time>
      </trkpt>
      <trkpt lat="47.493961" lon="7.999292">
        <ele>373.262074</ele>
        <time>2021-11-21T08:35:47.913Z</time>
      </trkpt>
      <trkpt lat="47.493937" lon="7.999285">
        <ele>373.267157</ele>
        <time>2021-11-21T08:35:48.417Z</time>
      </trkpt>
      <trkpt lat="47.493751" lon="7.999220">
        <ele>373.306872</ele>
        <time>2021-11-21T08:35:51.513Z</time>
      </trkpt>
      <trkpt lat="47.493742" lon="7.999216">
        <ele>373.308825</ele>
        <time>2021-11-21T08:35:51.625Z</time>
      </trkpt>
      <trkpt lat="47.493603" lon="7.999152">
        <ele>373.339075</ele>
        <time>2021-11-21T08:35:54.163Z</time>
      </trkpt>
      <trkpt lat="47.493603" lon="7.999152">
        <ele>373.339075</ele>
        <time>2021-11-21T08:35:54.191Z</time>
      </trkpt>
      <trkpt lat="47.493614" lon="7.999095">
        <ele>373.347399</ele>
        <time>2021-11-21T08:35:54.878Z</time>
      </trkpt>
      <trkpt lat="47.493634" lon="7.998744">
        <ele>373.489317</ele>
        <time>2021-11-21T08:35:58.794Z</time>
      </trkpt>
      <trkpt lat="47.493506" lon="7.998323">
        <ele>373.794514</ele>
        <time>2021-11-21T08:36:04.764Z</time>
      </trkpt>
      <trkpt lat="47.493473" lon="7.998227">
        <ele>373.865720</ele>
        <time>2021-11-21T08:36:06.141Z</time>
      </trkpt>
      <trkpt lat="47.493432" lon="7.998154">
        <ele>373.928475</ele>
        <time>2021-11-21T08:36:07.607Z</time>
      </trkpt>
      <trkpt lat="47.493360" lon="7.998025">
        <ele>374.039089</ele>
        <time>2021-11-21T08:36:09.805Z</time>
      </trkpt>
      <trkpt lat="47.493293" lon="7.997765">
        <ele>374.223049</ele>
        <time>2021-11-21T08:36:13.284Z</time>
      </trkpt>
      <trkpt lat="47.493293" lon="7.997679">
        <ele>374.279903</ele>
        <time>2021-11-21T08:36:14.619Z</time>
      </trkpt>
      <trkpt lat="47.493330" lon="7.997491">
        <ele>374.409353</ele>
        <time>2021-11-21T08:36:17.123Z</time>
      </trkpt>
      <trkpt lat="47.493376" lon="7.997354">
        <ele>374.510489</ele>
        <time>2021-11-21T08:36:18.905Z</time>
      </trkpt>
      <trkpt lat="47.493439" lon="7.997189">
        <ele>374.635780</ele>
        <time>2021-11-21T08:36:21.436Z</time>
      </trkpt>
      <trkpt lat="47.493629" lon="7.996681">
        <ele>375.019632</ele>
        <time>2021-11-21T08:36:28.787Z</time>
      </trkpt>
      <trkpt lat="47.493684" lon="7.996562">
        <ele>375.114946</ele>
        <time>2021-11-21T08:36:30.741Z</time>
      </trkpt>
      <trkpt lat="47.493652" lon="7.996488">
        <ele>375.174567</ele>
        <time>2021-11-21T08:36:31.847Z</time>
      </trkpt>
      <trkpt lat="47.493567" lon="7.996156">
        <ele>375.418027</ele>
        <time>2021-11-21T08:36:36.362Z</time>
      </trkpt>
      <trkpt lat="47.493524" lon="7.995985">
        <ele>375.543146</ele>
        <time>2021-11-21T08:36:38.725Z</time>
      </trkpt>
      <trkpt lat="47.493430" lon="7.995894">
        <ele>375.657142</ele>
        <time>2021-11-21T08:36:40.707Z</time>
      </trkpt>
      <trkpt lat="47.493367" lon="7.995872">
        <ele>375.722836</ele>
        <time>2021-11-21T08:36:42.020Z</time>
      </trkpt>
      <trkpt lat="47.492867" lon="7.995700">
        <ele>376.243810</ele>
        <time>2021-11-21T08:36:51.856Z</time>
      </trkpt>
      <trkpt lat="47.492390" lon="7.995213">
        <ele>376.831931</ele>
        <time>2021-11-21T08:37:02.742Z</time>
      </trkpt>
      <trkpt lat="47.492344" lon="7.995171">
        <ele>376.886786</ele>
        <time>2021-11-21T08:37:03.752Z</time>
      </trkpt>
      <trkpt lat="47.492271" lon="7.995104">
        <ele>376.974825</ele>
        <time>2021-11-21T08:37:05.366Z</time>
      </trkpt>
      <trkpt lat="47.492156" lon="7.994971">
        <ele>377.130554</ele>
        <time>2021-11-21T08:37:07.895Z</time>
      </trkpt>
      <trkpt lat="47.491996" lon="7.994807">
        <ele>377.338223</ele>
        <time>2021-11-21T08:37:12.575Z</time>
      </trkpt>
      <trkpt lat="47.491759" lon="7.994592">
        <ele>377.634832</ele>
        <time>2021-11-21T08:37:19.069Z</time>
      </trkpt>
      <trkpt lat="47.491577" lon="7.994479">
        <ele>377.845425</ele>
        <time>2021-11-21T08:37:23.826Z</time>
      </trkpt>
      <trkpt lat="47.491370" lon="7.994298">
        <ele>378.101966</ele>
        <time>2021-11-21T08:37:29.755Z</time>
      </trkpt>
      <trkpt lat="47.490495" lon="7.993473">
        <ele>379.278013</ele>
        <time>2021-11-21T08:37:55.985Z</time>
      </trkpt>
      <trkpt lat="47.489739" lon="7.992457">
        <ele>380.593794</ele>
        <time>2021-11-21T08:38:21.934Z</time>
      </trkpt>
      <trkpt lat="47.489640" lon="7.992334">
        <ele>380.760344</ele>
        <time>2021-11-21T08:38:25.203Z</time>
      </trkpt>
      <trkpt lat="47.489544" lon="7.992214">
        <ele>380.922255</ele>
        <time>2021-11-21T08:38:28.517Z</time>
      </trkpt>
      <trkpt lat="47.489090" lon="7.991643">
        <ele>381.771351</ele>
        <time>2021-11-21T08:38:43.541Z</time>
      </trkpt>
      <trkpt lat="47.488771" lon="7.991233">
        <ele>382.405087</ele>
        <time>2021-11-21T08:38:54.304Z</time>
      </trkpt>
      <trkpt lat="47.488698" lon="7.991149">
        <ele>382.543786</ele>
        <time>2021-11-21T08:38:56.786Z</time>
      </trkpt>
      <trkpt lat="47.487359" lon="7.989771">
        <ele>385.080338</ele>
        <time>2021-11-21T08:39:40.399Z</time>
      </trkpt>
      <trkpt lat="47.487298" lon="7.989709">
        <ele>385.200456</ele>
        <time>2021-11-21T08:39:42.709Z</time>
      </trkpt>
      <trkpt lat="47.487127" lon="7.989547">
        <ele>385.530022</ele>
        <time>2021-11-21T08:39:47.869Z</time>
      </trkpt>
      <trkpt lat="47.486511" lon="7.989012">
        <ele>386.689375</ele>
        <time>2021-11-21T08:40:07.078Z</time>
      </trkpt>
      <trkpt lat="47.486162" lon="7.988596">
        <ele>387.379751</ele>
        <time>2021-11-21T08:40:19.006Z</time>
      </trkpt>
      <trkpt lat="47.485848" lon="7.988106">
        <ele>388.075172</ele>
        <time>2021-11-21T08:40:31.159Z</time>
      </trkpt>
      <trkpt lat="47.485496" lon="7.987549">
        <ele>388.860529</ele>
        <time>2021-11-21T08:40:44.087Z</time>
      </trkpt>
      <trkpt lat="47.484679" lon="7.986270">
        <ele>390.963763</ele>
        <time>2021-11-21T08:41:15.590Z</time>
      </trkpt>
      <trkpt lat="47.484546" lon="7.985963">
        <ele>391.436735</ele>
        <time>2021-11-21T08:41:22.686Z</time>
      </trkpt>
      <trkpt lat="47.484451" lon="7.985647">
        <ele>391.885312</ele>
        <time>2021-11-21T08:41:29.472Z</time>
      </trkpt>
      <trkpt lat="47.484219" lon="7.985842">
        <ele>392.397391</ele>
        <time>2021-11-21T08:41:37.371Z</time>
      </trkpt>
      <trkpt lat="47.484091" lon="7.985948">
        <ele>392.678907</ele>
        <time>2021-11-21T08:41:41.568Z</time>
      </trkpt>
      <trkpt lat="47.484049" lon="7.985980">
        <ele>392.769573</ele>
        <time>2021-11-21T08:41:42.990Z</time>
      </trkpt>
      <trkpt lat="47.483826" lon="7.986159">
        <ele>393.279801</ele>
        <time>2021-11-21T08:41:50.426Z</time>
      </trkpt>
      <trkpt lat="47.483550" lon="7.986378">
        <ele>393.936424</ele>
        <time>2021-11-21T08:41:59.613Z</time>
      </trkpt>
      <trkpt lat="47.483462" lon="7.986151">
        <ele>394.307227</ele>
        <time>2021-11-21T08:42:03.634Z</time>
      </trkpt>
      <trkpt lat="47.483382" lon="7.985915">
        <ele>394.681330</ele>
        <time>2021-11-21T08:42:07.844Z</time>
      </trkpt>
      <trkpt lat="47.483274" lon="7.985553">
        <ele>395.242015</ele>
        <time>2021-11-21T08:42:13.915Z</time>
      </trkpt>
      <trkpt lat="47.483204" lon="7.985244">
        <ele>395.703789</ele>
        <time>2021-11-21T08:42:18.963Z</time>
      </trkpt>
      <trkpt lat="47.483173" lon="7.985106">
        <ele>395.909845</ele>
        <time>2021-11-21T08:42:21.249Z</time>
      </trkpt>
      <trkpt lat="47.483153" lon="7.984996">
        <ele>396.071249</ele>
        <time>2021-11-21T08:42:23.058Z</time>
      </trkpt>
      <trkpt lat="47.483130" lon="7.984873">
        <ele>396.252080</ele>
        <time>2021-11-21T08:42:25.012Z</time>
      </trkpt>
      <trkpt lat="47.483128" lon="7.984861">
        <ele>396.269593</ele>
        <time>2021-11-21T08:42:25.187Z</time>
      </trkpt>
      <trkpt lat="47.483001" lon="7.984129">
        <ele>397.176828</ele>
        <time>2021-11-21T08:42:37.222Z</time>
      </trkpt>
      <trkpt lat="47.482897" lon="7.983529">
        <ele>397.800446</ele>
        <time>2021-11-21T08:42:45.998Z</time>
      </trkpt>
      <trkpt lat="47.482840" lon="7.983205">
        <ele>398.137513</ele>
        <time>2021-11-21T08:42:50.557Z</time>
      </trkpt>
      <trkpt lat="47.482729" lon="7.982770">
        <ele>398.605640</ele>
        <time>2021-11-21T08:42:56.687Z</time>
      </trkpt>
      <trkpt lat="47.482704" lon="7.982687">
        <ele>398.697126</ele>
        <time>2021-11-21T08:42:57.876Z</time>
      </trkpt>
      <trkpt lat="47.482704" lon="7.982687">
        <ele>398.697126</ele>
        <time>2021-11-21T08:42:57.897Z</time>
      </trkpt>
      <trkpt lat="47.482652" lon="7.982524">
        <ele>398.878597</ele>
        <time>2021-11-21T08:43:00.034Z</time>
      </trkpt>
      <trkpt lat="47.482594" lon="7.982339">
        <ele>399.083917</ele>
        <time>2021-11-21T08:43:02.836Z</time>
      </trkpt>
      <trkpt lat="47.482563" lon="7.982231">
        <ele>399.202051</ele>
        <time>2021-11-21T08:43:04.441Z</time>
      </trkpt>
      <trkpt lat="47.482472" lon="7.981944">
        <ele>399.519833</ele>
        <time>2021-11-21T08:43:08.492Z</time>
      </trkpt>
      <trkpt lat="47.482458" lon="7.981897">
        <ele>399.570465</ele>
        <time>2021-11-21T08:43:09.238Z</time>
      </trkpt>
      <trkpt lat="47.482159" lon="7.980898">
        <ele>400.647522</ele>
        <time>2021-11-21T08:43:24.502Z</time>
      </trkpt>
      <trkpt lat="47.482099" lon="7.980698">
        <ele>400.863233</ele>
        <time>2021-11-21T08:43:27.595Z</time>
      </trkpt>
      <trkpt lat="47.482025" lon="7.980480">
        <ele>401.103721</ele>
        <time>2021-11-21T08:43:30.981Z</time>
      </trkpt>
      <trkpt lat="47.481977" lon="7.980334">
        <ele>401.263773</ele>
        <time>2021-11-21T08:43:33.394Z</time>
      </trkpt>
      <trkpt lat="47.481757" lon="7.979824">
        <ele>401.860215</ele>
        <time>2021-11-21T08:43:41.944Z</time>
      </trkpt>
      <trkpt lat="47.481673" lon="7.979611">
        <ele>402.112102</ele>
        <time>2021-11-21T08:43:45.461Z</time>
      </trkpt>
      <trkpt lat="47.481627" lon="7.979494">
        <ele>402.292480</ele>
        <time>2021-11-21T08:43:47.467Z</time>
      </trkpt>
      <trkpt lat="47.481508" lon="7.979190">
        <ele>402.760639</ele>
        <time>2021-11-21T08:43:52.185Z</time>
      </trkpt>
      <trkpt lat="47.481417" lon="7.978989">
        <ele>403.083040</ele>
        <time>2021-11-21T08:43:55.909Z</time>
      </trkpt>
      <trkpt lat="47.481331" lon="7.978796">
        <ele>403.391104</ele>
        <time>2021-11-21T08:43:59.110Z</time>
      </trkpt>
      <trkpt lat="47.481075" lon="7.978353">
        <ele>404.167838</ele>
        <time>2021-11-21T08:44:08.084Z</time>
      </trkpt>
      <trkpt lat="47.481057" lon="7.978315">
        <ele>404.229677</ele>
        <time>2021-11-21T08:44:09.188Z</time>
      </trkpt>
      <trkpt lat="47.480540" lon="7.977249">
        <ele>406.120920</ele>
        <time>2021-11-21T08:44:30.340Z</time>
      </trkpt>
      <trkpt lat="47.480294" lon="7.976615">
        <ele>407.488851</ele>
        <time>2021-11-21T08:44:42.383Z</time>
      </trkpt>
      <trkpt lat="47.480258" lon="7.976521">
        <ele>407.691019</ele>
        <time>2021-11-21T08:44:44.473Z</time>
      </trkpt>
      <trkpt lat="47.480172" lon="7.976321">
        <ele>408.134579</ele>
        <time>2021-11-21T08:44:47.884Z</time>
      </trkpt>
      <trkpt lat="47.480019" lon="7.976061">
        <ele>408.779659</ele>
        <time>2021-11-21T08:44:53.623Z</time>
      </trkpt>
      <trkpt lat="47.479744" lon="7.975611">
        <ele>409.914876</ele>
        <time>2021-11-21T08:45:04.147Z</time>
      </trkpt>
      <trkpt lat="47.479662" lon="7.975458">
        <ele>410.280260</ele>
        <time>2021-11-21T08:45:08.165Z</time>
      </trkpt>
      <trkpt lat="47.479650" lon="7.975428">
        <ele>410.345491</ele>
        <time>2021-11-21T08:45:08.771Z</time>
      </trkpt>
      <trkpt lat="47.479548" lon="7.975187">
        <ele>411.032123</ele>
        <time>2021-11-21T08:45:14.552Z</time>
      </trkpt>
      <trkpt lat="47.479521" lon="7.975122">
        <ele>411.255761</ele>
        <time>2021-11-21T08:45:16.209Z</time>
      </trkpt>
      <trkpt lat="47.479256" lon="7.974388">
        <ele>413.695023</ele>
        <time>2021-11-21T08:45:34.429Z</time>
      </trkpt>
      <trkpt lat="47.479198" lon="7.974266">
        <ele>414.132245</ele>
        <time>2021-11-21T08:45:38.141Z</time>
      </trkpt>
      <trkpt lat="47.479172" lon="7.974215">
        <ele>414.319499</ele>
        <time>2021-11-21T08:45:39.914Z</time>
      </trkpt>
      <trkpt lat="47.479095" lon="7.974066">
        <ele>414.869300</ele>
        <time>2021-11-21T08:45:44.192Z</time>
      </trkpt>
      <trkpt lat="47.479061" lon="7.974014">
        <ele>415.081379</ele>
        <time>2021-11-21T08:45:45.391Z</time>
      </trkpt>
      <trkpt lat="47.478952" lon="7.973850">
        <ele>415.755605</ele>
        <time>2021-11-21T08:45:50.468Z</time>
      </trkpt>
      <trkpt lat="47.478606" lon="7.973396">
        <ele>417.761320</ele>
        <time>2021-11-21T08:46:06.232Z</time>
      </trkpt>
      <trkpt lat="47.478494" lon="7.973191">
        <ele>418.501549</ele>
        <time>2021-11-21T08:46:11.107Z</time>
      </trkpt>
      <trkpt lat="47.478424" lon="7.973015">
        <ele>418.948830</ele>
        <time>2021-11-21T08:46:16.710Z</time>
      </trkpt>
      <trkpt lat="47.478295" lon="7.972689">
        <ele>419.776236</ele>
        <time>2021-11-21T08:46:24.054Z</time>
      </trkpt>
      <trkpt lat="47.478213" lon="7.972508">
        <ele>420.253499</ele>
        <time>2021-11-21T08:46:29.322Z</time>
      </trkpt>
      <trkpt lat="47.478198" lon="7.972475">
        <ele>420.340604</ele>
        <time>2021-11-21T08:46:30.116Z</time>
      </trkpt>
      <trkpt lat="47.478083" lon="7.972275">
        <ele>420.915741</ele>
        <time>2021-11-21T08:46:34.424Z</time>
      </trkpt>
      <trkpt lat="47.477778" lon="7.971876">
        <ele>422.235094</ele>
        <time>2021-11-21T08:46:46.529Z</time>
      </trkpt>
      <trkpt lat="47.477698" lon="7.971759">
        <ele>422.599627</ele>
        <time>2021-11-21T08:46:50.024Z</time>
      </trkpt>
      <trkpt lat="47.477623" lon="7.971640">
        <ele>422.956012</ele>
        <time>2021-11-21T08:46:52.272Z</time>
      </trkpt>
      <trkpt lat="47.477553" lon="7.971461">
        <ele>423.408974</ele>
        <time>2021-11-21T08:46:55.932Z</time>
      </trkpt>
      <trkpt lat="47.477522" lon="7.971381">
        <ele>423.610954</ele>
        <time>2021-11-21T08:46:57.921Z</time>
      </trkpt>
      <trkpt lat="47.477370" lon="7.970827">
        <ele>424.337372</ele>
        <time>2021-11-21T08:47:06.302Z</time>
      </trkpt>
      <trkpt lat="47.477322" lon="7.970682">
        <ele>424.390432</ele>
        <time>2021-11-21T08:47:08.425Z</time>
      </trkpt>
      <trkpt lat="47.477284" lon="7.970600">
        <ele>424.423106</ele>
        <time>2021-11-21T08:47:09.363Z</time>
      </trkpt>
      <trkpt lat="47.477262" lon="7.970548">
        <ele>424.443267</ele>
        <time>2021-11-21T08:47:10.158Z</time>
      </trkpt>
      <trkpt lat="47.477203" lon="7.970445">
        <ele>424.487638</ele>
        <time>2021-11-21T08:47:11.971Z</time>
      </trkpt>
      <trkpt lat="47.477135" lon="7.970342">
        <ele>424.534956</ele>
        <time>2021-11-21T08:47:13.662Z</time>
      </trkpt>
      <trkpt lat="47.477029" lon="7.970212">
        <ele>424.601901</ele>
        <time>2021-11-21T08:47:15.424Z</time>
      </trkpt>
      <trkpt lat="47.476944" lon="7.970103">
        <ele>424.656593</ele>
        <time>2021-11-21T08:47:17.327Z</time>
      </trkpt>
      <trkpt lat="47.476670" lon="7.969631">
        <ele>424.861070</ele>
        <time>2021-11-21T08:47:23.000Z</time>
      </trkpt>
      <trkpt lat="47.476396" lon="7.969182">
        <ele>425.059874</ele>
        <time>2021-11-21T08:47:28.821Z</time>
      </trkpt>
      <trkpt lat="47.476327" lon="7.969094">
        <ele>425.104168</ele>
        <time>2021-11-21T08:47:30.337Z</time>
      </trkpt>
      <trkpt lat="47.476103" lon="7.968806">
        <ele>425.340372</ele>
        <time>2021-11-21T08:47:35.187Z</time>
      </trkpt>
      <trkpt lat="47.475871" lon="7.968576">
        <ele>425.565635</ele>
        <time>2021-11-21T08:47:39.819Z</time>
      </trkpt>
      <trkpt lat="47.475729" lon="7.968403">
        <ele>425.714010</ele>
        <time>2021-11-21T08:47:43.006Z</time>
      </trkpt>
      <trkpt lat="47.475684" lon="7.968334">
        <ele>425.766285</ele>
        <time>2021-11-21T08:47:43.881Z</time>
      </trkpt>
      <trkpt lat="47.475616" lon="7.968229">
        <ele>425.845567</ele>
        <time>2021-11-21T08:47:45.177Z</time>
      </trkpt>
      <trkpt lat="47.475607" lon="7.968209">
        <ele>425.858667</ele>
        <time>2021-11-21T08:47:45.393Z</time>
      </trkpt>
      <trkpt lat="47.475436" lon="7.967868">
        <ele>426.090158</ele>
        <time>2021-11-21T08:47:50.256Z</time>
      </trkpt>
      <trkpt lat="47.475359" lon="7.967770">
        <ele>426.172087</ele>
        <time>2021-11-21T08:47:51.988Z</time>
      </trkpt>
      <trkpt lat="47.475280" lon="7.967711">
        <ele>426.243468</ele>
        <time>2021-11-21T08:47:53.797Z</time>
      </trkpt>
      <trkpt lat="47.475217" lon="7.967697">
        <ele>426.294855</ele>
        <time>2021-11-21T08:47:55.222Z</time>
      </trkpt>
      <trkpt lat="47.474560" lon="7.967748">
        <ele>427.791557</ele>
        <time>2021-11-21T08:48:09.994Z</time>
      </trkpt>
      <trkpt lat="47.474238" lon="7.967666">
        <ele>429.013189</ele>
        <time>2021-11-21T08:48:19.071Z</time>
      </trkpt>
      <trkpt lat="47.474076" lon="7.967608">
        <ele>429.636375</ele>
        <time>2021-11-21T08:48:24.120Z</time>
      </trkpt>
      <trkpt lat="47.473664" lon="7.967490">
        <ele>431.205404</ele>
        <time>2021-11-21T08:48:38.599Z</time>
      </trkpt>
      <trkpt lat="47.473444" lon="7.967380">
        <ele>432.073670</ele>
        <time>2021-11-21T08:48:45.904Z</time>
      </trkpt>
      <trkpt lat="47.472859" lon="7.966644">
        <ele>435.135449</ele>
        <time>2021-11-21T08:49:12.157Z</time>
      </trkpt>
      <trkpt lat="47.472594" lon="7.966357">
        <ele>436.504320</ele>
        <time>2021-11-21T08:49:23.032Z</time>
      </trkpt>
      <trkpt lat="47.472564" lon="7.966330">
        <ele>436.650682</ele>
        <time>2021-11-21T08:49:24.615Z</time>
      </trkpt>
      <trkpt lat="47.471880" lon="7.965766">
        <ele>439.914558</ele>
        <time>2021-11-21T08:49:47.972Z</time>
      </trkpt>
      <trkpt lat="47.471503" lon="7.965463">
        <ele>441.509343</ele>
        <time>2021-11-21T08:50:00.386Z</time>
      </trkpt>
      <trkpt lat="47.471250" lon="7.965231">
        <ele>442.489427</ele>
        <time>2021-11-21T08:50:08.902Z</time>
      </trkpt>
      <trkpt lat="47.470610" lon="7.964511">
        <ele>445.136802</ele>
        <time>2021-11-21T08:50:29.505Z</time>
      </trkpt>
      <trkpt lat="47.470351" lon="7.964220">
        <ele>446.207660</ele>
        <time>2021-11-21T08:50:38.734Z</time>
      </trkpt>
      <trkpt lat="47.470318" lon="7.964176">
        <ele>446.353936</ele>
        <time>2021-11-21T08:50:40.361Z</time>
      </trkpt>
      <trkpt lat="47.469749" lon="7.963424">
        <ele>450.306252</ele>
        <time>2021-11-21T08:51:03.835Z</time>
      </trkpt>
      <trkpt lat="47.469373" lon="7.963006">
        <ele>452.886237</ele>
        <time>2021-11-21T08:51:19.786Z</time>
      </trkpt>
      <trkpt lat="47.468616" lon="7.962000">
        <ele>459.963317</ele>
        <time>2021-11-21T08:52:05.105Z</time>
      </trkpt>
      <trkpt lat="47.468509" lon="7.961184">
        <ele>465.473445</ele>
        <time>2021-11-21T08:52:32.303Z</time>
      </trkpt>
      <trkpt lat="47.468498" lon="7.960883">
        <ele>467.471702</ele>
        <time>2021-11-21T08:52:46.684Z</time>
      </trkpt>
      <trkpt lat="47.468503" lon="7.960562">
        <ele>469.600192</ele>
        <time>2021-11-21T08:52:58.317Z</time>
      </trkpt>
      <trkpt lat="47.468516" lon="7.960416">
        <ele>470.576393</ele>
        <time>2021-11-21T08:53:05.548Z</time>
      </trkpt>
      <trkpt lat="47.468634" lon="7.959800">
        <ele>474.854741</ele>
        <time>2021-11-21T08:53:30.606Z</time>
      </trkpt>
      <trkpt lat="47.468655" lon="7.959428">
        <ele>477.467000</ele>
        <time>2021-11-21T08:53:46.992Z</time>
      </trkpt>
      <trkpt lat="47.468645" lon="7.959223">
        <ele>478.905288</ele>
        <time>2021-11-21T08:53:54.917Z</time>
      </trkpt>
      <trkpt lat="47.468641" lon="7.959158">
        <ele>479.362029</ele>
        <time>2021-11-21T08:53:58.065Z</time>
      </trkpt>
      <trkpt lat="47.468637" lon="7.959076">
        <ele>479.937345</ele>
        <time>2021-11-21T08:54:00.690Z</time>
      </trkpt>
      <trkpt lat="47.468627" lon="7.958965">
        <ele>480.720973</ele>
        <time>2021-11-21T08:54:06.801Z</time>
      </trkpt>
      <trkpt lat="47.468536" lon="7.958296">
        <ele>485.496373</ele>
        <time>2021-11-21T08:54:33.948Z</time>
      </trkpt>
      <trkpt lat="47.468524" lon="7.957646">
        <ele>490.046678</ele>
        <time>2021-11-21T08:54:55.899Z</time>
      </trkpt>
      <trkpt lat="47.468507" lon="7.957558">
        <ele>490.687142</ele>
        <time>2021-11-21T08:55:00.166Z</time>
      </trkpt>
      <trkpt lat="47.468479" lon="7.957453">
        <ele>491.477022</ele>
        <time>2021-11-21T08:55:03.897Z</time>
      </trkpt>
      <trkpt lat="47.468267" lon="7.956746">
        <ele>495.349412</ele>
        <time>2021-11-21T08:55:29.183Z</time>
      </trkpt>
      <trkpt lat="47.468322" lon="7.956470">
        <ele>496.599544</ele>
        <time>2021-11-21T08:55:37.451Z</time>
      </trkpt>
      <trkpt lat="47.468475" lon="7.956375">
        <ele>497.665979</ele>
        <time>2021-11-21T08:55:42.814Z</time>
      </trkpt>
      <trkpt lat="47.468875" lon="7.956583">
        <ele>500.390972</ele>
        <time>2021-11-21T08:56:01.028Z</time>
      </trkpt>
      <trkpt lat="47.469049" lon="7.956742">
        <ele>501.705417</ele>
        <time>2021-11-21T08:56:09.453Z</time>
      </trkpt>
      <trkpt lat="47.469296" lon="7.957034">
        <ele>503.737510</ele>
        <time>2021-11-21T08:56:19.320Z</time>
      </trkpt>
      <trkpt lat="47.469604" lon="7.957623">
        <ele>505.827686</ele>
        <time>2021-11-21T08:56:35.243Z</time>
      </trkpt>
      <trkpt lat="47.469781" lon="7.958087">
        <ele>507.117143</ele>
        <time>2021-11-21T08:56:45.987Z</time>
      </trkpt>
      <trkpt lat="47.469974" lon="7.958722">
        <ele>508.802187</ele>
        <time>2021-11-21T08:56:58.859Z</time>
      </trkpt>
      <trkpt lat="47.470268" lon="7.959615">
        <ele>511.307027</ele>
        <time>2021-11-21T08:57:16.584Z</time>
      </trkpt>
      <trkpt lat="47.470924" lon="7.960881">
        <ele>516.195629</ele>
        <time>2021-11-21T08:57:48.259Z</time>
      </trkpt>
      <trkpt lat="47.471375" lon="7.961461">
        <ele>518.904910</ele>
        <time>2021-11-21T08:58:12.319Z</time>
      </trkpt>
      <trkpt lat="47.471484" lon="7.961507">
        <ele>519.684233</ele>
        <time>2021-11-21T08:58:15.748Z</time>
      </trkpt>
      <trkpt lat="47.471568" lon="7.961446">
        <ele>520.366151</ele>
        <time>2021-11-21T08:58:18.778Z</time>
      </trkpt>
      <trkpt lat="47.471579" lon="7.961404">
        <ele>520.588029</ele>
        <time>2021-11-21T08:58:20.724Z</time>
      </trkpt>
      <trkpt lat="47.471575" lon="7.961333">
        <ele>520.938986</ele>
        <time>2021-11-21T08:58:24.793Z</time>
      </trkpt>
      <trkpt lat="47.471231" lon="7.960809">
        <ele>524.537198</ele>
        <time>2021-11-21T08:58:45.260Z</time>
      </trkpt>
      <trkpt lat="47.470999" lon="7.960100">
        <ele>528.417446</ele>
        <time>2021-11-21T08:59:09.375Z</time>
      </trkpt>
      <trkpt lat="47.470622" lon="7.958630">
        <ele>536.365948</ele>
        <time>2021-11-21T08:59:58.660Z</time>
      </trkpt>
      <trkpt lat="47.470611" lon="7.957558">
        <ele>541.911227</ele>
        <time>2021-11-21T09:00:31.554Z</time>
      </trkpt>
      <trkpt lat="47.470551" lon="7.956984">
        <ele>544.915381</ele>
        <time>2021-11-21T09:00:49.253Z</time>
      </trkpt>
      <trkpt lat="47.470344" lon="7.955464">
        <ele>552.574343</ele>
        <time>2021-11-21T09:01:35.673Z</time>
      </trkpt>
      <trkpt lat="47.470173" lon="7.954771">
        <ele>556.195699</ele>
        <time>2021-11-21T09:01:58.170Z</time>
      </trkpt>
      <trkpt lat="47.469948" lon="7.954438">
        <ele>558.506911</ele>
        <time>2021-11-21T09:02:11.940Z</time>
      </trkpt>
      <trkpt lat="47.469129" lon="7.954175">
        <ele>564.386816</ele>
        <time>2021-11-21T09:02:45.716Z</time>
      </trkpt>
      <trkpt lat="47.468825" lon="7.953883">
        <ele>566.923463</ele>
        <time>2021-11-21T09:03:00.405Z</time>
      </trkpt>
      <trkpt lat="47.468688" lon="7.953623">
        <ele>568.483018</ele>
        <time>2021-11-21T09:03:09.743Z</time>
      </trkpt>
      <trkpt lat="47.468338" lon="7.952658">
        <ele>574.888345</ele>
        <time>2021-11-21T09:03:43.817Z</time>
      </trkpt>
      <trkpt lat="47.468258" lon="7.952349">
        <ele>577.339835</ele>
        <time>2021-11-21T09:03:55.084Z</time>
      </trkpt>
      <trkpt lat="47.468208" lon="7.951691">
        <ele>582.245563</ele>
        <time>2021-11-21T09:04:19.906Z</time>
      </trkpt>
      <trkpt lat="47.468300" lon="7.950849">
        <ele>588.564776</ele>
        <time>2021-11-21T09:04:57.318Z</time>
      </trkpt>
      <trkpt lat="47.468441" lon="7.950143">
        <ele>594.989072</ele>
        <time>2021-11-21T09:05:33.399Z</time>
      </trkpt>
      <trkpt lat="47.468558" lon="7.949650">
        <ele>600.198946</ele>
        <time>2021-11-21T09:06:00.055Z</time>
      </trkpt>
      <trkpt lat="47.468810" lon="7.949041">
        <ele>607.318640</ele>
        <time>2021-11-21T09:06:37.203Z</time>
      </trkpt>
      <trkpt lat="47.469180" lon="7.948713">
        <ele>613.681122</ele>
        <time>2021-11-21T09:07:10.449Z</time>
      </trkpt>
      <trkpt lat="47.469469" lon="7.948624">
        <ele>617.955079</ele>
        <time>2021-11-21T09:07:32.559Z</time>
      </trkpt>
      <trkpt lat="47.469762" lon="7.948654">
        <ele>621.093809</ele>
        <time>2021-11-21T09:07:53.289Z</time>
      </trkpt>
      <trkpt lat="47.470079" lon="7.948808">
        <ele>624.659524</ele>
        <time>2021-11-21T09:08:14.573Z</time>
      </trkpt>
      <trkpt lat="47.470241" lon="7.948800">
        <ele>626.391753</ele>
        <time>2021-11-21T09:08:24.073Z</time>
      </trkpt>
      <trkpt lat="47.470338" lon="7.948724">
        <ele>627.564788</ele>
        <time>2021-11-21T09:08:30.141Z</time>
      </trkpt>
      <trkpt lat="47.470426" lon="7.948527">
        <ele>629.270576</ele>
        <time>2021-11-21T09:08:38.528Z</time>
      </trkpt>
      <trkpt lat="47.470333" lon="7.948107">
        <ele>632.463285</ele>
        <time>2021-11-21T09:08:54.621Z</time>
      </trkpt>
      <trkpt lat="47.470368" lon="7.947828">
        <ele>634.513191</ele>
        <time>2021-11-21T09:09:03.779Z</time>
      </trkpt>
      <trkpt lat="47.470424" lon="7.947722">
        <ele>635.485054</ele>
        <time>2021-11-21T09:09:08.375Z</time>
      </trkpt>
      <trkpt lat="47.470644" lon="7.947609">
        <ele>637.416191</ele>
        <time>2021-11-21T09:09:19.352Z</time>
      </trkpt>
      <trkpt lat="47.471433" lon="7.947675">
        <ele>641.189497</ele>
        <time>2021-11-21T09:09:50.251Z</time>
      </trkpt>
      <trkpt lat="47.471526" lon="7.947625">
        <ele>641.661964</ele>
        <time>2021-11-21T09:09:54.176Z</time>
      </trkpt>
      <trkpt lat="47.471588" lon="7.947530">
        <ele>642.088168</ele>
        <time>2021-11-21T09:09:57.713Z</time>
      </trkpt>
      <trkpt lat="47.471655" lon="7.947281">
        <ele>642.953155</ele>
        <time>2021-11-21T09:10:02.289Z</time>
      </trkpt>
      <trkpt lat="47.471580" lon="7.947013">
        <ele>643.889331</ele>
        <time>2021-11-21T09:10:09.111Z</time>
      </trkpt>
      <trkpt lat="47.470904" lon="7.946018">
        <ele>638.678192</ele>
        <time>2021-11-21T09:10:29.431Z</time>
      </trkpt>
      <trkpt lat="47.470096" lon="7.944809">
        <ele>625.616647</ele>
        <time>2021-11-21T09:10:38.955Z</time>
      </trkpt>
      <trkpt lat="47.469843" lon="7.944430">
        <ele>623.314109</ele>
        <time>2021-11-21T09:10:42.119Z</time>
      </trkpt>
      <trkpt lat="47.469517" lon="7.943834">
        <ele>620.362540</ele>
        <time>2021-11-21T09:11:00.874Z</time>
      </trkpt>
      <trkpt lat="47.469215" lon="7.943133">
        <ele>617.162320</ele>
        <time>2021-11-21T09:11:06.279Z</time>
      </trkpt>
      <trkpt lat="47.469058" lon="7.942569">
        <ele>615.009650</ele>
        <time>2021-11-21T09:11:09.882Z</time>
      </trkpt>
      <trkpt lat="47.469044" lon="7.942317">
        <ele>617.560386</ele>
        <time>2021-11-21T09:11:30.851Z</time>
      </trkpt>
      <trkpt lat="47.468954" lon="7.942332">
        <ele>618.911977</ele>
        <time>2021-11-21T09:11:31.938Z</time>
      </trkpt>
      <trkpt lat="47.468737" lon="7.942334">
        <ele>622.150389</ele>
        <time>2021-11-21T09:11:50.470Z</time>
      </trkpt>
      <trkpt lat="47.468260" lon="7.942246">
        <ele>629.323930</ele>
        <time>2021-11-21T09:12:29.370Z</time>
      </trkpt>
      <trkpt lat="47.468006" lon="7.941992">
        <ele>633.899276</ele>
        <time>2021-11-21T09:13:04.106Z</time>
      </trkpt>
      <trkpt lat="47.467899" lon="7.941853">
        <ele>636.024377</ele>
        <time>2021-11-21T09:13:05.743Z</time>
      </trkpt>
      <trkpt lat="47.467399" lon="7.941540">
        <ele>642.364125</ele>
        <time>2021-11-21T09:14:07.675Z</time>
      </trkpt>
      <trkpt lat="47.467100" lon="7.941411">
        <ele>643.622570</ele>
        <time>2021-11-21T09:14:13.433Z</time>
      </trkpt>
      <trkpt lat="47.466822" lon="7.941310">
        <ele>644.779213</ele>
        <time>2021-11-21T09:14:18.755Z</time>
      </trkpt>
      <trkpt lat="47.466651" lon="7.941234">
        <ele>645.500651</ele>
        <time>2021-11-21T09:14:21.786Z</time>
      </trkpt>
      <trkpt lat="47.466346" lon="7.941118">
        <ele>646.773086</ele>
        <time>2021-11-21T09:14:28.158Z</time>
      </trkpt>
      <trkpt lat="47.465949" lon="7.940958">
        <ele>648.435637</ele>
        <time>2021-11-21T09:14:35.605Z</time>
      </trkpt>
      <trkpt lat="47.465632" lon="7.940899">
        <ele>648.500093</ele>
        <time>2021-11-21T09:14:41.025Z</time>
      </trkpt>
      <trkpt lat="47.465246" lon="7.940877">
        <ele>647.506460</ele>
        <time>2021-11-21T09:14:47.443Z</time>
      </trkpt>
      <trkpt lat="47.464912" lon="7.940831">
        <ele>646.643607</ele>
        <time>2021-11-21T09:14:53.437Z</time>
      </trkpt>
      <trkpt lat="47.464341" lon="7.940728">
        <ele>645.163960</ele>
        <time>2021-11-21T09:15:02.442Z</time>
      </trkpt>
      <trkpt lat="47.464307" lon="7.940722">
        <ele>645.075883</ele>
        <time>2021-11-21T09:15:02.852Z</time>
      </trkpt>
      <trkpt lat="47.463757" lon="7.940617">
        <ele>642.315176</ele>
        <time>2021-11-21T09:15:10.199Z</time>
      </trkpt>
      <trkpt lat="47.463351" lon="7.940342">
        <ele>638.980910</ele>
        <time>2021-11-21T09:15:15.833Z</time>
      </trkpt>
      <trkpt lat="47.463169" lon="7.940192">
        <ele>637.425227</ele>
        <time>2021-11-21T09:15:18.384Z</time>
      </trkpt>
      <trkpt lat="47.462895" lon="7.940071">
        <ele>635.290078</ele>
        <time>2021-11-21T09:15:21.932Z</time>
      </trkpt>
      <trkpt lat="47.462671" lon="7.939972">
        <ele>633.544438</ele>
        <time>2021-11-21T09:15:24.880Z</time>
      </trkpt>
      <trkpt lat="47.462207" lon="7.939778">
        <ele>630.204950</ele>
        <time>2021-11-21T09:15:30.972Z</time>
      </trkpt>
      <trkpt lat="47.462056" lon="7.939688">
        <ele>629.314170</ele>
        <time>2021-11-21T09:15:33.017Z</time>
      </trkpt>
      <trkpt lat="47.461855" lon="7.939515">
        <ele>628.041713</ele>
        <time>2021-11-21T09:15:35.979Z</time>
      </trkpt>
      <trkpt lat="47.461309" lon="7.938844">
        <ele>624.157531</ele>
        <time>2021-11-21T09:15:45.332Z</time>
      </trkpt>
      <trkpt lat="47.461076" lon="7.938696">
        <ele>622.770041</ele>
        <time>2021-11-21T09:15:48.879Z</time>
      </trkpt>
      <trkpt lat="47.460640" lon="7.938599">
        <ele>620.854411</ele>
        <time>2021-11-21T09:15:55.465Z</time>
      </trkpt>
      <trkpt lat="47.460344" lon="7.938606">
        <ele>620.350441</ele>
        <time>2021-11-21T09:16:00.163Z</time>
      </trkpt>
      <trkpt lat="47.459661" lon="7.938631">
        <ele>619.187357</ele>
        <time>2021-11-21T09:16:11.248Z</time>
      </trkpt>
      <trkpt lat="47.458684" lon="7.938601">
        <ele>617.847627</ele>
        <time>2021-11-21T09:16:28.079Z</time>
      </trkpt>
      <trkpt lat="47.457759" lon="7.938112">
        <ele>617.273747</ele>
        <time>2021-11-21T09:16:46.795Z</time>
      </trkpt>
      <trkpt lat="47.456885" lon="7.937800">
        <ele>616.464419</ele>
        <time>2021-11-21T09:17:03.325Z</time>
      </trkpt>
      <trkpt lat="47.456612" lon="7.937840">
        <ele>616.094886</ele>
        <time>2021-11-21T09:17:08.297Z</time>
      </trkpt>
      <trkpt lat="47.456527" lon="7.937909">
        <ele>615.964278</ele>
        <time>2021-11-21T09:17:09.377Z</time>
      </trkpt>
      <trkpt lat="47.455980" lon="7.938143">
        <ele>615.197262</ele>
        <time>2021-11-21T09:17:16.041Z</time>
      </trkpt>
      <trkpt lat="47.455114" lon="7.938524">
        <ele>613.327853</ele>
        <time>2021-11-21T09:17:25.807Z</time>
      </trkpt>
      <trkpt lat="47.454590" lon="7.938738">
        <ele>611.747142</ele>
        <time>2021-11-21T09:17:31.432Z</time>
      </trkpt>
      <trkpt lat="47.454409" lon="7.938779">
        <ele>611.214694</ele>
        <time>2021-11-21T09:17:33.343Z</time>
      </trkpt>
      <trkpt lat="47.454186" lon="7.938810">
        <ele>610.563399</ele>
        <time>2021-11-21T09:17:35.624Z</time>
      </trkpt>
      <trkpt lat="47.453952" lon="7.938831">
        <ele>609.881724</ele>
        <time>2021-11-21T09:17:37.953Z</time>
      </trkpt>
      <trkpt lat="47.453896" lon="7.938837">
        <ele>609.718461</ele>
        <time>2021-11-21T09:17:38.522Z</time>
      </trkpt>
      <trkpt lat="47.453527" lon="7.938907">
        <ele>608.129193</ele>
        <time>2021-11-21T09:17:42.209Z</time>
      </trkpt>
      <trkpt lat="47.453399" lon="7.938926">
        <ele>607.474501</ele>
        <time>2021-11-21T09:17:43.530Z</time>
      </trkpt>
      <trkpt lat="47.453247" lon="7.938949">
        <ele>606.696901</ele>
        <time>2021-11-21T09:17:44.971Z</time>
      </trkpt>
      <trkpt lat="47.452671" lon="7.939085">
        <ele>603.728387</ele>
        <time>2021-11-21T09:17:50.538Z</time>
      </trkpt>
      <trkpt lat="47.452569" lon="7.939136">
        <ele>603.180420</ele>
        <time>2021-11-21T09:17:51.529Z</time>
      </trkpt>
      <trkpt lat="47.452527" lon="7.939169">
        <ele>602.938378</ele>
        <time>2021-11-21T09:17:52.185Z</time>
      </trkpt>
      <trkpt lat="47.451870" lon="7.939623">
        <ele>598.977268</ele>
        <time>2021-11-21T09:17:58.760Z</time>
      </trkpt>
      <trkpt lat="47.451687" lon="7.939736">
        <ele>597.668614</ele>
        <time>2021-11-21T09:18:00.541Z</time>
      </trkpt>
      <trkpt lat="47.451066" lon="7.940265">
        <ele>592.939399</ele>
        <time>2021-11-21T09:18:06.958Z</time>
      </trkpt>
      <trkpt lat="47.450926" lon="7.940417">
        <ele>591.793291</ele>
        <time>2021-11-21T09:18:08.551Z</time>
      </trkpt>
      <trkpt lat="47.450818" lon="7.940534">
        <ele>590.909827</ele>
        <time>2021-11-21T09:18:09.731Z</time>
      </trkpt>
      <trkpt lat="47.450647" lon="7.940719">
        <ele>589.511668</ele>
        <time>2021-11-21T09:18:11.718Z</time>
      </trkpt>
      <trkpt lat="47.450568" lon="7.940770">
        <ele>588.942840</ele>
        <time>2021-11-21T09:18:12.472Z</time>
      </trkpt>
      <trkpt lat="47.450538" lon="7.940621">
        <ele>588.265477</ele>
        <time>2021-11-21T09:18:13.410Z</time>
      </trkpt>
      <trkpt lat="47.450383" lon="7.940114">
        <ele>586.768760</ele>
        <time>2021-11-21T09:18:16.917Z</time>
      </trkpt>
      <trkpt lat="47.450248" lon="7.939948">
        <ele>586.070345</ele>
        <time>2021-11-21T09:18:18.621Z</time>
      </trkpt>
      <trkpt lat="47.449913" lon="7.939726">
        <ele>584.610054</ele>
        <time>2021-11-21T09:18:22.118Z</time>
      </trkpt>
      <trkpt lat="47.449814" lon="7.939672">
        <ele>584.190305</ele>
        <time>2021-11-21T09:18:23.071Z</time>
      </trkpt>
      <trkpt lat="47.449589" lon="7.939535">
        <ele>583.222372</ele>
        <time>2021-11-21T09:18:25.756Z</time>
      </trkpt>
      <trkpt lat="47.449443" lon="7.939446">
        <ele>582.594185</ele>
        <time>2021-11-21T09:18:27.244Z</time>
      </trkpt>
      <trkpt lat="47.449351" lon="7.939383">
        <ele>582.190882</ele>
        <time>2021-11-21T09:18:29.122Z</time>
      </trkpt>
      <trkpt lat="47.449278" lon="7.939333">
        <ele>581.870858</ele>
        <time>2021-11-21T09:18:29.966Z</time>
      </trkpt>
      <trkpt lat="47.449215" lon="7.939276">
        <ele>581.577063</ele>
        <time>2021-11-21T09:18:30.742Z</time>
      </trkpt>
      <trkpt lat="47.449121" lon="7.939164">
        <ele>581.142955</ele>
        <time>2021-11-21T09:18:32.011Z</time>
      </trkpt>
      <trkpt lat="47.449095" lon="7.939194">
        <ele>581.168312</ele>
        <time>2021-11-21T09:18:32.620Z</time>
      </trkpt>
      <trkpt lat="47.448995" lon="7.939236">
        <ele>581.248243</ele>
        <time>2021-11-21T09:18:33.957Z</time>
      </trkpt>
      <trkpt lat="47.448737" lon="7.939187">
        <ele>581.448249</ele>
        <time>2021-11-21T09:18:36.879Z</time>
      </trkpt>
      <trkpt lat="47.448632" lon="7.939166">
        <ele>581.529719</ele>
        <time>2021-11-21T09:18:38.261Z</time>
      </trkpt>
      <trkpt lat="47.448566" lon="7.939145">
        <ele>581.581628</ele>
        <time>2021-11-21T09:18:39.026Z</time>
      </trkpt>
      <trkpt lat="47.448504" lon="7.939113">
        <ele>581.632120</ele>
        <time>2021-11-21T09:18:39.711Z</time>
      </trkpt>
      <trkpt lat="47.448323" lon="7.938940">
        <ele>581.797832</ele>
        <time>2021-11-21T09:18:42.695Z</time>
      </trkpt>
      <trkpt lat="47.448076" lon="7.938764">
        <ele>582.008650</ele>
        <time>2021-11-21T09:18:48.395Z</time>
      </trkpt>
      <trkpt lat="47.447884" lon="7.938706">
        <ele>582.159328</ele>
        <time>2021-11-21T09:18:53.318Z</time>
      </trkpt>
      <trkpt lat="47.447622" lon="7.938729">
        <ele>582.361135</ele>
        <time>2021-11-21T09:18:58.181Z</time>
      </trkpt>
      <trkpt lat="47.447579" lon="7.938758">
        <ele>582.397474</ele>
        <time>2021-11-21T09:19:00.028Z</time>
      </trkpt>
      <trkpt lat="47.447514" lon="7.938816">
        <ele>582.455847</ele>
        <time>2021-11-21T09:19:02.452Z</time>
      </trkpt>
      <trkpt lat="47.447375" lon="7.938987">
        <ele>583.129603</ele>
        <time>2021-11-21T09:19:06.523Z</time>
      </trkpt>
      <trkpt lat="47.447148" lon="7.939307">
        <ele>585.058363</ele>
        <time>2021-11-21T09:19:18.494Z</time>
      </trkpt>
      <trkpt lat="47.447088" lon="7.939400">
        <ele>585.592929</ele>
        <time>2021-11-21T09:19:21.847Z</time>
      </trkpt>
      <trkpt lat="47.447023" lon="7.939500">
        <ele>586.169789</ele>
        <time>2021-11-21T09:19:27.264Z</time>
      </trkpt>
      <trkpt lat="47.446911" lon="7.939640">
        <ele>587.071708</ele>
        <time>2021-11-21T09:19:32.084Z</time>
      </trkpt>
      <trkpt lat="47.446714" lon="7.939663">
        <ele>588.287008</ele>
        <time>2021-11-21T09:19:41.122Z</time>
      </trkpt>
      <trkpt lat="47.446350" lon="7.939484">
        <ele>590.646118</ele>
        <time>2021-11-21T09:19:57.808Z</time>
      </trkpt>
      <trkpt lat="47.446200" lon="7.939305">
        <ele>591.831536</ele>
        <time>2021-11-21T09:20:04.324Z</time>
      </trkpt>
      <trkpt lat="47.446136" lon="7.939210">
        <ele>592.389236</ele>
        <time>2021-11-21T09:20:09.504Z</time>
      </trkpt>
      <trkpt lat="47.445987" lon="7.938989">
        <ele>593.664892</ele>
        <time>2021-11-21T09:20:18.768Z</time>
      </trkpt>
      <trkpt lat="47.445739" lon="7.938730">
        <ele>595.144789</ele>
        <time>2021-11-21T09:20:32.979Z</time>
      </trkpt>
      <trkpt lat="47.445088" lon="7.938426">
        <ele>598.472366</ele>
        <time>2021-11-21T09:20:59.348Z</time>
      </trkpt>
      <trkpt lat="47.444935" lon="7.938269">
        <ele>599.380104</ele>
        <time>2021-11-21T09:21:05.630Z</time>
      </trkpt>
      <trkpt lat="47.444544" lon="7.937668">
        <ele>602.129115</ele>
        <time>2021-11-21T09:21:21.276Z</time>
      </trkpt>
      <trkpt lat="47.444304" lon="7.937471">
        <ele>602.011888</ele>
        <time>2021-11-21T09:21:26.469Z</time>
      </trkpt>
      <trkpt lat="47.444030" lon="7.937346">
        <ele>601.593934</ele>
        <time>2021-11-21T09:21:31.195Z</time>
      </trkpt>
      <trkpt lat="47.443821" lon="7.937284">
        <ele>601.283229</ele>
        <time>2021-11-21T09:21:34.034Z</time>
      </trkpt>
      <trkpt lat="47.443543" lon="7.937251">
        <ele>600.876718</ele>
        <time>2021-11-21T09:21:37.331Z</time>
      </trkpt>
      <trkpt lat="47.442638" lon="7.937187">
        <ele>599.108725</ele>
        <time>2021-11-21T09:21:46.515Z</time>
      </trkpt>
      <trkpt lat="47.441541" lon="7.937289">
        <ele>593.268207</ele>
        <time>2021-11-21T09:21:56.517Z</time>
      </trkpt>
      <trkpt lat="47.441000" lon="7.937143">
        <ele>590.346064</ele>
        <time>2021-11-21T09:22:01.724Z</time>
      </trkpt>
      <trkpt lat="47.440806" lon="7.937210">
        <ele>589.621690</ele>
        <time>2021-11-21T09:22:03.534Z</time>
      </trkpt>
      <trkpt lat="47.440583" lon="7.937384">
        <ele>588.790438</ele>
        <time>2021-11-21T09:22:06.104Z</time>
      </trkpt>
      <trkpt lat="47.440535" lon="7.937445">
        <ele>588.581777</ele>
        <time>2021-11-21T09:22:06.638Z</time>
      </trkpt>
      <trkpt lat="47.440493" lon="7.937497">
        <ele>588.401182</ele>
        <time>2021-11-21T09:22:08.156Z</time>
      </trkpt>
      <trkpt lat="47.440276" lon="7.938174">
        <ele>586.730721</ele>
        <time>2021-11-21T09:22:13.375Z</time>
      </trkpt>
      <trkpt lat="47.440111" lon="7.938384">
        <ele>586.012991</ele>
        <time>2021-11-21T09:22:15.540Z</time>
      </trkpt>
      <trkpt lat="47.439973" lon="7.938391">
        <ele>585.557782</ele>
        <time>2021-11-21T09:22:17.199Z</time>
      </trkpt>
      <trkpt lat="47.439513" lon="7.938183">
        <ele>584.055248</ele>
        <time>2021-11-21T09:22:22.253Z</time>
      </trkpt>
      <trkpt lat="47.439305" lon="7.937977">
        <ele>583.487853</ele>
        <time>2021-11-21T09:22:25.156Z</time>
      </trkpt>
      <trkpt lat="47.439053" lon="7.937594">
        <ele>582.668786</ele>
        <time>2021-11-21T09:22:29.388Z</time>
      </trkpt>
      <trkpt lat="47.438795" lon="7.937030">
        <ele>581.625058</ele>
        <time>2021-11-21T09:22:34.345Z</time>
      </trkpt>
      <trkpt lat="47.438488" lon="7.936601">
        <ele>580.667682</ele>
        <time>2021-11-21T09:22:38.665Z</time>
      </trkpt>
      <trkpt lat="47.438097" lon="7.936295">
        <ele>580.004374</ele>
        <time>2021-11-21T09:22:43.238Z</time>
      </trkpt>
      <trkpt lat="47.437455" lon="7.935929">
        <ele>579.509661</ele>
        <time>2021-11-21T09:22:50.755Z</time>
      </trkpt>
      <trkpt lat="47.437163" lon="7.935805">
        <ele>579.291230</ele>
        <time>2021-11-21T09:22:54.941Z</time>
      </trkpt>
      <trkpt lat="47.436959" lon="7.935813">
        <ele>579.144507</ele>
        <time>2021-11-21T09:23:00.510Z</time>
      </trkpt>
      <trkpt lat="47.436817" lon="7.935819">
        <ele>579.042370</ele>
        <time>2021-11-21T09:23:02.022Z</time>
      </trkpt>
      <trkpt lat="47.436754" lon="7.935830">
        <ele>578.996759</ele>
        <time>2021-11-21T09:23:04.394Z</time>
      </trkpt>
      <trkpt lat="47.436645" lon="7.935783">
        <ele>578.915125</ele>
        <time>2021-11-21T09:23:07.588Z</time>
      </trkpt>
      <trkpt lat="47.436379" lon="7.935508">
        <ele>579.113811</ele>
        <time>2021-11-21T09:23:13.627Z</time>
      </trkpt>
      <trkpt lat="47.436041" lon="7.935466">
        <ele>579.433093</ele>
        <time>2021-11-21T09:23:19.779Z</time>
      </trkpt>
      <trkpt lat="47.435987" lon="7.935459">
        <ele>579.484118</ele>
        <time>2021-11-21T09:23:22.045Z</time>
      </trkpt>
      <trkpt lat="47.435945" lon="7.935453">
        <ele>579.523837</ele>
        <time>2021-11-21T09:23:22.784Z</time>
      </trkpt>
      <trkpt lat="47.435218" lon="7.935133">
        <ele>580.237850</ele>
        <time>2021-11-21T09:23:36.752Z</time>
      </trkpt>
      <trkpt lat="47.435139" lon="7.935085">
        <ele>580.318248</ele>
        <time>2021-11-21T09:23:37.893Z</time>
      </trkpt>
      <trkpt lat="47.435108" lon="7.935067">
        <ele>580.349598</ele>
        <time>2021-11-21T09:23:38.217Z</time>
      </trkpt>
      <trkpt lat="47.435021" lon="7.934988">
        <ele>580.445706</ele>
        <time>2021-11-21T09:23:39.843Z</time>
      </trkpt>
      <trkpt lat="47.434953" lon="7.934914">
        <ele>580.525186</ele>
        <time>2021-11-21T09:23:42.759Z</time>
      </trkpt>
      <trkpt lat="47.434806" lon="7.934720">
        <ele>580.661733</ele>
        <time>2021-11-21T09:23:44.962Z</time>
      </trkpt>
      <trkpt lat="47.434668" lon="7.934617">
        <ele>580.759375</ele>
        <time>2021-11-21T09:23:49.083Z</time>
      </trkpt>
      <trkpt lat="47.434614" lon="7.934590">
        <ele>580.795380</ele>
        <time>2021-11-21T09:23:49.668Z</time>
      </trkpt>
      <trkpt lat="47.434567" lon="7.934576">
        <ele>580.825663</ele>
        <time>2021-11-21T09:23:50.182Z</time>
      </trkpt>
      <trkpt lat="47.434298" lon="7.934609">
        <ele>580.996152</ele>
        <time>2021-11-21T09:23:53.809Z</time>
      </trkpt>
      <trkpt lat="47.433620" lon="7.934930">
        <ele>581.445815</ele>
        <time>2021-11-21T09:24:04.859Z</time>
      </trkpt>
      <trkpt lat="47.433512" lon="7.934950">
        <ele>581.514563</ele>
        <time>2021-11-21T09:24:06.069Z</time>
      </trkpt>
      <trkpt lat="47.433385" lon="7.935078">
        <ele>581.611647</ele>
        <time>2021-11-21T09:24:08.846Z</time>
      </trkpt>
      <trkpt lat="47.433187" lon="7.935304">
        <ele>582.261184</ele>
        <time>2021-11-21T09:24:14.816Z</time>
      </trkpt>
      <trkpt lat="47.433050" lon="7.935392">
        <ele>583.002574</ele>
        <time>2021-11-21T09:24:19.863Z</time>
      </trkpt>
      <trkpt lat="47.432898" lon="7.935515">
        <ele>583.862631</ele>
        <time>2021-11-21T09:24:25.377Z</time>
      </trkpt>
      <trkpt lat="47.432772" lon="7.935614">
        <ele>584.570855</ele>
        <time>2021-11-21T09:24:29.286Z</time>
      </trkpt>
      <trkpt lat="47.432699" lon="7.935659">
        <ele>584.963417</ele>
        <time>2021-11-21T09:24:33.609Z</time>
      </trkpt>
      <trkpt lat="47.432624" lon="7.935687">
        <ele>585.347353</ele>
        <time>2021-11-21T09:24:35.871Z</time>
      </trkpt>
      <trkpt lat="47.432419" lon="7.935671">
        <ele>586.366252</ele>
        <time>2021-11-21T09:24:41.672Z</time>
      </trkpt>
      <trkpt lat="47.432374" lon="7.935658">
        <ele>586.593826</ele>
        <time>2021-11-21T09:24:44.154Z</time>
      </trkpt>
      <trkpt lat="47.432352" lon="7.935654">
        <ele>586.703842</ele>
        <time>2021-11-21T09:24:45.731Z</time>
      </trkpt>
      <trkpt lat="47.431977" lon="7.935653">
        <ele>588.565091</ele>
        <time>2021-11-21T09:24:59.746Z</time>
      </trkpt>
      <trkpt lat="47.431738" lon="7.935566">
        <ele>589.786761</ele>
        <time>2021-11-21T09:25:07.820Z</time>
      </trkpt>
      <trkpt lat="47.431654" lon="7.935633">
        <ele>590.260497</ele>
        <time>2021-11-21T09:25:13.656Z</time>
      </trkpt>
      <trkpt lat="47.431327" lon="7.935907">
        <ele>593.298195</ele>
        <time>2021-11-21T09:25:30.152Z</time>
      </trkpt>
      <trkpt lat="47.430872" lon="7.936442">
        <ele>598.437253</ele>
        <time>2021-11-21T09:25:56.035Z</time>
      </trkpt>
      <trkpt lat="47.430465" lon="7.936959">
        <ele>603.180683</ele>
        <time>2021-11-21T09:26:24.077Z</time>
      </trkpt>
      <trkpt lat="47.430396" lon="7.937100">
        <ele>604.221296</ele>
        <time>2021-11-21T09:26:28.992Z</time>
      </trkpt>
      <trkpt lat="47.430314" lon="7.937276">
        <ele>605.499176</ele>
        <time>2021-11-21T09:26:38.062Z</time>
      </trkpt>
      <trkpt lat="47.430189" lon="7.937568">
        <ele>608.372935</ele>
        <time>2021-11-21T09:26:50.865Z</time>
      </trkpt>
      <trkpt lat="47.430152" lon="7.937646">
        <ele>609.384272</ele>
        <time>2021-11-21T09:26:55.227Z</time>
      </trkpt>
      <trkpt lat="47.430098" lon="7.937743">
        <ele>610.717879</ele>
        <time>2021-11-21T09:27:02.580Z</time>
      </trkpt>
      <trkpt lat="47.429698" lon="7.938099">
        <ele>618.044935</ele>
        <time>2021-11-21T09:27:35.907Z</time>
      </trkpt>
      <trkpt lat="47.429422" lon="7.938553">
        <ele>624.524851</ele>
        <time>2021-11-21T09:28:05.579Z</time>
      </trkpt>
      <trkpt lat="47.429208" lon="7.938884">
        <ele>629.385499</ele>
        <time>2021-11-21T09:28:31.844Z</time>
      </trkpt>
      <trkpt lat="47.429126" lon="7.938998">
        <ele>631.152019</ele>
        <time>2021-11-21T09:28:43.805Z</time>
      </trkpt>
      <trkpt lat="47.429049" lon="7.939099">
        <ele>632.767509</ele>
        <time>2021-11-21T09:28:54.585Z</time>
      </trkpt>
      <trkpt lat="47.428968" lon="7.939204">
        <ele>634.458165</ele>
        <time>2021-11-21T09:29:02.792Z</time>
      </trkpt>
      <trkpt lat="47.428887" lon="7.939301">
        <ele>636.269125</ele>
        <time>2021-11-21T09:29:12.539Z</time>
      </trkpt>
      <trkpt lat="47.428844" lon="7.939341">
        <ele>637.170248</ele>
        <time>2021-11-21T09:29:18.132Z</time>
      </trkpt>
      <trkpt lat="47.428188" lon="7.939435">
        <ele>648.859954</ele>
        <time>2021-11-21T09:30:17.640Z</time>
      </trkpt>
      <trkpt lat="47.428131" lon="7.939456">
        <ele>649.901865</ele>
        <time>2021-11-21T09:30:24.184Z</time>
      </trkpt>
      <trkpt lat="47.428064" lon="7.939492">
        <ele>651.166287</ele>
        <time>2021-11-21T09:30:30.589Z</time>
      </trkpt>
      <trkpt lat="47.427904" lon="7.939616">
        <ele>654.370528</ele>
        <time>2021-11-21T09:30:43.294Z</time>
      </trkpt>
      <trkpt lat="47.427839" lon="7.939696">
        <ele>655.870721</ele>
        <time>2021-11-21T09:30:52.365Z</time>
      </trkpt>
      <trkpt lat="47.427650" lon="7.939972">
        <ele>660.582938</ele>
        <time>2021-11-21T09:31:11.504Z</time>
      </trkpt>
      <trkpt lat="47.427575" lon="7.940106">
        <ele>662.669761</ele>
        <time>2021-11-21T09:31:23.998Z</time>
      </trkpt>
      <trkpt lat="47.427416" lon="7.940458">
        <ele>667.026706</ele>
        <time>2021-11-21T09:31:38.238Z</time>
      </trkpt>
      <trkpt lat="47.427373" lon="7.940710">
        <ele>668.093249</ele>
        <time>2021-11-21T09:31:50.417Z</time>
      </trkpt>
      <trkpt lat="47.427374" lon="7.940805">
        <ele>668.483156</ele>
        <time>2021-11-21T09:31:55.476Z</time>
      </trkpt>
      <trkpt lat="47.427387" lon="7.940897">
        <ele>668.868853</ele>
        <time>2021-11-21T09:31:56.147Z</time>
      </trkpt>
      <trkpt lat="47.427590" lon="7.941648">
        <ele>672.187694</ele>
        <time>2021-11-21T09:32:24.151Z</time>
      </trkpt>
      <trkpt lat="47.427671" lon="7.942227">
        <ele>674.614049</ele>
        <time>2021-11-21T09:32:36.344Z</time>
      </trkpt>
      <trkpt lat="47.427365" lon="7.943049">
        <ele>678.179221</ele>
        <time>2021-11-21T09:32:44.648Z</time>
      </trkpt>
      <trkpt lat="47.427334" lon="7.943795">
        <ele>680.277120</ele>
        <time>2021-11-21T09:32:52.468Z</time>
      </trkpt>
      <trkpt lat="47.426834" lon="7.944970">
        <ele>684.173432</ele>
        <time>2021-11-21T09:33:20.144Z</time>
      </trkpt>
      <trkpt lat="47.426788" lon="7.945129">
        <ele>684.658830</ele>
        <time>2021-11-21T09:33:25.644Z</time>
      </trkpt>
      <trkpt lat="47.426763" lon="7.945300">
        <ele>685.432207</ele>
        <time>2021-11-21T09:33:34.876Z</time>
      </trkpt>
      <trkpt lat="47.426554" lon="7.946505">
        <ele>696.799879</ele>
        <time>2021-11-21T09:34:34.400Z</time>
      </trkpt>
      <trkpt lat="47.426551" lon="7.947011">
        <ele>701.424005</ele>
        <time>2021-11-21T09:35:01.124Z</time>
      </trkpt>
      <trkpt lat="47.426598" lon="7.947306">
        <ele>704.193528</ele>
        <time>2021-11-21T09:35:18.154Z</time>
      </trkpt>
      <trkpt lat="47.426641" lon="7.947531">
        <ele>706.330091</ele>
        <time>2021-11-21T09:35:29.219Z</time>
      </trkpt>
      <trkpt lat="47.426691" lon="7.947897">
        <ele>709.656861</ele>
        <time>2021-11-21T09:35:47.363Z</time>
      </trkpt>
      <trkpt lat="47.426587" lon="7.948105">
        <ele>711.542977</ele>
        <time>2021-11-21T09:35:57.706Z</time>
      </trkpt>
      <trkpt lat="47.426547" lon="7.948133">
        <ele>712.020045</ele>
        <time>2021-11-21T09:36:02.554Z</time>
      </trkpt>
      <trkpt lat="47.426514" lon="7.948142">
        <ele>712.381759</ele>
        <time>2021-11-21T09:36:04.396Z</time>
      </trkpt>
      <trkpt lat="47.426320" lon="7.948063">
        <ele>714.550804</ele>
        <time>2021-11-21T09:36:14.361Z</time>
      </trkpt>
      <trkpt lat="47.426240" lon="7.947961">
        <ele>715.689613</ele>
        <time>2021-11-21T09:36:22.524Z</time>
      </trkpt>
      <trkpt lat="47.426172" lon="7.947859">
        <ele>716.733902</ele>
        <time>2021-11-21T09:36:28.079Z</time>
      </trkpt>
      <trkpt lat="47.425835" lon="7.947558">
        <ele>720.978144</ele>
        <time>2021-11-21T09:36:54.400Z</time>
      </trkpt>
      <trkpt lat="47.425498" lon="7.947459">
        <ele>724.681739</ele>
        <time>2021-11-21T09:37:13.238Z</time>
      </trkpt>
      <trkpt lat="47.425147" lon="7.947512">
        <ele>728.484882</ele>
        <time>2021-11-21T09:37:28.730Z</time>
      </trkpt>
      <trkpt lat="47.424790" lon="7.947734">
        <ele>730.863629</ele>
        <time>2021-11-21T09:37:40.228Z</time>
      </trkpt>
      <trkpt lat="47.424674" lon="7.947832">
        <ele>731.649343</ele>
        <time>2021-11-21T09:37:43.844Z</time>
      </trkpt>
      <trkpt lat="47.424604" lon="7.947906">
        <ele>732.155434</ele>
        <time>2021-11-21T09:37:49.152Z</time>
      </trkpt>
      <trkpt lat="47.423922" lon="7.948906">
        <ele>737.804664</ele>
        <time>2021-11-21T09:38:23.591Z</time>
      </trkpt>
      <trkpt lat="47.423726" lon="7.949015">
        <ele>739.036145</ele>
        <time>2021-11-21T09:38:33.252Z</time>
      </trkpt>
      <trkpt lat="47.423086" lon="7.949148">
        <ele>743.121076</ele>
        <time>2021-11-21T09:38:59.655Z</time>
      </trkpt>
      <trkpt lat="47.422958" lon="7.949050">
        <ele>744.036641</ele>
        <time>2021-11-21T09:39:04.839Z</time>
      </trkpt>
      <trkpt lat="47.422940" lon="7.948986">
        <ele>744.334475</ele>
        <time>2021-11-21T09:39:06.107Z</time>
      </trkpt>
      <trkpt lat="47.422934" lon="7.948905">
        <ele>744.684626</ele>
        <time>2021-11-21T09:39:08.416Z</time>
      </trkpt>
      <trkpt lat="47.422976" lon="7.948772">
        <ele>745.315337</ele>
        <time>2021-11-21T09:39:13.245Z</time>
      </trkpt>
      <trkpt lat="47.423266" lon="7.948471">
        <ele>747.566006</ele>
        <time>2021-11-21T09:39:27.033Z</time>
      </trkpt>
      <trkpt lat="47.423374" lon="7.948260">
        <ele>748.702937</ele>
        <time>2021-11-21T09:39:33.375Z</time>
      </trkpt>
      <trkpt lat="47.423417" lon="7.947883">
        <ele>750.345816</ele>
        <time>2021-11-21T09:39:45.461Z</time>
      </trkpt>
      <trkpt lat="47.423363" lon="7.947641">
        <ele>751.438859</ele>
        <time>2021-11-21T09:39:50.768Z</time>
      </trkpt>
      <trkpt lat="47.423328" lon="7.947553">
        <ele>751.876332</ele>
        <time>2021-11-21T09:39:54.285Z</time>
      </trkpt>
      <trkpt lat="47.423268" lon="7.947444">
        <ele>752.478543</ele>
        <time>2021-11-21T09:40:00.050Z</time>
      </trkpt>
      <trkpt lat="47.422561" lon="7.946612">
        <ele>758.203023</ele>
        <time>2021-11-21T09:40:35.472Z</time>
      </trkpt>
      <trkpt lat="47.422351" lon="7.946426">
        <ele>759.753789</ele>
        <time>2021-11-21T09:40:47.317Z</time>
      </trkpt>
      <trkpt lat="47.422250" lon="7.946328">
        <ele>760.519099</ele>
        <time>2021-11-21T09:40:50.553Z</time>
      </trkpt>
      <trkpt lat="47.422193" lon="7.946222">
        <ele>761.099390</ele>
        <time>2021-11-21T09:40:55.030Z</time>
      </trkpt>
      <trkpt lat="47.422126" lon="7.946071">
        <ele>761.873283</ele>
        <time>2021-11-21T09:41:01.437Z</time>
      </trkpt>
      <trkpt lat="47.421944" lon="7.945671">
        <ele>763.064079</ele>
        <time>2021-11-21T09:41:11.696Z</time>
      </trkpt>
      <trkpt lat="47.421631" lon="7.945174">
        <ele>764.588405</ele>
        <time>2021-11-21T09:41:25.660Z</time>
      </trkpt>
      <trkpt lat="47.421331" lon="7.944359">
        <ele>766.671356</ele>
        <time>2021-11-21T09:41:41.972Z</time>
      </trkpt>
      <trkpt lat="47.421108" lon="7.943951">
        <ele>767.848862</ele>
        <time>2021-11-21T09:41:49.255Z</time>
      </trkpt>
      <trkpt lat="47.421012" lon="7.943822">
        <ele>768.196433</ele>
        <time>2021-11-21T09:41:52.038Z</time>
      </trkpt>
      <trkpt lat="47.420976" lon="7.943782">
        <ele>768.286820</ele>
        <time>2021-11-21T09:41:52.909Z</time>
      </trkpt>
      <trkpt lat="47.420877" lon="7.943722">
        <ele>768.501557</ele>
        <time>2021-11-21T09:41:55.189Z</time>
      </trkpt>
      <trkpt lat="47.420805" lon="7.943719">
        <ele>768.646110</ele>
        <time>2021-11-21T09:41:56.507Z</time>
      </trkpt>
      <trkpt lat="47.420682" lon="7.943737">
        <ele>768.894163</ele>
        <time>2021-11-21T09:41:58.899Z</time>
      </trkpt>
      <trkpt lat="47.420597" lon="7.943743">
        <ele>769.064942</ele>
        <time>2021-11-21T09:42:00.620Z</time>
      </trkpt>
      <trkpt lat="47.419628" lon="7.943420">
        <ele>771.058454</ele>
        <time>2021-11-21T09:42:22.751Z</time>
      </trkpt>
      <trkpt lat="47.419403" lon="7.943280">
        <ele>771.548388</ele>
        <time>2021-11-21T09:42:28.628Z</time>
      </trkpt>
      <trkpt lat="47.419252" lon="7.943180">
        <ele>772.145514</ele>
        <time>2021-11-21T09:42:32.053Z</time>
      </trkpt>
      <trkpt lat="47.419144" lon="7.943099">
        <ele>772.708581</ele>
        <time>2021-11-21T09:42:34.872Z</time>
      </trkpt>
      <trkpt lat="47.419089" lon="7.943057">
        <ele>772.996403</ele>
        <time>2021-11-21T09:42:37.133Z</time>
      </trkpt>
      <trkpt lat="47.418829" lon="7.942895">
        <ele>774.308228</ele>
        <time>2021-11-21T09:42:46.187Z</time>
      </trkpt>
      <trkpt lat="47.418683" lon="7.942880">
        <ele>774.988648</ele>
        <time>2021-11-21T09:42:51.697Z</time>
      </trkpt>
      <trkpt lat="47.417902" lon="7.943117">
        <ele>778.695419</ele>
        <time>2021-11-21T09:43:21.738Z</time>
      </trkpt>
      <trkpt lat="47.417676" lon="7.943269">
        <ele>779.849825</ele>
        <time>2021-11-21T09:43:29.685Z</time>
      </trkpt>
      <trkpt lat="47.417619" lon="7.943333">
        <ele>780.164843</ele>
        <time>2021-11-21T09:43:33.715Z</time>
      </trkpt>
      <trkpt lat="47.417536" lon="7.943431">
        <ele>780.596540</ele>
        <time>2021-11-21T09:43:37.455Z</time>
      </trkpt>
      <trkpt lat="47.417382" lon="7.943636">
        <ele>781.438758</ele>
        <time>2021-11-21T09:43:43.775Z</time>
      </trkpt>
      <trkpt lat="47.417289" lon="7.943781">
        <ele>781.988096</ele>
        <time>2021-11-21T09:43:49.428Z</time>
      </trkpt>
      <trkpt lat="47.417184" lon="7.944017">
        <ele>782.764713</ele>
        <time>2021-11-21T09:43:54.417Z</time>
      </trkpt>
      <trkpt lat="47.416949" lon="7.944622">
        <ele>784.682839</ele>
        <time>2021-11-21T09:44:10.924Z</time>
      </trkpt>
      <trkpt lat="47.416738" lon="7.945120">
        <ele>786.298445</ele>
        <time>2021-11-21T09:44:23.090Z</time>
      </trkpt>
      <trkpt lat="47.416482" lon="7.945601">
        <ele>787.570565</ele>
        <time>2021-11-21T09:44:32.605Z</time>
      </trkpt>
      <trkpt lat="47.416165" lon="7.946005">
        <ele>788.164593</ele>
        <time>2021-11-21T09:44:40.519Z</time>
      </trkpt>
      <trkpt lat="47.416132" lon="7.946117">
        <ele>788.281895</ele>
        <time>2021-11-21T09:44:42.107Z</time>
      </trkpt>
      <trkpt lat="47.416139" lon="7.946189">
        <ele>788.351744</ele>
        <time>2021-11-21T09:44:42.817Z</time>
      </trkpt>
      <trkpt lat="47.416928" lon="7.949327">
        <ele>792.073164</ele>
        <time>2021-11-21T09:45:27.224Z</time>
      </trkpt>
      <trkpt lat="47.417121" lon="7.950299">
        <ele>793.521854</ele>
        <time>2021-11-21T09:45:44.678Z</time>
      </trkpt>
      <trkpt lat="47.417062" lon="7.950832">
        <ele>795.309162</ele>
        <time>2021-11-21T09:45:54.780Z</time>
      </trkpt>
      <trkpt lat="47.417106" lon="7.951355">
        <ele>797.053257</ele>
        <time>2021-11-21T09:46:07.695Z</time>
      </trkpt>
      <trkpt lat="47.416951" lon="7.951828">
        <ele>798.792460</ele>
        <time>2021-11-21T09:46:21.284Z</time>
      </trkpt>
      <trkpt lat="47.416889" lon="7.952227">
        <ele>800.147248</ele>
        <time>2021-11-21T09:46:33.727Z</time>
      </trkpt>
      <trkpt lat="47.416861" lon="7.953060">
        <ele>802.173255</ele>
        <time>2021-11-21T09:46:53.838Z</time>
      </trkpt>
      <trkpt lat="47.416853" lon="7.953281">
        <ele>802.293273</ele>
        <time>2021-11-21T09:47:02.096Z</time>
      </trkpt>
      <trkpt lat="47.416829" lon="7.954125">
        <ele>802.751372</ele>
        <time>2021-11-21T09:47:11.840Z</time>
      </trkpt>
      <trkpt lat="47.416799" lon="7.954846">
        <ele>803.143103</ele>
        <time>2021-11-21T09:47:21.582Z</time>
      </trkpt>
      <trkpt lat="47.416796" lon="7.955121">
        <ele>803.292253</ele>
        <time>2021-11-21T09:47:23.280Z</time>
      </trkpt>
      <trkpt lat="47.416775" lon="7.955506">
        <ele>803.090335</ele>
        <time>2021-11-21T09:47:26.665Z</time>
      </trkpt>
      <trkpt lat="47.416736" lon="7.955692">
        <ele>801.787456</ele>
        <time>2021-11-21T09:47:27.840Z</time>
      </trkpt>
      <trkpt lat="47.416719" lon="7.955770">
        <ele>801.239166</ele>
        <time>2021-11-21T09:47:28.766Z</time>
      </trkpt>
      <trkpt lat="47.416649" lon="7.955987">
        <ele>799.630702</ele>
        <time>2021-11-21T09:47:30.276Z</time>
      </trkpt>
      <trkpt lat="47.416504" lon="7.956534">
        <ele>795.699971</ele>
        <time>2021-11-21T09:47:33.793Z</time>
      </trkpt>
      <trkpt lat="47.416424" lon="7.956834">
        <ele>793.542455</ele>
        <time>2021-11-21T09:47:35.689Z</time>
      </trkpt>
      <trkpt lat="47.416408" lon="7.957014">
        <ele>792.327746</ele>
        <time>2021-11-21T09:47:36.703Z</time>
      </trkpt>
      <trkpt lat="47.416406" lon="7.957040">
        <ele>792.152662</ele>
        <time>2021-11-21T09:47:36.848Z</time>
      </trkpt>
      <trkpt lat="47.416407" lon="7.957239">
        <ele>790.821136</ele>
        <time>2021-11-21T09:47:38.015Z</time>
      </trkpt>
      <trkpt lat="47.416416" lon="7.957361">
        <ele>790.000009</ele>
        <time>2021-11-21T09:47:38.704Z</time>
      </trkpt>
      <trkpt lat="47.416412" lon="7.957433">
        <ele>789.516644</ele>
        <time>2021-11-21T09:47:39.117Z</time>
      </trkpt>
      <trkpt lat="47.416406" lon="7.957472">
        <ele>789.249039</ele>
        <time>2021-11-21T09:47:39.379Z</time>
      </trkpt>
      <trkpt lat="47.416383" lon="7.957563">
        <ele>788.599079</ele>
        <time>2021-11-21T09:47:39.922Z</time>
      </trkpt>
      <trkpt lat="47.416010" lon="7.958385">
        <ele>779.305126</ele>
        <time>2021-11-21T09:47:45.469Z</time>
      </trkpt>
      <trkpt lat="47.415866" lon="7.958514">
        <ele>776.440559</ele>
        <time>2021-11-21T09:47:46.870Z</time>
      </trkpt>
      <trkpt lat="47.415798" lon="7.958508">
        <ele>775.281726</ele>
        <time>2021-11-21T09:47:47.434Z</time>
      </trkpt>
      <trkpt lat="47.415782" lon="7.958489">
        <ele>774.932558</ele>
        <time>2021-11-21T09:47:47.606Z</time>
      </trkpt>
      <trkpt lat="47.415762" lon="7.958435">
        <ele>774.223938</ele>
        <time>2021-11-21T09:47:47.951Z</time>
      </trkpt>
      <trkpt lat="47.415841" lon="7.958052">
        <ele>769.614896</ele>
        <time>2021-11-21T09:47:50.214Z</time>
      </trkpt>
      <trkpt lat="47.415820" lon="7.957871">
        <ele>767.500978</ele>
        <time>2021-11-21T09:47:51.229Z</time>
      </trkpt>
      <trkpt lat="47.415769" lon="7.957799">
        <ele>766.301142</ele>
        <time>2021-11-21T09:47:51.809Z</time>
      </trkpt>
      <trkpt lat="47.415726" lon="7.957781">
        <ele>765.540873</ele>
        <time>2021-11-21T09:47:52.176Z</time>
      </trkpt>
      <trkpt lat="47.415687" lon="7.957776">
        <ele>764.874938</ele>
        <time>2021-11-21T09:47:52.514Z</time>
      </trkpt>
      <trkpt lat="47.415604" lon="7.957753">
        <ele>763.438386</ele>
        <time>2021-11-21T09:47:53.204Z</time>
      </trkpt>
      <trkpt lat="47.415141" lon="7.957051">
        <ele>752.596047</ele>
        <time>2021-11-21T09:47:58.648Z</time>
      </trkpt>
      <trkpt lat="47.414788" lon="7.956679">
        <ele>746.331529</ele>
        <time>2021-11-21T09:48:02.214Z</time>
      </trkpt>
      <trkpt lat="47.414733" lon="7.956650">
        <ele>745.487765</ele>
        <time>2021-11-21T09:48:02.695Z</time>
      </trkpt>
      <trkpt lat="47.414645" lon="7.956620">
        <ele>744.182860</ele>
        <time>2021-11-21T09:48:03.444Z</time>
      </trkpt>
      <trkpt lat="47.414381" lon="7.956571">
        <ele>740.338358</ele>
        <time>2021-11-21T09:48:05.651Z</time>
      </trkpt>
      <trkpt lat="47.414322" lon="7.956501">
        <ele>739.245116</ele>
        <time>2021-11-21T09:48:06.278Z</time>
      </trkpt>
      <trkpt lat="47.414102" lon="7.955575">
        <ele>729.649310</ele>
        <time>2021-11-21T09:48:11.979Z</time>
      </trkpt>
      <trkpt lat="47.414092" lon="7.955456">
        <ele>728.671648</ele>
        <time>2021-11-21T09:48:12.654Z</time>
      </trkpt>
      <trkpt lat="47.414088" lon="7.955357">
        <ele>728.005166</ele>
        <time>2021-11-21T09:48:13.491Z</time>
      </trkpt>
      <trkpt lat="47.414164" lon="7.954860">
        <ele>724.581027</ele>
        <time>2021-11-21T09:48:16.407Z</time>
      </trkpt>
      <trkpt lat="47.414179" lon="7.954777">
        <ele>724.003704</ele>
        <time>2021-11-21T09:48:17.169Z</time>
      </trkpt>
      <trkpt lat="47.414187" lon="7.954692">
        <ele>723.426992</ele>
        <time>2021-11-21T09:48:17.652Z</time>
      </trkpt>
      <trkpt lat="47.413981" lon="7.953526">
        <ele>715.328618</ele>
        <time>2021-11-21T09:48:24.781Z</time>
      </trkpt>
      <trkpt lat="47.413849" lon="7.953404">
        <ele>713.782471</ele>
        <time>2021-11-21T09:48:26.127Z</time>
      </trkpt>
      <trkpt lat="47.413744" lon="7.953544">
        <ele>712.378024</ele>
        <time>2021-11-21T09:48:27.324Z</time>
      </trkpt>
      <trkpt lat="47.413623" lon="7.954242">
        <ele>707.248020</ele>
        <time>2021-11-21T09:48:31.468Z</time>
      </trkpt>
      <trkpt lat="47.413426" lon="7.954821">
        <ele>702.554241</ele>
        <time>2021-11-21T09:48:35.195Z</time>
      </trkpt>
      <trkpt lat="47.413320" lon="7.955524">
        <ele>697.337716</ele>
        <time>2021-11-21T09:48:39.331Z</time>
      </trkpt>
      <trkpt lat="47.413320" lon="7.955812">
        <ele>695.251799</ele>
        <time>2021-11-21T09:48:40.992Z</time>
      </trkpt>
      <trkpt lat="47.413414" lon="7.956469">
        <ele>691.087001</ele>
        <time>2021-11-21T09:48:44.925Z</time>
      </trkpt>
      <trkpt lat="47.413585" lon="7.957139">
        <ele>688.167874</ele>
        <time>2021-11-21T09:48:49.233Z</time>
      </trkpt>
      <trkpt lat="47.413610" lon="7.957331">
        <ele>687.370810</ele>
        <time>2021-11-21T09:48:50.405Z</time>
      </trkpt>
      <trkpt lat="47.413613" lon="7.957356">
        <ele>687.267306</ele>
        <time>2021-11-21T09:48:50.549Z</time>
      </trkpt>
      <trkpt lat="47.413656" lon="7.957923">
        <ele>684.941410</ele>
        <time>2021-11-21T09:48:54.184Z</time>
      </trkpt>
      <trkpt lat="47.413817" lon="7.958660">
        <ele>681.784297</ele>
        <time>2021-11-21T09:48:59.628Z</time>
      </trkpt>
      <trkpt lat="47.413812" lon="7.958809">
        <ele>681.176141</ele>
        <time>2021-11-21T09:49:00.637Z</time>
      </trkpt>
      <trkpt lat="47.413802" lon="7.958891">
        <ele>680.874068</ele>
        <time>2021-11-21T09:49:01.194Z</time>
      </trkpt>
      <trkpt lat="47.413718" lon="7.959495">
        <ele>678.660351</ele>
        <time>2021-11-21T09:49:05.258Z</time>
      </trkpt>
      <trkpt lat="47.413635" lon="7.961024">
        <ele>673.153504</ele>
        <time>2021-11-21T09:49:15.193Z</time>
      </trkpt>
      <trkpt lat="47.413561" lon="7.961181">
        <ele>672.466614</ele>
        <time>2021-11-21T09:49:16.317Z</time>
      </trkpt>
      <trkpt lat="47.413534" lon="7.961193">
        <ele>672.317034</ele>
        <time>2021-11-21T09:49:18.290Z</time>
      </trkpt>
      <trkpt lat="47.413492" lon="7.961198">
        <ele>672.093491</ele>
        <time>2021-11-21T09:49:18.651Z</time>
      </trkpt>
      <trkpt lat="47.413402" lon="7.961116">
        <ele>671.420347</ele>
        <time>2021-11-21T09:49:19.669Z</time>
      </trkpt>
      <trkpt lat="47.413382" lon="7.961061">
        <ele>670.867968</ele>
        <time>2021-11-21T09:49:20.035Z</time>
      </trkpt>
      <trkpt lat="47.413372" lon="7.960997">
        <ele>670.286871</ele>
        <time>2021-11-21T09:49:20.401Z</time>
      </trkpt>
      <trkpt lat="47.413278" lon="7.960174">
        <ele>662.902920</ele>
        <time>2021-11-21T09:49:25.242Z</time>
      </trkpt>
      <trkpt lat="47.413184" lon="7.959787">
        <ele>659.265308</ele>
        <time>2021-11-21T09:49:27.584Z</time>
      </trkpt>
      <trkpt lat="47.412873" lon="7.958952">
        <ele>650.833141</ele>
        <time>2021-11-21T09:49:32.898Z</time>
      </trkpt>
      <trkpt lat="47.412748" lon="7.958706">
        <ele>648.111552</ele>
        <time>2021-11-21T09:49:34.618Z</time>
      </trkpt>
      <trkpt lat="47.412390" lon="7.958040">
        <ele>640.717958</ele>
        <time>2021-11-21T09:49:39.421Z</time>
      </trkpt>
      <trkpt lat="47.412275" lon="7.957771">
        <ele>637.952167</ele>
        <time>2021-11-21T09:49:41.238Z</time>
      </trkpt>
      <trkpt lat="47.412225" lon="7.957627">
        <ele>636.545295</ele>
        <time>2021-11-21T09:49:42.148Z</time>
      </trkpt>
      <trkpt lat="47.412141" lon="7.957339">
        <ele>633.819232</ele>
        <time>2021-11-21T09:49:43.926Z</time>
      </trkpt>
      <trkpt lat="47.411713" lon="7.955721">
        <ele>620.912979</ele>
        <time>2021-11-21T09:49:53.977Z</time>
      </trkpt>
      <trkpt lat="47.411467" lon="7.954793">
        <ele>615.280518</ele>
        <time>2021-11-21T09:49:59.908Z</time>
      </trkpt>
      <trkpt lat="47.411309" lon="7.953076">
        <ele>606.593418</ele>
        <time>2021-11-21T09:50:10.543Z</time>
      </trkpt>
      <trkpt lat="47.411318" lon="7.952940">
        <ele>606.011628</ele>
        <time>2021-11-21T09:50:11.336Z</time>
      </trkpt>
      <trkpt lat="47.411332" lon="7.952744">
        <ele>605.172512</ele>
        <time>2021-11-21T09:50:12.755Z</time>
      </trkpt>
      <trkpt lat="47.411342" lon="7.952556">
        <ele>604.369623</ele>
        <time>2021-11-21T09:50:13.927Z</time>
      </trkpt>
      <trkpt lat="47.411339" lon="7.952393">
        <ele>603.675385</ele>
        <time>2021-11-21T09:50:14.904Z</time>
      </trkpt>
      <trkpt lat="47.411332" lon="7.952247">
        <ele>603.052224</ele>
        <time>2021-11-21T09:50:15.919Z</time>
      </trkpt>
      <trkpt lat="47.411253" lon="7.951659">
        <ele>600.499919</ele>
        <time>2021-11-21T09:50:19.648Z</time>
      </trkpt>
      <trkpt lat="47.411181" lon="7.951510">
        <ele>599.720417</ele>
        <time>2021-11-21T09:50:20.718Z</time>
      </trkpt>
      <trkpt lat="47.411087" lon="7.951459">
        <ele>599.090427</ele>
        <time>2021-11-21T09:50:21.597Z</time>
      </trkpt>
      <trkpt lat="47.411058" lon="7.951457">
        <ele>598.907779</ele>
        <time>2021-11-21T09:50:22.261Z</time>
      </trkpt>
      <trkpt lat="47.411018" lon="7.951463">
        <ele>598.654831</ele>
        <time>2021-11-21T09:50:22.680Z</time>
      </trkpt>
      <trkpt lat="47.410965" lon="7.951503">
        <ele>598.248285</ele>
        <time>2021-11-21T09:50:23.226Z</time>
      </trkpt>
      <trkpt lat="47.410937" lon="7.951545">
        <ele>597.975722</ele>
        <time>2021-11-21T09:50:23.609Z</time>
      </trkpt>
      <trkpt lat="47.410917" lon="7.951577">
        <ele>597.774342</ele>
        <time>2021-11-21T09:50:23.848Z</time>
      </trkpt>
      <trkpt lat="47.410744" lon="7.952382">
        <ele>593.869576</ele>
        <time>2021-11-21T09:50:29.145Z</time>
      </trkpt>
      <trkpt lat="47.410722" lon="7.952476">
        <ele>593.409746</ele>
        <time>2021-11-21T09:50:29.725Z</time>
      </trkpt>
      <trkpt lat="47.410697" lon="7.952552">
        <ele>593.019079</ele>
        <time>2021-11-21T09:50:30.244Z</time>
      </trkpt>
      <trkpt lat="47.410662" lon="7.952589">
        <ele>592.725089</ele>
        <time>2021-11-21T09:50:30.595Z</time>
      </trkpt>
      <trkpt lat="47.410406" lon="7.952799">
        <ele>590.724815</ele>
        <time>2021-11-21T09:50:33.295Z</time>
      </trkpt>
      <trkpt lat="47.410364" lon="7.952834">
        <ele>590.395410</ele>
        <time>2021-11-21T09:50:33.703Z</time>
      </trkpt>
      <trkpt lat="47.410262" lon="7.952936">
        <ele>589.554030</ele>
        <time>2021-11-21T09:50:34.795Z</time>
      </trkpt>
      <trkpt lat="47.410083" lon="7.953253">
        <ele>587.645322</ele>
        <time>2021-11-21T09:50:37.261Z</time>
      </trkpt>
      <trkpt lat="47.410062" lon="7.953379">
        <ele>587.045394</ele>
        <time>2021-11-21T09:50:38.068Z</time>
      </trkpt>
      <trkpt lat="47.409973" lon="7.953914">
        <ele>585.496339</ele>
        <time>2021-11-21T09:50:41.494Z</time>
      </trkpt>
      <trkpt lat="47.409946" lon="7.954038">
        <ele>585.215706</ele>
        <time>2021-11-21T09:50:42.326Z</time>
      </trkpt>
      <trkpt lat="47.409923" lon="7.954123">
        <ele>585.018486</ele>
        <time>2021-11-21T09:50:42.874Z</time>
      </trkpt>
      <trkpt lat="47.409692" lon="7.954658">
        <ele>583.651266</ele>
        <time>2021-11-21T09:50:47.086Z</time>
      </trkpt>
      <trkpt lat="47.409622" lon="7.954762">
        <ele>583.335258</ele>
        <time>2021-11-21T09:50:48.026Z</time>
      </trkpt>
      <trkpt lat="47.409574" lon="7.954824">
        <ele>583.132300</ele>
        <time>2021-11-21T09:50:48.753Z</time>
      </trkpt>
      <trkpt lat="47.409423" lon="7.955015">
        <ele>582.499526</ele>
        <time>2021-11-21T09:50:50.973Z</time>
      </trkpt>
      <trkpt lat="47.409242" lon="7.955185">
        <ele>581.816770</ele>
        <time>2021-11-21T09:50:53.515Z</time>
      </trkpt>
      <trkpt lat="47.409003" lon="7.955345">
        <ele>580.981477</ele>
        <time>2021-11-21T09:50:56.888Z</time>
      </trkpt>
      <trkpt lat="47.408553" lon="7.955462">
        <ele>580.719174</ele>
        <time>2021-11-21T09:51:04.002Z</time>
      </trkpt>
      <trkpt lat="47.407402" lon="7.955496">
        <ele>580.975211</ele>
        <time>2021-11-21T09:51:27.143Z</time>
      </trkpt>
      <trkpt lat="47.407007" lon="7.955456">
        <ele>580.886822</ele>
        <time>2021-11-21T09:51:31.596Z</time>
      </trkpt>
      <trkpt lat="47.406239" lon="7.955187">
        <ele>579.649590</ele>
        <time>2021-11-21T09:51:40.274Z</time>
      </trkpt>
      <trkpt lat="47.406005" lon="7.955150">
        <ele>579.280692</ele>
        <time>2021-11-21T09:51:42.925Z</time>
      </trkpt>
      <trkpt lat="47.405912" lon="7.955153">
        <ele>579.134876</ele>
        <time>2021-11-21T09:51:43.831Z</time>
      </trkpt>
      <trkpt lat="47.405091" lon="7.955275">
        <ele>577.260429</ele>
        <time>2021-11-21T09:51:53.898Z</time>
      </trkpt>
      <trkpt lat="47.404813" lon="7.955410">
        <ele>576.101229</ele>
        <time>2021-11-21T09:51:57.244Z</time>
      </trkpt>
      <trkpt lat="47.404353" lon="7.955814">
        <ele>573.981403</ele>
        <time>2021-11-21T09:52:02.485Z</time>
      </trkpt>
      <trkpt lat="47.404138" lon="7.956088">
        <ele>572.856667</ele>
        <time>2021-11-21T09:52:05.473Z</time>
      </trkpt>
      <trkpt lat="47.404003" lon="7.956362">
        <ele>571.948008</ele>
        <time>2021-11-21T09:52:07.577Z</time>
      </trkpt>
      <trkpt lat="47.404002" lon="7.956367">
        <ele>571.934030</ele>
        <time>2021-11-21T09:52:08.250Z</time>
      </trkpt>
      <trkpt lat="47.403957" lon="7.956530">
        <ele>571.462051</ele>
        <time>2021-11-21T09:52:09.337Z</time>
      </trkpt>
      <trkpt lat="47.403697" lon="7.957714">
        <ele>562.397014</ele>
        <time>2021-11-21T09:52:16.578Z</time>
      </trkpt>
      <trkpt lat="47.403495" lon="7.958633">
        <ele>554.814010</ele>
        <time>2021-11-21T09:52:22.079Z</time>
      </trkpt>
      <trkpt lat="47.403402" lon="7.959004">
        <ele>551.709160</ele>
        <time>2021-11-21T09:52:24.290Z</time>
      </trkpt>
      <trkpt lat="47.403376" lon="7.959117">
        <ele>550.772502</ele>
        <time>2021-11-21T09:52:24.956Z</time>
      </trkpt>
      <trkpt lat="47.403358" lon="7.959239">
        <ele>549.779034</ele>
        <time>2021-11-21T09:52:25.654Z</time>
      </trkpt>
      <trkpt lat="47.403303" lon="7.959529">
        <ele>547.344205</ele>
        <time>2021-11-21T09:52:27.366Z</time>
      </trkpt>
      <trkpt lat="47.403264" lon="7.959687">
        <ele>545.984549</ele>
        <time>2021-11-21T09:52:28.309Z</time>
      </trkpt>
      <trkpt lat="47.402938" lon="7.960616">
        <ele>537.524519</ele>
        <time>2021-11-21T09:52:34.301Z</time>
      </trkpt>
      <trkpt lat="47.402888" lon="7.960792">
        <ele>535.981366</ele>
        <time>2021-11-21T09:52:35.377Z</time>
      </trkpt>
      <trkpt lat="47.402832" lon="7.961034">
        <ele>533.913696</ele>
        <time>2021-11-21T09:52:36.844Z</time>
      </trkpt>
      <trkpt lat="47.402629" lon="7.961912">
        <ele>527.652293</ele>
        <time>2021-11-21T09:52:42.279Z</time>
      </trkpt>
      <trkpt lat="47.402461" lon="7.962233">
        <ele>526.106260</ele>
        <time>2021-11-21T09:52:44.748Z</time>
      </trkpt>
      <trkpt lat="47.402376" lon="7.962347">
        <ele>525.460030</ele>
        <time>2021-11-21T09:52:45.826Z</time>
      </trkpt>
      <trkpt lat="47.402229" lon="7.962487">
        <ele>524.475504</ele>
        <time>2021-11-21T09:52:47.428Z</time>
      </trkpt>
      <trkpt lat="47.402126" lon="7.962577">
        <ele>523.801878</ele>
        <time>2021-11-21T09:52:48.495Z</time>
      </trkpt>
      <trkpt lat="47.402044" lon="7.962645">
        <ele>523.272538</ele>
        <time>2021-11-21T09:52:49.412Z</time>
      </trkpt>
      <trkpt lat="47.401926" lon="7.962736">
        <ele>522.523240</ele>
        <time>2021-11-21T09:52:50.695Z</time>
      </trkpt>
      <trkpt lat="47.401601" lon="7.962926">
        <ele>520.555712</ele>
        <time>2021-11-21T09:52:54.063Z</time>
      </trkpt>
      <trkpt lat="47.399352" lon="7.963734">
        <ele>512.815422</ele>
        <time>2021-11-21T09:53:18.571Z</time>
      </trkpt>
      <trkpt lat="47.398964" lon="7.963937">
        <ele>510.762290</ele>
        <time>2021-11-21T09:53:22.429Z</time>
      </trkpt>
      <trkpt lat="47.398900" lon="7.963982">
        <ele>510.408745</ele>
        <time>2021-11-21T09:53:23.295Z</time>
      </trkpt>
      <trkpt lat="47.398579" lon="7.964208">
        <ele>508.635062</ele>
        <time>2021-11-21T09:53:26.633Z</time>
      </trkpt>
      <trkpt lat="47.398181" lon="7.964489">
        <ele>506.434768</ele>
        <time>2021-11-21T09:53:30.748Z</time>
      </trkpt>
      <trkpt lat="47.398053" lon="7.964572">
        <ele>505.737506</ele>
        <time>2021-11-21T09:53:32.045Z</time>
      </trkpt>
      <trkpt lat="47.398002" lon="7.964618">
        <ele>505.439452</ele>
        <time>2021-11-21T09:53:32.564Z</time>
      </trkpt>
      <trkpt lat="47.397976" lon="7.964653">
        <ele>505.263998</ele>
        <time>2021-11-21T09:53:32.864Z</time>
      </trkpt>
      <trkpt lat="47.397941" lon="7.964854">
        <ele>504.516548</ele>
        <time>2021-11-21T09:53:34.185Z</time>
      </trkpt>
      <trkpt lat="47.398036" lon="7.965339">
        <ele>502.279195</ele>
        <time>2021-11-21T09:53:37.256Z</time>
      </trkpt>
      <trkpt lat="47.398139" lon="7.965867">
        <ele>499.844251</ele>
        <time>2021-11-21T09:53:40.535Z</time>
      </trkpt>
      <trkpt lat="47.398101" lon="7.966103">
        <ele>498.769286</ele>
        <time>2021-11-21T09:53:42.004Z</time>
      </trkpt>
      <trkpt lat="47.397898" lon="7.966526">
        <ele>496.471555</ele>
        <time>2021-11-21T09:53:45.125Z</time>
      </trkpt>
      <trkpt lat="47.397787" lon="7.966754">
        <ele>495.227042</ele>
        <time>2021-11-21T09:53:46.815Z</time>
      </trkpt>
      <trkpt lat="47.397695" lon="7.966945">
        <ele>494.188247</ele>
        <time>2021-11-21T09:53:48.352Z</time>
      </trkpt>
      <trkpt lat="47.397311" lon="7.967962">
        <ele>490.347729</ele>
        <time>2021-11-21T09:53:56.003Z</time>
      </trkpt>
      <trkpt lat="47.397289" lon="7.968025">
        <ele>490.139629</ele>
        <time>2021-11-21T09:53:56.436Z</time>
      </trkpt>
      <trkpt lat="47.397222" lon="7.968222">
        <ele>489.492433</ele>
        <time>2021-11-21T09:53:57.926Z</time>
      </trkpt>
      <trkpt lat="47.397045" lon="7.968665">
        <ele>487.982336</ele>
        <time>2021-11-21T09:54:01.276Z</time>
      </trkpt>
      <trkpt lat="47.397016" lon="7.968712">
        <ele>487.795647</ele>
        <time>2021-11-21T09:54:01.671Z</time>
      </trkpt>
      <trkpt lat="47.396991" lon="7.968750">
        <ele>487.640089</ele>
        <time>2021-11-21T09:54:01.994Z</time>
      </trkpt>
      <trkpt lat="47.396859" lon="7.968860">
        <ele>486.982848</ele>
        <time>2021-11-21T09:54:03.527Z</time>
      </trkpt>
      <trkpt lat="47.396492" lon="7.968998">
        <ele>485.340529</ele>
        <time>2021-11-21T09:54:07.253Z</time>
      </trkpt>
      <trkpt lat="47.395948" lon="7.969708">
        <ele>482.386309</ele>
        <time>2021-11-21T09:54:14.353Z</time>
      </trkpt>
      <trkpt lat="47.395879" lon="7.969792">
        <ele>482.024072</ele>
        <time>2021-11-21T09:54:15.227Z</time>
      </trkpt>
      <trkpt lat="47.395766" lon="7.969901">
        <ele>481.477313</ele>
        <time>2021-11-21T09:54:16.470Z</time>
      </trkpt>
      <trkpt lat="47.395073" lon="7.970323">
        <ele>478.440529</ele>
        <time>2021-11-21T09:54:23.833Z</time>
      </trkpt>
      <trkpt lat="47.394466" lon="7.970490">
        <ele>476.261135</ele>
        <time>2021-11-21T09:54:29.818Z</time>
      </trkpt>
      <trkpt lat="47.393747" lon="7.970632">
        <ele>473.817385</ele>
        <time>2021-11-21T09:54:37.120Z</time>
      </trkpt>
      <trkpt lat="47.393748" lon="7.970677">
        <ele>473.714705</ele>
        <time>2021-11-21T09:54:37.436Z</time>
      </trkpt>
      <trkpt lat="47.393745" lon="7.970768">
        <ele>473.506928</ele>
        <time>2021-11-21T09:54:38.075Z</time>
      </trkpt>
      <trkpt lat="47.393710" lon="7.971006">
        <ele>472.951495</ele>
        <time>2021-11-21T09:54:39.758Z</time>
      </trkpt>
      <trkpt lat="47.393629" lon="7.971494">
        <ele>471.805615</ele>
        <time>2021-11-21T09:54:43.287Z</time>
      </trkpt>
      <trkpt lat="47.393539" lon="7.971795">
        <ele>471.411733</ele>
        <time>2021-11-21T09:54:45.639Z</time>
      </trkpt>
      <trkpt lat="47.393415" lon="7.972081">
        <ele>471.012246</ele>
        <time>2021-11-21T09:54:48.032Z</time>
      </trkpt>
      <trkpt lat="47.393308" lon="7.972283">
        <ele>470.710552</ele>
        <time>2021-11-21T09:54:49.909Z</time>
      </trkpt>
      <trkpt lat="47.392665" lon="7.973315">
        <ele>469.060775</ele>
        <time>2021-11-21T09:55:00.794Z</time>
      </trkpt>
      <trkpt lat="47.392611" lon="7.973459">
        <ele>468.867142</ele>
        <time>2021-11-21T09:55:02.185Z</time>
      </trkpt>
      <trkpt lat="47.392597" lon="7.973533">
        <ele>468.776764</ele>
        <time>2021-11-21T09:55:02.747Z</time>
      </trkpt>
      <trkpt lat="47.392585" lon="7.973615">
        <ele>468.678082</ele>
        <time>2021-11-21T09:55:03.488Z</time>
      </trkpt>
      <trkpt lat="47.392451" lon="7.974841">
        <ele>468.755132</ele>
        <time>2021-11-21T09:55:15.274Z</time>
      </trkpt>
      <trkpt lat="47.392425" lon="7.974952">
        <ele>468.763604</ele>
        <time>2021-11-21T09:55:16.494Z</time>
      </trkpt>
      <trkpt lat="47.392385" lon="7.975039">
        <ele>468.771189</ele>
        <time>2021-11-21T09:55:17.487Z</time>
      </trkpt>
      <trkpt lat="47.392426" lon="7.975095">
        <ele>468.777139</ele>
        <time>2021-11-21T09:55:18.265Z</time>
      </trkpt>
      <trkpt lat="47.392462" lon="7.975143">
        <ele>468.782306</ele>
        <time>2021-11-21T09:55:19.069Z</time>
      </trkpt>
      <trkpt lat="47.392493" lon="7.975186">
        <ele>468.786836</ele>
        <time>2021-11-21T09:55:19.953Z</time>
      </trkpt>
      <trkpt lat="47.392777" lon="7.975534">
        <ele>468.826149</ele>
        <time>2021-11-21T09:55:26.137Z</time>
      </trkpt>
      <trkpt lat="47.393306" lon="7.976033">
        <ele>469.395132</ele>
        <time>2021-11-21T09:55:38.053Z</time>
      </trkpt>
      <trkpt lat="47.393999" lon="7.976500">
        <ele>470.636990</ele>
        <time>2021-11-21T09:55:53.310Z</time>
      </trkpt>
      <trkpt lat="47.394194" lon="7.976656">
        <ele>470.998540</ele>
        <time>2021-11-21T09:55:57.756Z</time>
      </trkpt>
      <trkpt lat="47.394203" lon="7.976663">
        <ele>471.015123</ele>
        <time>2021-11-21T09:55:58.042Z</time>
      </trkpt>
      <trkpt lat="47.394377" lon="7.976949">
        <ele>471.439519</ele>
        <time>2021-11-21T09:56:03.102Z</time>
      </trkpt>
      <trkpt lat="47.394736" lon="7.977946">
        <ele>474.521983</ele>
        <time>2021-11-21T09:56:24.277Z</time>
      </trkpt>
      <trkpt lat="47.394840" lon="7.978472">
        <ele>476.366810</ele>
        <time>2021-11-21T09:56:38.087Z</time>
      </trkpt>
      <trkpt lat="47.394888" lon="7.979082">
        <ele>478.434269</ele>
        <time>2021-11-21T09:56:53.392Z</time>
      </trkpt>
      <trkpt lat="47.394891" lon="7.979156">
        <ele>478.683844</ele>
        <time>2021-11-21T09:56:55.792Z</time>
      </trkpt>
      <trkpt lat="47.394904" lon="7.979455">
        <ele>479.692534</ele>
        <time>2021-11-21T09:57:03.969Z</time>
      </trkpt>
      <trkpt lat="47.394933" lon="7.979919">
        <ele>481.302180</ele>
        <time>2021-11-21T09:57:16.869Z</time>
      </trkpt>
      <trkpt lat="47.394968" lon="7.980191">
        <ele>482.306794</ele>
        <time>2021-11-21T09:57:24.267Z</time>
      </trkpt>
      <trkpt lat="47.394979" lon="7.980277">
        <ele>482.624363</ele>
        <time>2021-11-21T09:57:27.780Z</time>
      </trkpt>
      <trkpt lat="47.395249" lon="7.981221">
        <ele>486.342812</ele>
        <time>2021-11-21T09:57:56.036Z</time>
      </trkpt>
      <trkpt lat="47.395545" lon="7.981948">
        <ele>489.421061</ele>
        <time>2021-11-21T09:58:16.952Z</time>
      </trkpt>
      <trkpt lat="47.395636" lon="7.982164">
        <ele>490.344189</ele>
        <time>2021-11-21T09:58:23.377Z</time>
      </trkpt>
      <trkpt lat="47.396175" lon="7.983469">
        <ele>488.601905</ele>
        <time>2021-11-21T09:58:37.324Z</time>
      </trkpt>
      <trkpt lat="47.396416" lon="7.984053">
        <ele>487.803369</ele>
        <time>2021-11-21T09:58:41.892Z</time>
      </trkpt>
      <trkpt lat="47.396579" lon="7.984448">
        <ele>487.231443</ele>
        <time>2021-11-21T09:58:44.770Z</time>
      </trkpt>
      <trkpt lat="47.396615" lon="7.984541">
        <ele>486.742213</ele>
        <time>2021-11-21T09:58:45.413Z</time>
      </trkpt>
      <trkpt lat="47.396807" lon="7.985018">
        <ele>484.207943</ele>
        <time>2021-11-21T09:58:48.815Z</time>
      </trkpt>
      <trkpt lat="47.396909" lon="7.985270">
        <ele>482.867131</ele>
        <time>2021-11-21T09:58:50.622Z</time>
      </trkpt>
      <trkpt lat="47.397138" lon="7.985840">
        <ele>479.840267</ele>
        <time>2021-11-21T09:58:54.629Z</time>
      </trkpt>
      <trkpt lat="47.397211" lon="7.986093">
        <ele>478.584350</ele>
        <time>2021-11-21T09:58:56.284Z</time>
      </trkpt>
      <trkpt lat="47.397256" lon="7.986330">
        <ele>477.460309</ele>
        <time>2021-11-21T09:58:57.756Z</time>
      </trkpt>
      <trkpt lat="47.397286" lon="7.986798">
        <ele>475.313608</ele>
        <time>2021-11-21T09:59:00.593Z</time>
      </trkpt>
      <trkpt lat="47.397242" lon="7.987219">
        <ele>473.681966</ele>
        <time>2021-11-21T09:59:03.234Z</time>
      </trkpt>
      <trkpt lat="47.396961" lon="7.988226">
        <ele>469.588456</ele>
        <time>2021-11-21T09:59:10.037Z</time>
      </trkpt>
      <trkpt lat="47.396918" lon="7.988400">
        <ele>468.892303</ele>
        <time>2021-11-21T09:59:11.194Z</time>
      </trkpt>
      <trkpt lat="47.396863" lon="7.988601">
        <ele>468.077508</ele>
        <time>2021-11-21T09:59:12.613Z</time>
      </trkpt>
      <trkpt lat="47.396806" lon="7.989040">
        <ele>466.397553</ele>
        <time>2021-11-21T09:59:15.518Z</time>
      </trkpt>
      <trkpt lat="47.396806" lon="7.989459">
        <ele>464.901458</ele>
        <time>2021-11-21T09:59:18.226Z</time>
      </trkpt>
      <trkpt lat="47.396851" lon="7.990086">
        <ele>463.094100</ele>
        <time>2021-11-21T09:59:22.283Z</time>
      </trkpt>
      <trkpt lat="47.396903" lon="7.990819">
        <ele>460.981465</ele>
        <time>2021-11-21T09:59:27.020Z</time>
      </trkpt>
      <trkpt lat="47.396939" lon="7.991355">
        <ele>459.437489</ele>
        <time>2021-11-21T09:59:30.636Z</time>
      </trkpt>
      <trkpt lat="47.397030" lon="7.992689">
        <ele>455.848355</ele>
        <time>2021-11-21T09:59:39.602Z</time>
      </trkpt>
      <trkpt lat="47.397042" lon="7.992877">
        <ele>455.377845</ele>
        <time>2021-11-21T09:59:40.949Z</time>
      </trkpt>
      <trkpt lat="47.397063" lon="7.993052">
        <ele>454.935006</ele>
        <time>2021-11-21T09:59:42.102Z</time>
      </trkpt>
      <trkpt lat="47.397136" lon="7.993457">
        <ele>453.890723</ele>
        <time>2021-11-21T09:59:45.037Z</time>
      </trkpt>
      <trkpt lat="47.397565" lon="7.994923">
        <ele>449.238221</ele>
        <time>2021-11-21T09:59:55.791Z</time>
      </trkpt>
      <trkpt lat="47.398318" lon="7.996503">
        <ele>441.201610</ele>
        <time>2021-11-21T10:00:07.636Z</time>
      </trkpt>
      <trkpt lat="47.398472" lon="7.996836">
        <ele>439.463379</ele>
        <time>2021-11-21T10:00:10.075Z</time>
      </trkpt>
      <trkpt lat="47.398801" lon="7.997499">
        <ele>435.434375</ele>
        <time>2021-11-21T10:00:15.021Z</time>
      </trkpt>
      <trkpt lat="47.398904" lon="7.997751">
        <ele>433.991628</ele>
        <time>2021-11-21T10:00:16.781Z</time>
      </trkpt>
      <trkpt lat="47.398936" lon="7.997856">
        <ele>433.427270</ele>
        <time>2021-11-21T10:00:17.474Z</time>
      </trkpt>
      <trkpt lat="47.399028" lon="7.998500">
        <ele>430.201510</ele>
        <time>2021-11-21T10:00:21.452Z</time>
      </trkpt>
      <trkpt lat="47.399063" lon="7.998781">
        <ele>428.801214</ele>
        <time>2021-11-21T10:00:23.165Z</time>
      </trkpt>
      <trkpt lat="47.399152" lon="7.999395">
        <ele>425.892652</ele>
        <time>2021-11-21T10:00:27.032Z</time>
      </trkpt>
      <trkpt lat="47.399265" lon="8.000456">
        <ele>421.423143</ele>
        <time>2021-11-21T10:00:33.682Z</time>
      </trkpt>
      <trkpt lat="47.399261" lon="8.001450">
        <ele>417.286695</ele>
        <time>2021-11-21T10:00:39.865Z</time>
      </trkpt>
      <trkpt lat="47.399255" lon="8.001537">
        <ele>416.922784</ele>
        <time>2021-11-21T10:00:40.370Z</time>
      </trkpt>
      <trkpt lat="47.399243" lon="8.001716">
        <ele>416.174259</ele>
        <time>2021-11-21T10:00:41.544Z</time>
      </trkpt>
      <trkpt lat="47.399217" lon="8.001947">
        <ele>415.322844</ele>
        <time>2021-11-21T10:00:43.055Z</time>
      </trkpt>
      <trkpt lat="47.399213" lon="8.001977">
        <ele>415.222358</ele>
        <time>2021-11-21T10:00:43.235Z</time>
      </trkpt>
      <trkpt lat="47.399102" lon="8.002695">
        <ele>412.801963</ele>
        <time>2021-11-21T10:00:47.823Z</time>
      </trkpt>
      <trkpt lat="47.399046" lon="8.003031">
        <ele>411.664752</ele>
        <time>2021-11-21T10:00:49.999Z</time>
      </trkpt>
      <trkpt lat="47.399018" lon="8.003198">
        <ele>411.099336</ele>
        <time>2021-11-21T10:00:51.071Z</time>
      </trkpt>
      <trkpt lat="47.398985" lon="8.003390">
        <ele>410.448322</ele>
        <time>2021-11-21T10:00:52.374Z</time>
      </trkpt>
      <trkpt lat="47.398962" lon="8.003520">
        <ele>410.006736</ele>
        <time>2021-11-21T10:00:53.225Z</time>
      </trkpt>
      <trkpt lat="47.398916" lon="8.003760">
        <ele>409.186987</ele>
        <time>2021-11-21T10:00:54.787Z</time>
      </trkpt>
      <trkpt lat="47.398736" lon="8.004398">
        <ele>407.001063</ele>
        <time>2021-11-21T10:00:59.497Z</time>
      </trkpt>
      <trkpt lat="47.398532" lon="8.005056">
        <ele>406.110399</ele>
        <time>2021-11-21T10:01:04.622Z</time>
      </trkpt>
      <trkpt lat="47.398478" lon="8.005253">
        <ele>405.848836</ele>
        <time>2021-11-21T10:01:06.181Z</time>
      </trkpt>
      <trkpt lat="47.398456" lon="8.005336">
        <ele>405.739139</ele>
        <time>2021-11-21T10:01:06.845Z</time>
      </trkpt>
      <trkpt lat="47.398434" lon="8.005419">
        <ele>405.629443</ele>
        <time>2021-11-21T10:01:07.529Z</time>
      </trkpt>
      <trkpt lat="47.398366" lon="8.005776">
        <ele>405.173036</ele>
        <time>2021-11-21T10:01:10.361Z</time>
      </trkpt>
      <trkpt lat="47.398340" lon="8.005973">
        <ele>404.926031</ele>
        <time>2021-11-21T10:01:11.919Z</time>
      </trkpt>
      <trkpt lat="47.398325" lon="8.006092">
        <ele>404.777065</ele>
        <time>2021-11-21T10:01:12.895Z</time>
      </trkpt>
      <trkpt lat="47.398315" lon="8.006322">
        <ele>404.493431</ele>
        <time>2021-11-21T10:01:14.711Z</time>
      </trkpt>
      <trkpt lat="47.398309" lon="8.006503">
        <ele>404.270415</ele>
        <time>2021-11-21T10:01:16.231Z</time>
      </trkpt>
      <trkpt lat="47.398305" lon="8.006599">
        <ele>404.152048</ele>
        <time>2021-11-21T10:01:17.063Z</time>
      </trkpt>
      <trkpt lat="47.398332" lon="8.007138">
        <ele>403.849266</ele>
        <time>2021-11-21T10:01:21.892Z</time>
      </trkpt>
      <trkpt lat="47.398342" lon="8.007301">
        <ele>403.894970</ele>
        <time>2021-11-21T10:01:23.416Z</time>
      </trkpt>
      <trkpt lat="47.398355" lon="8.007511">
        <ele>403.953858</ele>
        <time>2021-11-21T10:01:25.570Z</time>
      </trkpt>
      <trkpt lat="47.398361" lon="8.007613">
        <ele>403.982449</ele>
        <time>2021-11-21T10:01:26.703Z</time>
      </trkpt>
      <trkpt lat="47.398369" lon="8.007869">
        <ele>404.054014</ele>
        <time>2021-11-21T10:01:29.369Z</time>
      </trkpt>
      <trkpt lat="47.398359" lon="8.008044">
        <ele>404.103057</ele>
        <time>2021-11-21T10:01:31.266Z</time>
      </trkpt>
      <trkpt lat="47.398326" lon="8.008322">
        <ele>404.181874</ele>
        <time>2021-11-21T10:01:34.525Z</time>
      </trkpt>
      <trkpt lat="47.398321" lon="8.008362">
        <ele>404.193233</ele>
        <time>2021-11-21T10:01:34.860Z</time>
      </trkpt>
      <trkpt lat="47.398514" lon="8.008377">
        <ele>404.272965</ele>
        <time>2021-11-21T10:01:38.218Z</time>
      </trkpt>
      <trkpt lat="47.398777" lon="8.008383">
        <ele>404.381478</ele>
        <time>2021-11-21T10:01:42.962Z</time>
      </trkpt>
      <trkpt lat="47.399079" lon="8.008371">
        <ele>404.506112</ele>
        <time>2021-11-21T10:01:48.675Z</time>
      </trkpt>
      <trkpt lat="47.399120" lon="8.008370">
        <ele>404.523029</ele>
        <time>2021-11-21T10:01:49.512Z</time>
      </trkpt>
      <trkpt lat="47.399318" lon="8.008362">
        <ele>405.062654</ele>
        <time>2021-11-21T10:01:53.432Z</time>
      </trkpt>
      <trkpt lat="47.399363" lon="8.008358">
        <ele>405.187086</ele>
        <time>2021-11-21T10:01:54.424Z</time>
      </trkpt>
      <trkpt lat="47.399521" lon="8.008344">
        <ele>405.623977</ele>
        <time>2021-11-21T10:01:57.659Z</time>
      </trkpt>
      <trkpt lat="47.399704" lon="8.008325">
        <ele>406.130335</ele>
        <time>2021-11-21T10:02:01.622Z</time>
      </trkpt>
      <trkpt lat="47.399749" lon="8.008324">
        <ele>406.254557</ele>
        <time>2021-11-21T10:02:02.742Z</time>
      </trkpt>
      <trkpt lat="47.399904" lon="8.008326">
        <ele>406.682400</ele>
        <time>2021-11-21T10:02:06.914Z</time>
      </trkpt>
      <trkpt lat="47.400262" lon="8.008339">
        <ele>407.670840</ele>
        <time>2021-11-21T10:02:19.123Z</time>
      </trkpt>
      <trkpt lat="47.400342" lon="8.008339">
        <ele>407.891654</ele>
        <time>2021-11-21T10:02:25.675Z</time>
      </trkpt>
      <trkpt lat="47.400495" lon="8.008328">
        <ele>408.314460</ele>
        <time>2021-11-21T10:02:27.397Z</time>
      </trkpt>
      <trkpt lat="47.400645" lon="8.008316">
        <ele>408.729093</ele>
        <time>2021-11-21T10:02:28.972Z</time>
      </trkpt>
      <trkpt lat="47.400970" lon="8.008293">
        <ele>409.620550</ele>
        <time>2021-11-21T10:02:38.139Z</time>
      </trkpt>
      <trkpt lat="47.401050" lon="8.008287">
        <ele>409.831056</ele>
        <time>2021-11-21T10:02:43.399Z</time>
      </trkpt>
      <trkpt lat="47.401162" lon="8.008282">
        <ele>410.125519</ele>
        <time>2021-11-21T10:02:45.709Z</time>
      </trkpt>
      <trkpt lat="47.401334" lon="8.008291">
        <ele>410.577808</ele>
        <time>2021-11-21T10:02:47.802Z</time>
      </trkpt>
      <trkpt lat="47.401361" lon="8.008293">
        <ele>410.648852</ele>
        <time>2021-11-21T10:02:48.032Z</time>
      </trkpt>
      <trkpt lat="47.401439" lon="8.008298">
        <ele>410.854024</ele>
        <time>2021-11-21T10:02:56.374Z</time>
      </trkpt>
      <trkpt lat="47.401679" lon="8.008305">
        <ele>411.484852</ele>
        <time>2021-11-21T10:02:58.759Z</time>
      </trkpt>
      <trkpt lat="47.401893" lon="8.008300">
        <ele>412.047301</ele>
        <time>2021-11-21T10:03:06.559Z</time>
      </trkpt>
      <trkpt lat="47.401904" lon="8.008300">
        <ele>412.076208</ele>
        <time>2021-11-21T10:03:06.711Z</time>
      </trkpt>
      <trkpt lat="47.402040" lon="8.008299">
        <ele>412.433612</ele>
        <time>2021-11-21T10:03:08.372Z</time>
      </trkpt>
      <trkpt lat="47.402104" lon="8.008297">
        <ele>412.601838</ele>
        <time>2021-11-21T10:03:10.746Z</time>
      </trkpt>
      <trkpt lat="47.402278" lon="8.008293">
        <ele>413.059155</ele>
        <time>2021-11-21T10:03:16.748Z</time>
      </trkpt>
      <trkpt lat="47.402363" lon="8.008290">
        <ele>413.282593</ele>
        <time>2021-11-21T10:03:17.738Z</time>
      </trkpt>
      <trkpt lat="47.402426" lon="8.008291">
        <ele>413.448163</ele>
        <time>2021-11-21T10:03:18.444Z</time>
      </trkpt>
      <trkpt lat="47.402695" lon="8.008273">
        <ele>414.155803</ele>
        <time>2021-11-21T10:03:27.614Z</time>
      </trkpt>
      <trkpt lat="47.402781" lon="8.008263">
        <ele>414.395070</ele>
        <time>2021-11-21T10:03:28.736Z</time>
      </trkpt>
      <trkpt lat="47.403133" lon="8.008099">
        <ele>415.438017</ele>
        <time>2021-11-21T10:03:38.384Z</time>
      </trkpt>
      <trkpt lat="47.403304" lon="8.007981">
        <ele>415.971325</ele>
        <time>2021-11-21T10:03:40.717Z</time>
      </trkpt>
      <trkpt lat="47.403452" lon="8.007880">
        <ele>416.431991</ele>
        <time>2021-11-21T10:03:45.489Z</time>
      </trkpt>
      <trkpt lat="47.403520" lon="8.007837">
        <ele>416.641002</ele>
        <time>2021-11-21T10:03:47.469Z</time>
      </trkpt>
      <trkpt lat="47.403562" lon="8.007823">
        <ele>416.762666</ele>
        <time>2021-11-21T10:03:48.942Z</time>
      </trkpt>
      <trkpt lat="47.403653" lon="8.007796">
        <ele>417.024943</ele>
        <time>2021-11-21T10:03:51.515Z</time>
      </trkpt>
      <trkpt lat="47.403772" lon="8.007787">
        <ele>417.361647</ele>
        <time>2021-11-21T10:03:54.737Z</time>
      </trkpt>
      <trkpt lat="47.403792" lon="8.007790">
        <ele>417.418452</ele>
        <time>2021-11-21T10:03:55.568Z</time>
      </trkpt>
      <trkpt lat="47.403985" lon="8.007820">
        <ele>417.966831</ele>
        <time>2021-11-21T10:04:01.144Z</time>
      </trkpt>
      <trkpt lat="47.404137" lon="8.007834">
        <ele>418.397178</ele>
        <time>2021-11-21T10:04:05.272Z</time>
      </trkpt>
      <trkpt lat="47.404271" lon="8.007832">
        <ele>418.775848</ele>
        <time>2021-11-21T10:04:09.305Z</time>
      </trkpt>
      <trkpt lat="47.404646" lon="8.007793">
        <ele>419.742191</ele>
        <time>2021-11-21T10:04:19.666Z</time>
      </trkpt>
      <trkpt lat="47.404814" lon="8.007770">
        <ele>420.134259</ele>
        <time>2021-11-21T10:04:24.117Z</time>
      </trkpt>
      <trkpt lat="47.404973" lon="8.007737">
        <ele>420.507368</ele>
        <time>2021-11-21T10:04:28.394Z</time>
      </trkpt>
      <trkpt lat="47.405164" lon="8.007669">
        <ele>420.963915</ele>
        <time>2021-11-21T10:04:33.263Z</time>
      </trkpt>
      <trkpt lat="47.405336" lon="8.007607">
        <ele>421.375328</ele>
        <time>2021-11-21T10:04:37.636Z</time>
      </trkpt>
      <trkpt lat="47.405463" lon="8.007552">
        <ele>421.682865</ele>
        <time>2021-11-21T10:04:40.547Z</time>
      </trkpt>
      <trkpt lat="47.405495" lon="8.007540">
        <ele>421.759584</ele>
        <time>2021-11-21T10:04:41.322Z</time>
      </trkpt>
      <trkpt lat="47.405569" lon="8.007513">
        <ele>421.936709</ele>
        <time>2021-11-21T10:04:43.029Z</time>
      </trkpt>
      <trkpt lat="47.405697" lon="8.007460">
        <ele>422.245613</ele>
        <time>2021-11-21T10:04:45.987Z</time>
      </trkpt>
      <trkpt lat="47.405857" lon="8.007395">
        <ele>422.631216</ele>
        <time>2021-11-21T10:04:49.547Z</time>
      </trkpt>
      <trkpt lat="47.406049" lon="8.007319">
        <ele>423.093116</ele>
        <time>2021-11-21T10:04:53.589Z</time>
      </trkpt>
      <trkpt lat="47.406056" lon="8.007317">
        <ele>423.109684</ele>
        <time>2021-11-21T10:04:53.656Z</time>
      </trkpt>
      <trkpt lat="47.406348" lon="8.007199">
        <ele>423.781189</ele>
        <time>2021-11-21T10:05:00.540Z</time>
      </trkpt>
      <trkpt lat="47.406380" lon="8.007179">
        <ele>423.854235</ele>
        <time>2021-11-21T10:05:01.251Z</time>
      </trkpt>
      <trkpt lat="47.406542" lon="8.007065">
        <ele>424.231471</ele>
        <time>2021-11-21T10:05:05.354Z</time>
      </trkpt>
      <trkpt lat="47.406591" lon="8.007007">
        <ele>424.363466</ele>
        <time>2021-11-21T10:05:06.774Z</time>
      </trkpt>
      <trkpt lat="47.406616" lon="8.006959">
        <ele>424.449645</ele>
        <time>2021-11-21T10:05:07.689Z</time>
      </trkpt>
      <trkpt lat="47.406711" lon="8.006770">
        <ele>424.784619</ele>
        <time>2021-11-21T10:05:11.133Z</time>
      </trkpt>
      <trkpt lat="47.406797" lon="8.006505">
        <ele>425.202782</ele>
        <time>2021-11-21T10:05:15.976Z</time>
      </trkpt>
      <trkpt lat="47.406827" lon="8.006396">
        <ele>425.370207</ele>
        <time>2021-11-21T10:05:17.621Z</time>
      </trkpt>
      <trkpt lat="47.406834" lon="8.006372">
        <ele>425.407391</ele>
        <time>2021-11-21T10:05:17.854Z</time>
      </trkpt>
      <trkpt lat="47.406875" lon="8.006223">
        <ele>425.636249</ele>
        <time>2021-11-21T10:05:20.575Z</time>
      </trkpt>
      <trkpt lat="47.406945" lon="8.005975">
        <ele>426.018573</ele>
        <time>2021-11-21T10:05:24.793Z</time>
      </trkpt>
      <trkpt lat="47.406968" lon="8.005861">
        <ele>426.187832</ele>
        <time>2021-11-21T10:05:26.273Z</time>
      </trkpt>
      <trkpt lat="47.407034" lon="8.005521">
        <ele>426.691105</ele>
        <time>2021-11-21T10:05:32.447Z</time>
      </trkpt>
      <trkpt lat="47.407096" lon="8.005346">
        <ele>426.972156</ele>
        <time>2021-11-21T10:05:35.317Z</time>
      </trkpt>
      <trkpt lat="47.407161" lon="8.005248">
        <ele>427.167392</ele>
        <time>2021-11-21T10:05:37.642Z</time>
      </trkpt>
      <trkpt lat="47.407210" lon="8.005174">
        <ele>427.338255</ele>
        <time>2021-11-21T10:05:39.532Z</time>
      </trkpt>
      <trkpt lat="47.407258" lon="8.005103">
        <ele>427.541580</ele>
        <time>2021-11-21T10:05:41.427Z</time>
      </trkpt>
      <trkpt lat="47.407343" lon="8.004993">
        <ele>427.879839</ele>
        <time>2021-11-21T10:05:43.994Z</time>
      </trkpt>
      <trkpt lat="47.407434" lon="8.004867">
        <ele>428.253179</ele>
        <time>2021-11-21T10:05:47.193Z</time>
      </trkpt>
      <trkpt lat="47.407533" lon="8.004764">
        <ele>428.615649</ele>
        <time>2021-11-21T10:05:50.678Z</time>
      </trkpt>
      <trkpt lat="47.407827" lon="8.004602">
        <ele>429.554991</ele>
        <time>2021-11-21T10:05:59.119Z</time>
      </trkpt>
      <trkpt lat="47.407861" lon="8.004588">
        <ele>429.660653</ele>
        <time>2021-11-21T10:06:00.111Z</time>
      </trkpt>
      <trkpt lat="47.407996" lon="8.004508">
        <ele>430.096086</ele>
        <time>2021-11-21T10:06:03.788Z</time>
      </trkpt>
      <trkpt lat="47.408121" lon="8.004419">
        <ele>430.511471</ele>
        <time>2021-11-21T10:06:07.658Z</time>
      </trkpt>
      <trkpt lat="47.408160" lon="8.004389">
        <ele>430.643097</ele>
        <time>2021-11-21T10:06:09.214Z</time>
      </trkpt>
      <trkpt lat="47.408375" lon="8.004118">
        <ele>431.489100</ele>
        <time>2021-11-21T10:06:16.721Z</time>
      </trkpt>
      <trkpt lat="47.408524" lon="8.003903">
        <ele>432.112562</ele>
        <time>2021-11-21T10:06:22.736Z</time>
      </trkpt>
      <trkpt lat="47.408562" lon="8.003845">
        <ele>432.276113</ele>
        <time>2021-11-21T10:06:24.187Z</time>
      </trkpt>
      <trkpt lat="47.408698" lon="8.003619">
        <ele>432.893048</ele>
        <time>2021-11-21T10:06:29.923Z</time>
      </trkpt>
      <trkpt lat="47.408816" lon="8.003405">
        <ele>433.461941</ele>
        <time>2021-11-21T10:06:34.837Z</time>
      </trkpt>
      <trkpt lat="47.408857" lon="8.003323">
        <ele>433.672056</ele>
        <time>2021-11-21T10:06:36.602Z</time>
      </trkpt>
      <trkpt lat="47.408990" lon="8.003018">
        <ele>434.419820</ele>
        <time>2021-11-21T10:06:43.732Z</time>
      </trkpt>
      <trkpt lat="47.409165" lon="8.002620">
        <ele>435.397981</ele>
        <time>2021-11-21T10:06:52.960Z</time>
      </trkpt>
      <trkpt lat="47.409346" lon="8.002206">
        <ele>436.413749</ele>
        <time>2021-11-21T10:07:02.500Z</time>
      </trkpt>
      <trkpt lat="47.409631" lon="8.001555">
        <ele>438.011638</ele>
        <time>2021-11-21T10:07:16.614Z</time>
      </trkpt>
      <trkpt lat="47.409658" lon="8.001493">
        <ele>438.162032</ele>
        <time>2021-11-21T10:07:17.068Z</time>
      </trkpt>
      <trkpt lat="47.409988" lon="8.000760">
        <ele>439.910444</ele>
        <time>2021-11-21T10:07:32.603Z</time>
      </trkpt>
      <trkpt lat="47.410086" lon="8.000529">
        <ele>440.451893</ele>
        <time>2021-11-21T10:07:34.906Z</time>
      </trkpt>
      <trkpt lat="47.410265" lon="8.000090">
        <ele>441.469748</ele>
        <time>2021-11-21T10:07:44.826Z</time>
      </trkpt>
      <trkpt lat="47.410314" lon="7.999955">
        <ele>441.773980</ele>
        <time>2021-11-21T10:07:47.968Z</time>
      </trkpt>
      <trkpt lat="47.410374" lon="7.999735">
        <ele>442.245035</ele>
        <time>2021-11-21T10:07:55.338Z</time>
      </trkpt>
      <trkpt lat="47.410419" lon="7.999549">
        <ele>442.637318</ele>
        <time>2021-11-21T10:07:56.584Z</time>
      </trkpt>
      <trkpt lat="47.410469" lon="7.999337">
        <ele>443.083175</ele>
        <time>2021-11-21T10:08:04.752Z</time>
      </trkpt>
      <trkpt lat="47.410539" lon="7.998750">
        <ele>444.994514</ele>
        <time>2021-11-21T10:08:16.603Z</time>
      </trkpt>
      <trkpt lat="47.410563" lon="7.998432">
        <ele>446.162852</ele>
        <time>2021-11-21T10:08:19.907Z</time>
      </trkpt>
      <trkpt lat="47.410573" lon="7.998302">
        <ele>446.640588</ele>
        <time>2021-11-21T10:08:24.939Z</time>
      </trkpt>
      <trkpt lat="47.410730" lon="7.996495">
        <ele>453.347852</ele>
        <time>2021-11-21T10:09:13.553Z</time>
      </trkpt>
      <trkpt lat="47.410789" lon="7.995936">
        <ele>456.015972</ele>
        <time>2021-11-21T10:09:29.693Z</time>
      </trkpt>
      <trkpt lat="47.410842" lon="7.995586">
        <ele>457.707392</ele>
        <time>2021-11-21T10:09:39.845Z</time>
      </trkpt>
      <trkpt lat="47.410895" lon="7.995177">
        <ele>459.671279</ele>
        <time>2021-11-21T10:09:51.567Z</time>
      </trkpt>
      <trkpt lat="47.410955" lon="7.994799">
        <ele>461.502305</ele>
        <time>2021-11-21T10:10:03.066Z</time>
      </trkpt>
      <trkpt lat="47.410996" lon="7.994555">
        <ele>462.687948</ele>
        <time>2021-11-21T10:10:09.982Z</time>
      </trkpt>
      <trkpt lat="47.411029" lon="7.994255">
        <ele>464.121313</ele>
        <time>2021-11-21T10:10:18.786Z</time>
      </trkpt>
      <trkpt lat="47.411035" lon="7.994069">
        <ele>464.999482</ele>
        <time>2021-11-21T10:10:24.607Z</time>
      </trkpt>
      <trkpt lat="47.411038" lon="7.993958">
        <ele>465.523374</ele>
        <time>2021-11-21T10:10:30.191Z</time>
      </trkpt>
      <trkpt lat="47.410860" lon="7.992731">
        <ele>471.220391</ele>
        <time>2021-11-21T10:11:06.810Z</time>
      </trkpt>
      <trkpt lat="47.410870" lon="7.992113">
        <ele>474.024707</ele>
        <time>2021-11-21T10:11:23.580Z</time>
      </trkpt>
      <trkpt lat="47.410911" lon="7.991894">
        <ele>475.055500</ele>
        <time>2021-11-21T10:11:30.410Z</time>
      </trkpt>
      <trkpt lat="47.410918" lon="7.991867">
        <ele>475.186664</ele>
        <time>2021-11-21T10:11:32.282Z</time>
      </trkpt>
      <trkpt lat="47.411178" lon="7.991293">
        <ele>478.347855</ele>
        <time>2021-11-21T10:11:47.663Z</time>
      </trkpt>
      <trkpt lat="47.411641" lon="7.990682">
        <ele>482.694358</ele>
        <time>2021-11-21T10:12:11.823Z</time>
      </trkpt>
      <trkpt lat="47.411782" lon="7.990459">
        <ele>484.140476</ele>
        <time>2021-11-21T10:12:19.805Z</time>
      </trkpt>
      <trkpt lat="47.411896" lon="7.990275">
        <ele>485.322555</ele>
        <time>2021-11-21T10:12:29.131Z</time>
      </trkpt>
      <trkpt lat="47.411911" lon="7.990245">
        <ele>485.499299</ele>
        <time>2021-11-21T10:12:29.391Z</time>
      </trkpt>
      <trkpt lat="47.412444" lon="7.989410">
        <ele>491.110563</ele>
        <time>2021-11-21T10:13:05.082Z</time>
      </trkpt>
      <trkpt lat="47.412686" lon="7.989032">
        <ele>494.230697</ele>
        <time>2021-11-21T10:13:22.481Z</time>
      </trkpt>
      <trkpt lat="47.412964" lon="7.988572">
        <ele>497.928740</ele>
        <time>2021-11-21T10:13:46.321Z</time>
      </trkpt>
      <trkpt lat="47.413230" lon="7.987852">
        <ele>502.847418</ele>
        <time>2021-11-21T10:14:17.707Z</time>
      </trkpt>
      <trkpt lat="47.413413" lon="7.987069">
        <ele>506.513096</ele>
        <time>2021-11-21T10:14:44.553Z</time>
      </trkpt>
      <trkpt lat="47.413493" lon="7.986726">
        <ele>506.905746</ele>
        <time>2021-11-21T10:14:53.103Z</time>
      </trkpt>
      <trkpt lat="47.413557" lon="7.986404">
        <ele>507.268957</ele>
        <time>2021-11-21T10:14:57.027Z</time>
      </trkpt>
      <trkpt lat="47.413708" lon="7.985860">
        <ele>507.905315</ele>
        <time>2021-11-21T10:15:04.047Z</time>
      </trkpt>
      <trkpt lat="47.413842" lon="7.985578">
        <ele>508.278242</ele>
        <time>2021-11-21T10:15:07.562Z</time>
      </trkpt>
      <trkpt lat="47.414004" lon="7.985427">
        <ele>508.584566</ele>
        <time>2021-11-21T10:15:10.204Z</time>
      </trkpt>
      <trkpt lat="47.414079" lon="7.985396">
        <ele>508.709120</ele>
        <time>2021-11-21T10:15:11.033Z</time>
      </trkpt>
      <trkpt lat="47.414120" lon="7.985383">
        <ele>508.776184</ele>
        <time>2021-11-21T10:15:11.449Z</time>
      </trkpt>
      <trkpt lat="47.414177" lon="7.985372">
        <ele>508.868120</ele>
        <time>2021-11-21T10:15:12.156Z</time>
      </trkpt>
      <trkpt lat="47.414264" lon="7.985381">
        <ele>509.007602</ele>
        <time>2021-11-21T10:15:12.989Z</time>
      </trkpt>
      <trkpt lat="47.414423" lon="7.985446">
        <ele>508.971921</ele>
        <time>2021-11-21T10:15:15.414Z</time>
      </trkpt>
      <trkpt lat="47.414626" lon="7.985681">
        <ele>508.650621</ele>
        <time>2021-11-21T10:15:17.922Z</time>
      </trkpt>
      <trkpt lat="47.415025" lon="7.986604">
        <ele>507.727167</ele>
        <time>2021-11-21T10:15:25.442Z</time>
      </trkpt>
      <trkpt lat="47.415239" lon="7.986924">
        <ele>507.347840</ele>
        <time>2021-11-21T10:15:28.643Z</time>
      </trkpt>
      <trkpt lat="47.416321" lon="7.987699">
        <ele>510.782258</ele>
        <time>2021-11-21T10:16:01.565Z</time>
      </trkpt>
      <trkpt lat="47.416569" lon="7.988004">
        <ele>512.339019</ele>
        <time>2021-11-21T10:16:13.582Z</time>
      </trkpt>
      <trkpt lat="47.416912" lon="7.988562">
        <ele>514.800325</ele>
        <time>2021-11-21T10:16:35.143Z</time>
      </trkpt>
      <trkpt lat="47.417382" lon="7.989029">
        <ele>519.420130</ele>
        <time>2021-11-21T10:16:58.971Z</time>
      </trkpt>
      <trkpt lat="47.417566" lon="7.989166">
        <ele>521.355815</ele>
        <time>2021-11-21T10:17:09.951Z</time>
      </trkpt>
      <trkpt lat="47.418513" lon="7.989916">
        <ele>531.449895</ele>
        <time>2021-11-21T10:18:10.897Z</time>
      </trkpt>
      <trkpt lat="47.418705" lon="7.990069">
        <ele>533.543128</ele>
        <time>2021-11-21T10:18:21.482Z</time>
      </trkpt>
      <trkpt lat="47.418912" lon="7.990235">
        <ele>535.847308</ele>
        <time>2021-11-21T10:18:37.390Z</time>
      </trkpt>
      <trkpt lat="47.419400" lon="7.990631">
        <ele>541.294147</ele>
        <time>2021-11-21T10:19:07.567Z</time>
      </trkpt>
      <trkpt lat="47.419679" lon="7.990928">
        <ele>544.658188</ele>
        <time>2021-11-21T10:19:24.722Z</time>
      </trkpt>
      <trkpt lat="47.419718" lon="7.990996">
        <ele>545.248301</ele>
        <time>2021-11-21T10:19:30.415Z</time>
      </trkpt>
      <trkpt lat="47.419738" lon="7.991038">
        <ele>545.588291</ele>
        <time>2021-11-21T10:19:31.703Z</time>
      </trkpt>
      <trkpt lat="47.419820" lon="7.991499">
        <ele>548.743765</ele>
        <time>2021-11-21T10:19:48.020Z</time>
      </trkpt>
      <trkpt lat="47.419715" lon="7.992327">
        <ele>553.822393</ele>
        <time>2021-11-21T10:20:15.785Z</time>
      </trkpt>
      <trkpt lat="47.419740" lon="7.992744">
        <ele>556.271502</ele>
        <time>2021-11-21T10:20:30.682Z</time>
      </trkpt>
      <trkpt lat="47.419883" lon="7.993141">
        <ele>558.902646</ele>
        <time>2021-11-21T10:20:46.191Z</time>
      </trkpt>
      <trkpt lat="47.420316" lon="7.993737">
        <ele>564.018645</ele>
        <time>2021-11-21T10:21:11.616Z</time>
      </trkpt>
      <trkpt lat="47.420355" lon="7.993802">
        <ele>564.526882</ele>
        <time>2021-11-21T10:21:16.595Z</time>
      </trkpt>
      <trkpt lat="47.420739" lon="7.994556">
        <ele>571.314403</ele>
        <time>2021-11-21T10:21:47.944Z</time>
      </trkpt>
      <trkpt lat="47.420938" lon="7.994912">
        <ele>574.783071</ele>
        <time>2021-11-21T10:22:05.804Z</time>
      </trkpt>
      <trkpt lat="47.421186" lon="7.995163">
        <ele>578.119989</ele>
        <time>2021-11-21T10:22:27.672Z</time>
      </trkpt>
      <trkpt lat="47.421448" lon="7.995189">
        <ele>581.035201</ele>
        <time>2021-11-21T10:22:43.847Z</time>
      </trkpt>
      <trkpt lat="47.422055" lon="7.994874">
        <ele>588.262760</ele>
        <time>2021-11-21T10:23:24.791Z</time>
      </trkpt>
      <trkpt lat="47.422322" lon="7.994923">
        <ele>591.347085</ele>
        <time>2021-11-21T10:23:42.224Z</time>
      </trkpt>
      <trkpt lat="47.422492" lon="7.995090">
        <ele>593.687116</ele>
        <time>2021-11-21T10:23:52.515Z</time>
      </trkpt>
      <trkpt lat="47.422522" lon="7.995131">
        <ele>594.155520</ele>
        <time>2021-11-21T10:23:56.944Z</time>
      </trkpt>
      <trkpt lat="47.422611" lon="7.995359">
        <ele>596.197150</ele>
        <time>2021-11-21T10:24:05.680Z</time>
      </trkpt>
      <trkpt lat="47.422741" lon="7.996312">
        <ele>603.737539</ele>
        <time>2021-11-21T10:24:45.243Z</time>
      </trkpt>
      <trkpt lat="47.423493" lon="7.997325">
        <ele>615.446441</ele>
        <time>2021-11-21T10:25:44.560Z</time>
      </trkpt>
      <trkpt lat="47.423739" lon="7.997914">
        <ele>620.841216</ele>
        <time>2021-11-21T10:26:11.630Z</time>
      </trkpt>
      <trkpt lat="47.423827" lon="7.998389">
        <ele>624.679544</ele>
        <time>2021-11-21T10:26:32.725Z</time>
      </trkpt>
      <trkpt lat="47.423910" lon="7.999342">
        <ele>633.748339</ele>
        <time>2021-11-21T10:27:16.537Z</time>
      </trkpt>
      <trkpt lat="47.424255" lon="8.000417">
        <ele>645.799792</ele>
        <time>2021-11-21T10:28:21.098Z</time>
      </trkpt>
      <trkpt lat="47.424533" lon="8.002308">
        <ele>662.495269</ele>
        <time>2021-11-21T10:30:00.427Z</time>
      </trkpt>
      <trkpt lat="47.424554" lon="8.002464">
        <ele>663.702099</ele>
        <time>2021-11-21T10:30:10.847Z</time>
      </trkpt>
      <trkpt lat="47.424559" lon="8.002506">
        <ele>664.025664</ele>
        <time>2021-11-21T10:30:11.281Z</time>
      </trkpt>
      <trkpt lat="47.424743" lon="8.004017">
        <ele>673.963108</ele>
        <time>2021-11-21T10:31:02.219Z</time>
      </trkpt>
      <trkpt lat="47.424829" lon="8.004199">
        <ele>673.932853</ele>
        <time>2021-11-21T10:31:03.460Z</time>
      </trkpt>
      <trkpt lat="47.424958" lon="8.004297">
        <ele>673.903636</ele>
        <time>2021-11-21T10:31:18.376Z</time>
      </trkpt>
      <trkpt lat="47.425003" lon="8.004300">
        <ele>673.894562</ele>
        <time>2021-11-21T10:31:21.312Z</time>
      </trkpt>
      <trkpt lat="47.425046" lon="8.004288">
        <ele>673.885747</ele>
        <time>2021-11-21T10:31:21.681Z</time>
      </trkpt>
      <trkpt lat="47.425181" lon="8.004177">
        <ele>673.854628</ele>
        <time>2021-11-21T10:31:22.993Z</time>
      </trkpt>
      <trkpt lat="47.425237" lon="8.004043">
        <ele>673.833163</ele>
        <time>2021-11-21T10:31:31.991Z</time>
      </trkpt>
      <trkpt lat="47.425435" lon="8.002187">
        <ele>673.312722</ele>
        <time>2021-11-21T10:31:44.365Z</time>
      </trkpt>
      <trkpt lat="47.425404" lon="8.001972">
        <ele>673.135795</ele>
        <time>2021-11-21T10:31:45.876Z</time>
      </trkpt>
      <trkpt lat="47.425173" lon="8.001272">
        <ele>672.508956</ele>
        <time>2021-11-21T10:31:51.687Z</time>
      </trkpt>
      <trkpt lat="47.425088" lon="8.000815">
        <ele>672.127494</ele>
        <time>2021-11-21T10:31:56.015Z</time>
      </trkpt>
      <trkpt lat="47.425059" lon="8.000259">
        <ele>671.678670</ele>
        <time>2021-11-21T10:32:02.504Z</time>
      </trkpt>
      <trkpt lat="47.425127" lon="7.999299">
        <ele>673.966913</ele>
        <time>2021-11-21T10:32:16.251Z</time>
      </trkpt>
      <trkpt lat="47.425108" lon="7.999100">
        <ele>674.646235</ele>
        <time>2021-11-21T10:32:20.929Z</time>
      </trkpt>
      <trkpt lat="47.425056" lon="7.998898">
        <ele>675.376789</ele>
        <time>2021-11-21T10:32:25.106Z</time>
      </trkpt>
      <trkpt lat="47.424895" lon="7.998348">
        <ele>677.402452</ele>
        <time>2021-11-21T10:32:37.302Z</time>
      </trkpt>
      <trkpt lat="47.424738" lon="7.997183">
        <ele>682.545367</ele>
        <time>2021-11-21T10:33:17.817Z</time>
      </trkpt>
      <trkpt lat="47.424702" lon="7.997032">
        <ele>683.735636</ele>
        <time>2021-11-21T10:33:25.422Z</time>
      </trkpt>
      <trkpt lat="47.424674" lon="7.996943">
        <ele>684.465346</ele>
        <time>2021-11-21T10:33:28.683Z</time>
      </trkpt>
      <trkpt lat="47.424582" lon="7.996654">
        <ele>686.839876</ele>
        <time>2021-11-21T10:33:39.952Z</time>
      </trkpt>
      <trkpt lat="47.424477" lon="7.996317">
        <ele>689.598221</ele>
        <time>2021-11-21T10:33:52.667Z</time>
      </trkpt>
      <trkpt lat="47.424460" lon="7.996091">
        <ele>691.288776</ele>
        <time>2021-11-21T10:34:03.911Z</time>
      </trkpt>
      <trkpt lat="47.424477" lon="7.995840">
        <ele>693.164168</ele>
        <time>2021-11-21T10:34:12.556Z</time>
      </trkpt>
      <trkpt lat="47.424630" lon="7.995489">
        <ele>696.268395</ele>
        <time>2021-11-21T10:34:33.570Z</time>
      </trkpt>
      <trkpt lat="47.424872" lon="7.995320">
        <ele>699.209531</ele>
        <time>2021-11-21T10:34:49.998Z</time>
      </trkpt>
      <trkpt lat="47.425494" lon="7.995217">
        <ele>706.652383</ele>
        <time>2021-11-21T10:35:28.402Z</time>
      </trkpt>
      <trkpt lat="47.425660" lon="7.995044">
        <ele>709.100131</ele>
        <time>2021-11-21T10:35:44.176Z</time>
      </trkpt>
      <trkpt lat="47.425783" lon="7.994718">
        <ele>712.143446</ele>
        <time>2021-11-21T10:35:56.468Z</time>
      </trkpt>
      <trkpt lat="47.425804" lon="7.994602">
        <ele>713.122484</ele>
        <time>2021-11-21T10:36:02.579Z</time>
      </trkpt>
      <trkpt lat="47.425818" lon="7.994422">
        <ele>714.599715</ele>
        <time>2021-11-21T10:36:10.633Z</time>
      </trkpt>
      <trkpt lat="47.425771" lon="7.994045">
        <ele>717.725200</ele>
        <time>2021-11-21T10:36:27.565Z</time>
      </trkpt>
      <trkpt lat="47.425777" lon="7.993636">
        <ele>721.060619</ele>
        <time>2021-11-21T10:36:42.900Z</time>
      </trkpt>
      <trkpt lat="47.425816" lon="7.993454">
        <ele>722.542053</ele>
        <time>2021-11-21T10:36:53.171Z</time>
      </trkpt>
      <trkpt lat="47.425870" lon="7.993341">
        <ele>723.548855</ele>
        <time>2021-11-21T10:36:58.961Z</time>
      </trkpt>
      <trkpt lat="47.425963" lon="7.993206">
        <ele>724.950977</ele>
        <time>2021-11-21T10:37:05.797Z</time>
      </trkpt>
      <trkpt lat="47.426028" lon="7.993134">
        <ele>725.824707</ele>
        <time>2021-11-21T10:37:12.136Z</time>
      </trkpt>
      <trkpt lat="47.426028" lon="7.993134">
        <ele>725.824707</ele>
        <time>2021-11-21T10:37:12.509Z</time>
      </trkpt>
      <trkpt lat="47.426113" lon="7.993088">
        <ele>726.798382</ele>
        <time>2021-11-21T10:37:17.707Z</time>
      </trkpt>
      <trkpt lat="47.426466" lon="7.993064">
        <ele>730.599513</ele>
        <time>2021-11-21T10:37:39.506Z</time>
      </trkpt>
      <trkpt lat="47.426829" lon="7.993140">
        <ele>734.543171</ele>
        <time>2021-11-21T10:38:00.206Z</time>
      </trkpt>
      <trkpt lat="47.427455" lon="7.993289">
        <ele>741.322294</ele>
        <time>2021-11-21T10:38:34.737Z</time>
      </trkpt>
      <trkpt lat="47.427837" lon="7.993254">
        <ele>743.705019</ele>
        <time>2021-11-21T10:38:52.402Z</time>
      </trkpt>
      <trkpt lat="47.428028" lon="7.993079">
        <ele>745.104001</ele>
        <time>2021-11-21T10:39:02.172Z</time>
      </trkpt>
      <trkpt lat="47.428129" lon="7.992884">
        <ele>746.138343</ele>
        <time>2021-11-21T10:39:08.673Z</time>
      </trkpt>
      <trkpt lat="47.428176" lon="7.992702">
        <ele>746.958816</ele>
        <time>2021-11-21T10:39:13.945Z</time>
      </trkpt>
      <trkpt lat="47.428198" lon="7.992515">
        <ele>747.758219</ele>
        <time>2021-11-21T10:39:18.046Z</time>
      </trkpt>
      <trkpt lat="47.428198" lon="7.992286">
        <ele>748.722692</ele>
        <time>2021-11-21T10:39:23.278Z</time>
      </trkpt>
      <trkpt lat="47.428179" lon="7.991656">
        <ele>751.378681</ele>
        <time>2021-11-21T10:39:38.372Z</time>
      </trkpt>
      <trkpt lat="47.428177" lon="7.991445">
        <ele>752.267431</ele>
        <time>2021-11-21T10:39:42.571Z</time>
      </trkpt>
      <trkpt lat="47.428160" lon="7.991096">
        <ele>753.884619</ele>
        <time>2021-11-21T10:39:50.786Z</time>
      </trkpt>
      <trkpt lat="47.428136" lon="7.990193">
        <ele>758.118076</ele>
        <time>2021-11-21T10:40:10.234Z</time>
      </trkpt>
      <trkpt lat="47.428133" lon="7.989996">
        <ele>759.041176</ele>
        <time>2021-11-21T10:40:16.456Z</time>
      </trkpt>
      <trkpt lat="47.428196" lon="7.988995">
        <ele>763.750708</ele>
        <time>2021-11-21T10:40:49.695Z</time>
      </trkpt>
      <trkpt lat="47.428340" lon="7.988229">
        <ele>768.592722</ele>
        <time>2021-11-21T10:41:18.017Z</time>
      </trkpt>
      <trkpt lat="47.428505" lon="7.987540">
        <ele>773.513188</ele>
        <time>2021-11-21T10:41:49.664Z</time>
      </trkpt>
      <trkpt lat="47.428588" lon="7.987191">
        <ele>776.003640</ele>
        <time>2021-11-21T10:42:03.494Z</time>
      </trkpt>
      <trkpt lat="47.428625" lon="7.987034">
        <ele>777.122874</ele>
        <time>2021-11-21T10:42:11.907Z</time>
      </trkpt>
      <trkpt lat="47.428661" lon="7.986875">
        <ele>778.251633</ele>
        <time>2021-11-21T10:42:15.734Z</time>
      </trkpt>
      <trkpt lat="47.428672" lon="7.986831">
        <ele>778.567424</ele>
        <time>2021-11-21T10:42:18.245Z</time>
      </trkpt>
      <trkpt lat="47.428725" lon="7.986611">
        <ele>780.139586</ele>
        <time>2021-11-21T10:42:28.962Z</time>
      </trkpt>
      <trkpt lat="47.428769" lon="7.986424">
        <ele>781.472455</ele>
        <time>2021-11-21T10:42:33.376Z</time>
      </trkpt>
      <trkpt lat="47.428790" lon="7.986347">
        <ele>782.031362</ele>
        <time>2021-11-21T10:42:36.746Z</time>
      </trkpt>
      <trkpt lat="47.428874" lon="7.986072">
        <ele>782.910923</ele>
        <time>2021-11-21T10:42:50.098Z</time>
      </trkpt>
      <trkpt lat="47.428926" lon="7.985968">
        <ele>782.976766</ele>
        <time>2021-11-21T10:42:51.109Z</time>
      </trkpt>
      <trkpt lat="47.429061" lon="7.985728">
        <ele>783.135682</ele>
        <time>2021-11-21T10:43:03.152Z</time>
      </trkpt>
      <trkpt lat="47.429168" lon="7.985548">
        <ele>783.257681</ele>
        <time>2021-11-21T10:43:04.721Z</time>
      </trkpt>
      <trkpt lat="47.429235" lon="7.985450">
        <ele>783.328619</ele>
        <time>2021-11-21T10:43:10.077Z</time>
      </trkpt>
      <trkpt lat="47.429305" lon="7.985346">
        <ele>783.403313</ele>
        <time>2021-11-21T10:43:11.414Z</time>
      </trkpt>
      <trkpt lat="47.429731" lon="7.984658">
        <ele>783.878171</ele>
        <time>2021-11-21T10:43:18.801Z</time>
      </trkpt>
      <trkpt lat="47.429895" lon="7.984539">
        <ele>784.015667</ele>
        <time>2021-11-21T10:43:20.374Z</time>
      </trkpt>
      <trkpt lat="47.430199" lon="7.984483">
        <ele>783.498897</ele>
        <time>2021-11-21T10:43:24.177Z</time>
      </trkpt>
      <trkpt lat="47.430233" lon="7.984472">
        <ele>783.267064</ele>
        <time>2021-11-21T10:43:24.466Z</time>
      </trkpt>
      <trkpt lat="47.430267" lon="7.984456">
        <ele>783.029392</ele>
        <time>2021-11-21T10:43:24.765Z</time>
      </trkpt>
      <trkpt lat="47.430461" lon="7.984320">
        <ele>781.599217</ele>
        <time>2021-11-21T10:43:27.352Z</time>
      </trkpt>
      <trkpt lat="47.430499" lon="7.984297">
        <ele>781.325704</ele>
        <time>2021-11-21T10:43:27.687Z</time>
      </trkpt>
      <trkpt lat="47.431170" lon="7.984115">
        <ele>776.781583</ele>
        <time>2021-11-21T10:43:33.725Z</time>
      </trkpt>
      <trkpt lat="47.431322" lon="7.983937">
        <ele>775.489920</ele>
        <time>2021-11-21T10:43:35.392Z</time>
      </trkpt>
      <trkpt lat="47.431475" lon="7.983571">
        <ele>773.551256</ele>
        <time>2021-11-21T10:43:37.971Z</time>
      </trkpt>
      <trkpt lat="47.431599" lon="7.983256">
        <ele>772.015320</ele>
        <time>2021-11-21T10:43:40.216Z</time>
      </trkpt>
      <trkpt lat="47.431777" lon="7.982815">
        <ele>770.577651</ele>
        <time>2021-11-21T10:43:43.576Z</time>
      </trkpt>
      <trkpt lat="47.431846" lon="7.982640">
        <ele>770.010586</ele>
        <time>2021-11-21T10:43:45.093Z</time>
      </trkpt>
      <trkpt lat="47.431868" lon="7.982566">
        <ele>769.784296</ele>
        <time>2021-11-21T10:43:45.676Z</time>
      </trkpt>
      <trkpt lat="47.431877" lon="7.982519">
        <ele>769.647547</ele>
        <time>2021-11-21T10:43:45.988Z</time>
      </trkpt>
      <trkpt lat="47.431888" lon="7.982446">
        <ele>769.438172</ele>
        <time>2021-11-21T10:43:46.431Z</time>
      </trkpt>
      <trkpt lat="47.431828" lon="7.981811">
        <ele>767.643206</ele>
        <time>2021-11-21T10:43:50.822Z</time>
      </trkpt>
      <trkpt lat="47.431857" lon="7.981543">
        <ele>766.883390</ele>
        <time>2021-11-21T10:43:52.861Z</time>
      </trkpt>
      <trkpt lat="47.431876" lon="7.981495">
        <ele>766.727697</ele>
        <time>2021-11-21T10:43:53.243Z</time>
      </trkpt>
      <trkpt lat="47.431915" lon="7.981428">
        <ele>766.480246</ele>
        <time>2021-11-21T10:43:53.762Z</time>
      </trkpt>
      <trkpt lat="47.432020" lon="7.981325">
        <ele>765.958737</ele>
        <time>2021-11-21T10:43:54.945Z</time>
      </trkpt>
      <trkpt lat="47.432188" lon="7.981293">
        <ele>765.257725</ele>
        <time>2021-11-21T10:43:56.901Z</time>
      </trkpt>
      <trkpt lat="47.433123" lon="7.981545">
        <ele>761.254356</ele>
        <time>2021-11-21T10:44:06.143Z</time>
      </trkpt>
      <trkpt lat="47.433227" lon="7.981456">
        <ele>760.746850</ele>
        <time>2021-11-21T10:44:07.504Z</time>
      </trkpt>
      <trkpt lat="47.433251" lon="7.981321">
        <ele>760.348081</ele>
        <time>2021-11-21T10:44:08.360Z</time>
      </trkpt>
      <trkpt lat="47.433244" lon="7.981277">
        <ele>760.218951</ele>
        <time>2021-11-21T10:44:08.617Z</time>
      </trkpt>
      <trkpt lat="47.433235" lon="7.981249">
        <ele>760.130388</ele>
        <time>2021-11-21T10:44:08.799Z</time>
      </trkpt>
      <trkpt lat="47.433139" lon="7.981160">
        <ele>759.651824</ele>
        <time>2021-11-21T10:44:09.946Z</time>
      </trkpt>
      <trkpt lat="47.432724" lon="7.981066">
        <ele>757.878710</ele>
        <time>2021-11-21T10:44:14.075Z</time>
      </trkpt>
      <trkpt lat="47.432171" lon="7.980388">
        <ele>753.645291</ele>
        <time>2021-11-21T10:44:20.902Z</time>
      </trkpt>
      <trkpt lat="47.432096" lon="7.980282">
        <ele>752.979111</ele>
        <time>2021-11-21T10:44:21.940Z</time>
      </trkpt>
      <trkpt lat="47.432006" lon="7.980108">
        <ele>752.027822</ele>
        <time>2021-11-21T10:44:23.235Z</time>
      </trkpt>
      <trkpt lat="47.431692" lon="7.978805">
        <ele>746.020431</ele>
        <time>2021-11-21T10:44:31.729Z</time>
      </trkpt>
      <trkpt lat="47.431606" lon="7.978215">
        <ele>741.636770</ele>
        <time>2021-11-21T10:44:35.260Z</time>
      </trkpt>
      <trkpt lat="47.431600" lon="7.977440">
        <ele>735.577638</ele>
        <time>2021-11-21T10:44:39.716Z</time>
      </trkpt>
      <trkpt lat="47.431738" lon="7.976680">
        <ele>729.425857</ele>
        <time>2021-11-21T10:44:44.209Z</time>
      </trkpt>
      <trkpt lat="47.431696" lon="7.976161">
        <ele>725.339538</ele>
        <time>2021-11-21T10:44:47.183Z</time>
      </trkpt>
      <trkpt lat="47.431567" lon="7.975556">
        <ele>719.394838</ele>
        <time>2021-11-21T10:44:50.743Z</time>
      </trkpt>
      <trkpt lat="47.431648" lon="7.975443">
        <ele>717.821715</ele>
        <time>2021-11-21T10:44:51.682Z</time>
      </trkpt>
      <trkpt lat="47.431773" lon="7.975449">
        <ele>716.055204</ele>
        <time>2021-11-21T10:44:52.712Z</time>
      </trkpt>
      <trkpt lat="47.432098" lon="7.976005">
        <ele>709.034143</ele>
        <time>2021-11-21T10:44:56.846Z</time>
      </trkpt>
      <trkpt lat="47.432203" lon="7.976081">
        <ele>707.382821</ele>
        <time>2021-11-21T10:44:57.846Z</time>
      </trkpt>
      <trkpt lat="47.432376" lon="7.976074">
        <ele>704.938342</ele>
        <time>2021-11-21T10:44:59.262Z</time>
      </trkpt>
      <trkpt lat="47.432536" lon="7.975879">
        <ele>702.009390</ele>
        <time>2021-11-21T10:45:01.047Z</time>
      </trkpt>
      <trkpt lat="47.432583" lon="7.975764">
        <ele>700.725625</ele>
        <time>2021-11-21T10:45:01.786Z</time>
      </trkpt>
      <trkpt lat="47.432600" lon="7.975672">
        <ele>699.814385</ele>
        <time>2021-11-21T10:45:02.334Z</time>
      </trkpt>
      <trkpt lat="47.432621" lon="7.975362">
        <ele>697.356259</ele>
        <time>2021-11-21T10:45:04.161Z</time>
      </trkpt>
      <trkpt lat="47.432566" lon="7.974989">
        <ele>694.443911</ele>
        <time>2021-11-21T10:45:06.335Z</time>
      </trkpt>
      <trkpt lat="47.432533" lon="7.974869">
        <ele>693.455703</ele>
        <time>2021-11-21T10:45:07.098Z</time>
      </trkpt>
      <trkpt lat="47.432488" lon="7.974763">
        <ele>692.500998</ele>
        <time>2021-11-21T10:45:07.792Z</time>
      </trkpt>
      <trkpt lat="47.432052" lon="7.973957">
        <ele>684.627946</ele>
        <time>2021-11-21T10:45:13.713Z</time>
      </trkpt>
      <trkpt lat="47.431630" lon="7.972434">
        <ele>674.961388</ele>
        <time>2021-11-21T10:45:23.453Z</time>
      </trkpt>
      <trkpt lat="47.431599" lon="7.972246">
        <ele>674.089771</ele>
        <time>2021-11-21T10:45:24.610Z</time>
      </trkpt>
      <trkpt lat="47.431594" lon="7.972217">
        <ele>673.954968</ele>
        <time>2021-11-21T10:45:24.775Z</time>
      </trkpt>
      <trkpt lat="47.431585" lon="7.971539">
        <ele>670.900413</ele>
        <time>2021-11-21T10:45:29.042Z</time>
      </trkpt>
      <trkpt lat="47.431712" lon="7.971054">
        <ele>668.557832</ele>
        <time>2021-11-21T10:45:32.324Z</time>
      </trkpt>
      <trkpt lat="47.431927" lon="7.970836">
        <ele>667.036855</ele>
        <time>2021-11-21T10:45:34.778Z</time>
      </trkpt>
      <trkpt lat="47.432214" lon="7.970755">
        <ele>666.366628</ele>
        <time>2021-11-21T10:45:37.785Z</time>
      </trkpt>
      <trkpt lat="47.432959" lon="7.971039">
        <ele>664.601801</ele>
        <time>2021-11-21T10:45:46.925Z</time>
      </trkpt>
      <trkpt lat="47.433359" lon="7.971344">
        <ele>663.569396</ele>
        <time>2021-11-21T10:45:52.470Z</time>
      </trkpt>
      <trkpt lat="47.433652" lon="7.971751">
        <ele>661.601428</ele>
        <time>2021-11-21T10:45:57.700Z</time>
      </trkpt>
      <trkpt lat="47.433985" lon="7.972481">
        <ele>656.444575</ele>
        <time>2021-11-21T10:46:03.052Z</time>
      </trkpt>
      <trkpt lat="47.433999" lon="7.972513">
        <ele>656.221372</ele>
        <time>2021-11-21T10:46:03.274Z</time>
      </trkpt>
      <trkpt lat="47.434066" lon="7.972679">
        <ele>655.089217</ele>
        <time>2021-11-21T10:46:04.543Z</time>
      </trkpt>
      <trkpt lat="47.434139" lon="7.972983">
        <ele>653.199875</ele>
        <time>2021-11-21T10:46:06.410Z</time>
      </trkpt>
      <trkpt lat="47.434124" lon="7.973362">
        <ele>650.976335</ele>
        <time>2021-11-21T10:46:08.601Z</time>
      </trkpt>
      <trkpt lat="47.434160" lon="7.973499">
        <ele>650.115531</ele>
        <time>2021-11-21T10:46:09.451Z</time>
      </trkpt>
      <trkpt lat="47.434197" lon="7.973559">
        <ele>649.640011</ele>
        <time>2021-11-21T10:46:09.911Z</time>
      </trkpt>
      <trkpt lat="47.434245" lon="7.973591">
        <ele>649.184105</ele>
        <time>2021-11-21T10:46:10.356Z</time>
      </trkpt>
      <trkpt lat="47.434264" lon="7.973594">
        <ele>649.018660</ele>
        <time>2021-11-21T10:46:10.526Z</time>
      </trkpt>
      <trkpt lat="47.434299" lon="7.973598">
        <ele>648.714713</ele>
        <time>2021-11-21T10:46:10.829Z</time>
      </trkpt>
      <trkpt lat="47.434340" lon="7.973566">
        <ele>648.313283</ele>
        <time>2021-11-21T10:46:11.249Z</time>
      </trkpt>
      <trkpt lat="47.434376" lon="7.973524">
        <ele>647.916210</ele>
        <time>2021-11-21T10:46:11.635Z</time>
      </trkpt>
      <trkpt lat="47.434644" lon="7.972421">
        <ele>634.417757</ele>
        <time>2021-11-21T10:46:18.190Z</time>
      </trkpt>
      <trkpt lat="47.434713" lon="7.971956">
        <ele>628.738765</ele>
        <time>2021-11-21T10:46:20.821Z</time>
      </trkpt>
      <trkpt lat="47.434732" lon="7.971724">
        <ele>625.950976</ele>
        <time>2021-11-21T10:46:22.109Z</time>
      </trkpt>
      <trkpt lat="47.434760" lon="7.971172">
        <ele>619.347562</ele>
        <time>2021-11-21T10:46:25.167Z</time>
      </trkpt>
      <trkpt lat="47.434817" lon="7.970756">
        <ele>614.740293</ele>
        <time>2021-11-21T10:46:27.563Z</time>
      </trkpt>
      <trkpt lat="47.434835" lon="7.970711">
        <ele>614.313287</ele>
        <time>2021-11-21T10:46:27.855Z</time>
      </trkpt>
      <trkpt lat="47.434854" lon="7.970659">
        <ele>613.830558</ele>
        <time>2021-11-21T10:46:28.187Z</time>
      </trkpt>
      <trkpt lat="47.435033" lon="7.970303">
        <ele>610.207491</ele>
        <time>2021-11-21T10:46:30.699Z</time>
      </trkpt>
      <trkpt lat="47.435217" lon="7.969930">
        <ele>606.436822</ele>
        <time>2021-11-21T10:46:33.291Z</time>
      </trkpt>
      <trkpt lat="47.435499" lon="7.969359">
        <ele>600.662251</ele>
        <time>2021-11-21T10:46:37.333Z</time>
      </trkpt>
      <trkpt lat="47.435592" lon="7.969165">
        <ele>598.720139</ele>
        <time>2021-11-21T10:46:38.804Z</time>
      </trkpt>
      <trkpt lat="47.435622" lon="7.969103">
        <ele>598.097515</ele>
        <time>2021-11-21T10:46:39.264Z</time>
      </trkpt>
      <trkpt lat="47.435945" lon="7.968713">
        <ele>593.556083</ele>
        <time>2021-11-21T10:46:43.019Z</time>
      </trkpt>
      <trkpt lat="47.436171" lon="7.968569">
        <ele>592.129950</ele>
        <time>2021-11-21T10:46:45.300Z</time>
      </trkpt>
      <trkpt lat="47.436210" lon="7.968545">
        <ele>591.885146</ele>
        <time>2021-11-21T10:46:45.676Z</time>
      </trkpt>
      <trkpt lat="47.436240" lon="7.968528">
        <ele>591.698962</ele>
        <time>2021-11-21T10:46:45.969Z</time>
      </trkpt>
      <trkpt lat="47.436435" lon="7.968422">
        <ele>590.494967</ele>
        <time>2021-11-21T10:46:48.056Z</time>
      </trkpt>
      <trkpt lat="47.436936" lon="7.968257">
        <ele>587.520497</ele>
        <time>2021-11-21T10:46:52.873Z</time>
      </trkpt>
      <trkpt lat="47.437006" lon="7.968207">
        <ele>587.069981</ele>
        <time>2021-11-21T10:46:54.760Z</time>
      </trkpt>
      <trkpt lat="47.437098" lon="7.968128">
        <ele>586.453435</ele>
        <time>2021-11-21T10:46:55.719Z</time>
      </trkpt>
      <trkpt lat="47.437561" lon="7.967616">
        <ele>582.732377</ele>
        <time>2021-11-21T10:47:01.028Z</time>
      </trkpt>
      <trkpt lat="47.437738" lon="7.967468">
        <ele>580.656137</ele>
        <time>2021-11-21T10:47:02.820Z</time>
      </trkpt>
      <trkpt lat="47.438044" lon="7.967266">
        <ele>577.234482</ele>
        <time>2021-11-21T10:47:05.751Z</time>
      </trkpt>
      <trkpt lat="47.438462" lon="7.967152">
        <ele>572.894566</ele>
        <time>2021-11-21T10:47:09.381Z</time>
      </trkpt>
      <trkpt lat="47.438609" lon="7.967099">
        <ele>571.349665</ele>
        <time>2021-11-21T10:47:10.695Z</time>
      </trkpt>
      <trkpt lat="47.438790" lon="7.967000">
        <ele>569.379186</ele>
        <time>2021-11-21T10:47:12.289Z</time>
      </trkpt>
      <trkpt lat="47.439287" lon="7.966643">
        <ele>563.580432</ele>
        <time>2021-11-21T10:47:16.964Z</time>
      </trkpt>
      <trkpt lat="47.439547" lon="7.966322">
        <ele>559.756645</ele>
        <time>2021-11-21T10:47:19.842Z</time>
      </trkpt>
      <trkpt lat="47.439608" lon="7.966261">
        <ele>558.925324</ele>
        <time>2021-11-21T10:47:20.444Z</time>
      </trkpt>
      <trkpt lat="47.439678" lon="7.966197">
        <ele>557.996240</ele>
        <time>2021-11-21T10:47:21.139Z</time>
      </trkpt>
      <trkpt lat="47.439737" lon="7.966170">
        <ele>557.299040</ele>
        <time>2021-11-21T10:47:21.676Z</time>
      </trkpt>
      <trkpt lat="47.439807" lon="7.966143">
        <ele>556.482393</ele>
        <time>2021-11-21T10:47:22.314Z</time>
      </trkpt>
      <trkpt lat="47.439942" lon="7.966121">
        <ele>554.949207</ele>
        <time>2021-11-21T10:47:23.444Z</time>
      </trkpt>
      <trkpt lat="47.440012" lon="7.966095">
        <ele>554.134454</ele>
        <time>2021-11-21T10:47:24.031Z</time>
      </trkpt>
      <trkpt lat="47.440543" lon="7.965818">
        <ele>547.778065</ele>
        <time>2021-11-21T10:47:28.951Z</time>
      </trkpt>
      <trkpt lat="47.440933" lon="7.965666">
        <ele>543.752763</ele>
        <time>2021-11-21T10:47:32.410Z</time>
      </trkpt>
      <trkpt lat="47.441204" lon="7.965554">
        <ele>541.565034</ele>
        <time>2021-11-21T10:47:34.835Z</time>
      </trkpt>
      <trkpt lat="47.441328" lon="7.965473">
        <ele>540.511064</ele>
        <time>2021-11-21T10:47:36.053Z</time>
      </trkpt>
      <trkpt lat="47.441371" lon="7.965446">
        <ele>540.147850</ele>
        <time>2021-11-21T10:47:36.432Z</time>
      </trkpt>
      <trkpt lat="47.442282" lon="7.964392">
        <ele>531.154310</ele>
        <time>2021-11-21T10:47:46.844Z</time>
      </trkpt>
      <trkpt lat="47.443115" lon="7.964042">
        <ele>526.532593</ele>
        <time>2021-11-21T10:47:54.949Z</time>
      </trkpt>
      <trkpt lat="47.443282" lon="7.963930">
        <ele>525.568888</ele>
        <time>2021-11-21T10:47:56.703Z</time>
      </trkpt>
      <trkpt lat="47.443323" lon="7.963902">
        <ele>525.331546</ele>
        <time>2021-11-21T10:47:57.093Z</time>
      </trkpt>
      <trkpt lat="47.444267" lon="7.962981">
        <ele>519.915541</ele>
        <time>2021-11-21T10:48:07.813Z</time>
      </trkpt>
      <trkpt lat="47.444826" lon="7.962406">
        <ele>517.237921</ele>
        <time>2021-11-21T10:48:14.374Z</time>
      </trkpt>
      <trkpt lat="47.444976" lon="7.962255">
        <ele>516.524385</ele>
        <time>2021-11-21T10:48:16.196Z</time>
      </trkpt>
      <trkpt lat="47.444993" lon="7.962238">
        <ele>516.443687</ele>
        <time>2021-11-21T10:48:16.405Z</time>
      </trkpt>
      <trkpt lat="47.445186" lon="7.962043">
        <ele>515.524536</ele>
        <time>2021-11-21T10:48:18.744Z</time>
      </trkpt>
      <trkpt lat="47.445405" lon="7.961813">
        <ele>514.468291</ele>
        <time>2021-11-21T10:48:21.510Z</time>
      </trkpt>
      <trkpt lat="47.445632" lon="7.961583">
        <ele>514.152253</ele>
        <time>2021-11-21T10:48:24.383Z</time>
      </trkpt>
      <trkpt lat="47.445731" lon="7.961482">
        <ele>514.032775</ele>
        <time>2021-11-21T10:48:25.627Z</time>
      </trkpt>
      <trkpt lat="47.446265" lon="7.961081">
        <ele>513.437842</ele>
        <time>2021-11-21T10:48:32.513Z</time>
      </trkpt>
      <trkpt lat="47.446978" lon="7.960776">
        <ele>512.700542</ele>
        <time>2021-11-21T10:48:43.143Z</time>
      </trkpt>
      <trkpt lat="47.448152" lon="7.960399">
        <ele>513.376310</ele>
        <time>2021-11-21T10:49:08.417Z</time>
      </trkpt>
      <trkpt lat="47.449168" lon="7.960272">
        <ele>512.930584</ele>
        <time>2021-11-21T10:49:23.258Z</time>
      </trkpt>
      <trkpt lat="47.449207" lon="7.960269">
        <ele>512.829376</ele>
        <time>2021-11-21T10:49:24.457Z</time>
      </trkpt>
      <trkpt lat="47.450176" lon="7.960171">
        <ele>510.312285</ele>
        <time>2021-11-21T10:49:34.707Z</time>
      </trkpt>
      <trkpt lat="47.453337" lon="7.959692">
        <ele>494.450187</ele>
        <time>2021-11-21T10:50:04.370Z</time>
      </trkpt>
      <trkpt lat="47.454626" lon="7.959663">
        <ele>487.531778</ele>
        <time>2021-11-21T10:50:16.223Z</time>
      </trkpt>
      <trkpt lat="47.454959" lon="7.959615">
        <ele>485.905304</ele>
        <time>2021-11-21T10:50:19.359Z</time>
      </trkpt>
      <trkpt lat="47.455065" lon="7.959595">
        <ele>485.385833</ele>
        <time>2021-11-21T10:50:20.360Z</time>
      </trkpt>
      <trkpt lat="47.455234" lon="7.959555">
        <ele>484.553824</ele>
        <time>2021-11-21T10:50:22.004Z</time>
      </trkpt>
      <trkpt lat="47.455967" lon="7.959329">
        <ele>480.913902</ele>
        <time>2021-11-21T10:50:29.198Z</time>
      </trkpt>
      <trkpt lat="47.456734" lon="7.959350">
        <ele>478.258198</ele>
        <time>2021-11-21T10:50:36.838Z</time>
      </trkpt>
      <trkpt lat="47.457199" lon="7.959536">
        <ele>476.599882</ele>
        <time>2021-11-21T10:50:41.807Z</time>
      </trkpt>
      <trkpt lat="47.458898" lon="7.960485">
        <ele>470.614177</ele>
        <time>2021-11-21T10:51:00.012Z</time>
      </trkpt>
      <trkpt lat="47.459074" lon="7.960615">
        <ele>469.978666</ele>
        <time>2021-11-21T10:51:01.982Z</time>
      </trkpt>
      <trkpt lat="47.459280" lon="7.960788">
        <ele>469.213409</ele>
        <time>2021-11-21T10:51:04.456Z</time>
      </trkpt>
      <trkpt lat="47.459416" lon="7.960954">
        <ele>468.731620</ele>
        <time>2021-11-21T10:51:06.286Z</time>
      </trkpt>
      <trkpt lat="47.459581" lon="7.961147">
        <ele>468.327009</ele>
        <time>2021-11-21T10:51:08.497Z</time>
      </trkpt>
      <trkpt lat="47.460083" lon="7.961991">
        <ele>466.865193</ele>
        <time>2021-11-21T10:51:16.701Z</time>
      </trkpt>
      <trkpt lat="47.460405" lon="7.962956">
        <ele>465.465785</ele>
        <time>2021-11-21T10:51:25.240Z</time>
      </trkpt>
      <trkpt lat="47.460489" lon="7.963238">
        <ele>465.153465</ele>
        <time>2021-11-21T10:51:27.719Z</time>
      </trkpt>
      <trkpt lat="47.460551" lon="7.963411">
        <ele>464.965777</ele>
        <time>2021-11-21T10:51:29.495Z</time>
      </trkpt>
      <trkpt lat="47.460768" lon="7.963901">
        <ele>464.404289</ele>
        <time>2021-11-21T10:51:34.313Z</time>
      </trkpt>
      <trkpt lat="47.461085" lon="7.964391">
        <ele>463.754207</ele>
        <time>2021-11-21T10:51:39.616Z</time>
      </trkpt>
      <trkpt lat="47.461753" lon="7.965074">
        <ele>462.487456</ele>
        <time>2021-11-21T10:51:48.805Z</time>
      </trkpt>
      <trkpt lat="47.462208" lon="7.965649">
        <ele>461.244765</ele>
        <time>2021-11-21T10:51:55.323Z</time>
      </trkpt>
      <trkpt lat="47.462416" lon="7.966027">
        <ele>460.560549</ele>
        <time>2021-11-21T10:51:58.822Z</time>
      </trkpt>
      <trkpt lat="47.462955" lon="7.967287">
        <ele>458.515539</ele>
        <time>2021-11-21T10:52:09.798Z</time>
      </trkpt>
      <trkpt lat="47.463153" lon="7.967669">
        <ele>457.889986</ele>
        <time>2021-11-21T10:52:13.346Z</time>
      </trkpt>
      <trkpt lat="47.463389" lon="7.968088">
        <ele>457.181250</ele>
        <time>2021-11-21T10:52:17.449Z</time>
      </trkpt>
      <trkpt lat="47.463713" lon="7.968547">
        <ele>456.318862</ele>
        <time>2021-11-21T10:52:22.473Z</time>
      </trkpt>
      <trkpt lat="47.463869" lon="7.968734">
        <ele>455.932879</ele>
        <time>2021-11-21T10:52:24.654Z</time>
      </trkpt>
      <trkpt lat="47.464851" lon="7.969824">
        <ele>453.698310</ele>
        <time>2021-11-21T10:52:38.440Z</time>
      </trkpt>
      <trkpt lat="47.465273" lon="7.970155">
        <ele>452.835350</ele>
        <time>2021-11-21T10:52:43.682Z</time>
      </trkpt>
      <trkpt lat="47.465838" lon="7.970388">
        <ele>451.744335</ele>
        <time>2021-11-21T10:52:50.455Z</time>
      </trkpt>
      <trkpt lat="47.466209" lon="7.970465">
        <ele>451.034040</ele>
        <time>2021-11-21T10:52:54.462Z</time>
      </trkpt>
      <trkpt lat="47.466575" lon="7.970455">
        <ele>450.339997</ele>
        <time>2021-11-21T10:52:58.397Z</time>
      </trkpt>
      <trkpt lat="47.467243" lon="7.970284">
        <ele>449.054665</ele>
        <time>2021-11-21T10:53:05.834Z</time>
      </trkpt>
      <trkpt lat="47.467356" lon="7.970255">
        <ele>449.019068</ele>
        <time>2021-11-21T10:53:07.203Z</time>
      </trkpt>
      <trkpt lat="47.467469" lon="7.970226">
        <ele>449.045708</ele>
        <time>2021-11-21T10:53:08.343Z</time>
      </trkpt>
      <trkpt lat="47.468142" lon="7.970113">
        <ele>449.203034</ele>
        <time>2021-11-21T10:53:17.946Z</time>
      </trkpt>
      <trkpt lat="47.469022" lon="7.970240">
        <ele>449.408410</ele>
        <time>2021-11-21T10:53:33.976Z</time>
      </trkpt>
      <trkpt lat="47.469339" lon="7.970255">
        <ele>449.976642</ele>
        <time>2021-11-21T10:53:41.964Z</time>
      </trkpt>
      <trkpt lat="47.469542" lon="7.970235">
        <ele>450.383057</ele>
        <time>2021-11-21T10:53:47.993Z</time>
      </trkpt>
      <trkpt lat="47.471196" lon="7.969654">
        <ele>451.896056</ele>
        <time>2021-11-21T10:54:28.311Z</time>
      </trkpt>
      <trkpt lat="47.471877" lon="7.969497">
        <ele>449.901589</ele>
        <time>2021-11-21T10:54:35.525Z</time>
      </trkpt>
      <trkpt lat="47.472626" lon="7.969301">
        <ele>447.528482</ele>
        <time>2021-11-21T10:54:42.595Z</time>
      </trkpt>
      <trkpt lat="47.473628" lon="7.969058">
        <ele>439.758950</ele>
        <time>2021-11-21T10:54:51.533Z</time>
      </trkpt>
      <trkpt lat="47.474238" lon="7.968922">
        <ele>435.038589</ele>
        <time>2021-11-21T10:54:56.945Z</time>
      </trkpt>
      <trkpt lat="47.474555" lon="7.968862">
        <ele>433.233168</ele>
        <time>2021-11-21T10:54:59.787Z</time>
      </trkpt>
      <trkpt lat="47.474879" lon="7.968783">
        <ele>431.830396</ele>
        <time>2021-11-21T10:55:02.791Z</time>
      </trkpt>
      <trkpt lat="47.475312" lon="7.968548">
        <ele>429.860126</ele>
        <time>2021-11-21T10:55:07.251Z</time>
      </trkpt>
      <trkpt lat="47.475616" lon="7.968229">
        <ele>428.267982</ele>
        <time>2021-11-21T10:55:11.055Z</time>
      </trkpt>
      <trkpt lat="47.475684" lon="7.968334">
        <ele>427.848100</ele>
        <time>2021-11-21T10:55:12.135Z</time>
      </trkpt>
      <trkpt lat="47.475729" lon="7.968403">
        <ele>427.571246</ele>
        <time>2021-11-21T10:55:12.844Z</time>
      </trkpt>
      <trkpt lat="47.475871" lon="7.968576">
        <ele>426.785436</ele>
        <time>2021-11-21T10:55:14.863Z</time>
      </trkpt>
      <trkpt lat="47.476103" lon="7.968806">
        <ele>426.205590</ele>
        <time>2021-11-21T10:55:17.880Z</time>
      </trkpt>
      <trkpt lat="47.476327" lon="7.969094">
        <ele>425.952675</ele>
        <time>2021-11-21T10:55:21.379Z</time>
      </trkpt>
      <trkpt lat="47.476396" lon="7.969182">
        <ele>425.875037</ele>
        <time>2021-11-21T10:55:22.579Z</time>
      </trkpt>
      <trkpt lat="47.476670" lon="7.969631">
        <ele>425.526580</ele>
        <time>2021-11-21T10:55:27.801Z</time>
      </trkpt>
      <trkpt lat="47.476730" lon="7.969735">
        <ele>425.447817</ele>
        <time>2021-11-21T10:55:29.335Z</time>
      </trkpt>
      <trkpt lat="47.476944" lon="7.970103">
        <ele>425.168180</ele>
        <time>2021-11-21T10:55:34.627Z</time>
      </trkpt>
      <trkpt lat="47.477029" lon="7.970212">
        <ele>425.072316</ele>
        <time>2021-11-21T10:55:36.101Z</time>
      </trkpt>
      <trkpt lat="47.477135" lon="7.970342">
        <ele>424.954977</ele>
        <time>2021-11-21T10:55:38.545Z</time>
      </trkpt>
      <trkpt lat="47.477203" lon="7.970445">
        <ele>424.872040</ele>
        <time>2021-11-21T10:55:39.805Z</time>
      </trkpt>
      <trkpt lat="47.477262" lon="7.970548">
        <ele>424.733437</ele>
        <time>2021-11-21T10:55:40.880Z</time>
      </trkpt>
      <trkpt lat="47.477284" lon="7.970600">
        <ele>424.629299</ele>
        <time>2021-11-21T10:55:41.382Z</time>
      </trkpt>
      <trkpt lat="47.477322" lon="7.970682">
        <ele>424.460526</ele>
        <time>2021-11-21T10:55:42.445Z</time>
      </trkpt>
      <trkpt lat="47.477370" lon="7.970827">
        <ele>424.186449</ele>
        <time>2021-11-21T10:55:43.762Z</time>
      </trkpt>
      <trkpt lat="47.477522" lon="7.971381">
        <ele>423.171496</ele>
        <time>2021-11-21T10:55:48.418Z</time>
      </trkpt>
      <trkpt lat="47.477553" lon="7.971461">
        <ele>423.014959</ele>
        <time>2021-11-21T10:55:49.016Z</time>
      </trkpt>
      <trkpt lat="47.477623" lon="7.971640">
        <ele>422.663910</ele>
        <time>2021-11-21T10:55:50.470Z</time>
      </trkpt>
      <trkpt lat="47.477698" lon="7.971759">
        <ele>422.387708</ele>
        <time>2021-11-21T10:55:51.759Z</time>
      </trkpt>
      <trkpt lat="47.477778" lon="7.971876">
        <ele>422.105192</ele>
        <time>2021-11-21T10:55:52.851Z</time>
      </trkpt>
      <trkpt lat="47.478083" lon="7.972275">
        <ele>421.082680</ele>
        <time>2021-11-21T10:55:56.873Z</time>
      </trkpt>
      <trkpt lat="47.478198" lon="7.972475">
        <ele>420.636944</ele>
        <time>2021-11-21T10:55:58.775Z</time>
      </trkpt>
      <trkpt lat="47.478213" lon="7.972508">
        <ele>420.569437</ele>
        <time>2021-11-21T10:55:59.031Z</time>
      </trkpt>
      <trkpt lat="47.478295" lon="7.972689">
        <ele>420.119757</ele>
        <time>2021-11-21T10:56:00.416Z</time>
      </trkpt>
      <trkpt lat="47.478424" lon="7.973015">
        <ele>419.007190</ele>
        <time>2021-11-21T10:56:02.966Z</time>
      </trkpt>
      <trkpt lat="47.478494" lon="7.973191">
        <ele>418.405756</ele>
        <time>2021-11-21T10:56:04.222Z</time>
      </trkpt>
      <trkpt lat="47.478606" lon="7.973396">
        <ele>417.629415</ele>
        <time>2021-11-21T10:56:06.034Z</time>
      </trkpt>
      <trkpt lat="47.478952" lon="7.973850">
        <ele>415.614224</ele>
        <time>2021-11-21T10:56:10.413Z</time>
      </trkpt>
      <trkpt lat="47.479061" lon="7.974014">
        <ele>414.936813</ele>
        <time>2021-11-21T10:56:11.909Z</time>
      </trkpt>
      <trkpt lat="47.479095" lon="7.974066">
        <ele>414.723731</ele>
        <time>2021-11-21T10:56:12.435Z</time>
      </trkpt>
      <trkpt lat="47.479172" lon="7.974215">
        <ele>414.171333</ele>
        <time>2021-11-21T10:56:13.638Z</time>
      </trkpt>
      <trkpt lat="47.479198" lon="7.974266">
        <ele>413.983194</ele>
        <time>2021-11-21T10:56:14.030Z</time>
      </trkpt>
      <trkpt lat="47.479256" lon="7.974388">
        <ele>413.543906</ele>
        <time>2021-11-21T10:56:14.965Z</time>
      </trkpt>
      <trkpt lat="47.479521" lon="7.975122">
        <ele>411.458745</ele>
        <time>2021-11-21T10:56:20.379Z</time>
      </trkpt>
      <trkpt lat="47.479548" lon="7.975187">
        <ele>411.293699</ele>
        <time>2021-11-21T10:56:20.873Z</time>
      </trkpt>
      <trkpt lat="47.479650" lon="7.975428">
        <ele>410.678565</ele>
        <time>2021-11-21T10:56:22.764Z</time>
      </trkpt>
      <trkpt lat="47.479662" lon="7.975458">
        <ele>410.603152</ele>
        <time>2021-11-21T10:56:23.013Z</time>
      </trkpt>
      <trkpt lat="47.479744" lon="7.975611">
        <ele>410.180738</ele>
        <time>2021-11-21T10:56:24.304Z</time>
      </trkpt>
      <trkpt lat="47.480019" lon="7.976061">
        <ele>408.868334</ele>
        <time>2021-11-21T10:56:28.584Z</time>
      </trkpt>
      <trkpt lat="47.480172" lon="7.976321">
        <ele>408.122568</ele>
        <time>2021-11-21T10:56:31.057Z</time>
      </trkpt>
      <trkpt lat="47.480258" lon="7.976521">
        <ele>407.609776</ele>
        <time>2021-11-21T10:56:32.870Z</time>
      </trkpt>
      <trkpt lat="47.480294" lon="7.976615">
        <ele>407.376054</ele>
        <time>2021-11-21T10:56:33.609Z</time>
      </trkpt>
      <trkpt lat="47.480540" lon="7.977249">
        <ele>406.100108</ele>
        <time>2021-11-21T10:56:38.870Z</time>
      </trkpt>
      <trkpt lat="47.481057" lon="7.978315">
        <ele>404.205585</ele>
        <time>2021-11-21T10:56:48.409Z</time>
      </trkpt>
      <trkpt lat="47.481075" lon="7.978353">
        <ele>404.138582</ele>
        <time>2021-11-21T10:56:48.704Z</time>
      </trkpt>
      <trkpt lat="47.481331" lon="7.978796">
        <ele>403.296981</ele>
        <time>2021-11-21T10:56:53.030Z</time>
      </trkpt>
      <trkpt lat="47.481417" lon="7.978989">
        <ele>402.963189</ele>
        <time>2021-11-21T10:56:54.849Z</time>
      </trkpt>
      <trkpt lat="47.481508" lon="7.979190">
        <ele>402.684208</ele>
        <time>2021-11-21T10:56:56.644Z</time>
      </trkpt>
      <trkpt lat="47.481627" lon="7.979494">
        <ele>402.315940</ele>
        <time>2021-11-21T10:56:59.453Z</time>
      </trkpt>
      <trkpt lat="47.481673" lon="7.979611">
        <ele>402.174049</ele>
        <time>2021-11-21T10:57:00.481Z</time>
      </trkpt>
      <trkpt lat="47.481757" lon="7.979824">
        <ele>401.915535</ele>
        <time>2021-11-21T10:57:02.379Z</time>
      </trkpt>
      <trkpt lat="47.481977" lon="7.980334">
        <ele>401.281301</ele>
        <time>2021-11-21T10:57:07.074Z</time>
      </trkpt>
      <trkpt lat="47.482025" lon="7.980480">
        <ele>401.111107</ele>
        <time>2021-11-21T10:57:08.301Z</time>
      </trkpt>
      <trkpt lat="47.482099" lon="7.980698">
        <ele>400.855381</ele>
        <time>2021-11-21T10:57:10.204Z</time>
      </trkpt>
      <trkpt lat="47.482159" lon="7.980898">
        <ele>400.626003</ele>
        <time>2021-11-21T10:57:11.918Z</time>
      </trkpt>
      <trkpt lat="47.482458" lon="7.981897">
        <ele>399.558464</ele>
        <time>2021-11-21T10:57:20.451Z</time>
      </trkpt>
      <trkpt lat="47.482472" lon="7.981944">
        <ele>399.511600</ele>
        <time>2021-11-21T10:57:20.845Z</time>
      </trkpt>
      <trkpt lat="47.482563" lon="7.982231">
        <ele>399.222353</ele>
        <time>2021-11-21T10:57:23.456Z</time>
      </trkpt>
      <trkpt lat="47.482594" lon="7.982339">
        <ele>399.115294</ele>
        <time>2021-11-21T10:57:24.385Z</time>
      </trkpt>
      <trkpt lat="47.482652" lon="7.982524">
        <ele>398.929222</ele>
        <time>2021-11-21T10:57:25.996Z</time>
      </trkpt>
      <trkpt lat="47.482704" lon="7.982687">
        <ele>398.764764</ele>
        <time>2021-11-21T10:57:27.518Z</time>
      </trkpt>
      <trkpt lat="47.482729" lon="7.982770">
        <ele>398.681854</ele>
        <time>2021-11-21T10:57:28.253Z</time>
      </trkpt>
      <trkpt lat="47.482840" lon="7.983205">
        <ele>398.257613</ele>
        <time>2021-11-21T10:57:32.012Z</time>
      </trkpt>
      <trkpt lat="47.482897" lon="7.983529">
        <ele>397.952145</ele>
        <time>2021-11-21T10:57:34.662Z</time>
      </trkpt>
      <trkpt lat="47.483001" lon="7.984129">
        <ele>397.306606</ele>
        <time>2021-11-21T10:57:39.452Z</time>
      </trkpt>
      <trkpt lat="47.483128" lon="7.984861">
        <ele>396.408279</ele>
        <time>2021-11-21T10:57:45.140Z</time>
      </trkpt>
      <trkpt lat="47.483130" lon="7.984873">
        <ele>396.393588</ele>
        <time>2021-11-21T10:57:45.228Z</time>
      </trkpt>
      <trkpt lat="47.483153" lon="7.984996">
        <ele>396.241887</ele>
        <time>2021-11-21T10:57:46.191Z</time>
      </trkpt>
      <trkpt lat="47.483173" lon="7.985106">
        <ele>396.106484</ele>
        <time>2021-11-21T10:57:47.063Z</time>
      </trkpt>
      <trkpt lat="47.483204" lon="7.985244">
        <ele>395.933622</ele>
        <time>2021-11-21T10:57:48.167Z</time>
      </trkpt>
      <trkpt lat="47.483274" lon="7.985553">
        <ele>395.546236</ele>
        <time>2021-11-21T10:57:50.623Z</time>
      </trkpt>
      <trkpt lat="47.483382" lon="7.985915">
        <ele>395.075873</ele>
        <time>2021-11-21T10:57:53.655Z</time>
      </trkpt>
      <trkpt lat="47.483462" lon="7.986151">
        <ele>394.762035</ele>
        <time>2021-11-21T10:57:55.660Z</time>
      </trkpt>
      <trkpt lat="47.483550" lon="7.986378">
        <ele>394.445231</ele>
        <time>2021-11-21T10:57:57.629Z</time>
      </trkpt>
      <trkpt lat="47.483775" lon="7.986910">
        <ele>393.586257</ele>
        <time>2021-11-21T10:58:02.292Z</time>
      </trkpt>
      <trkpt lat="47.484569" lon="7.988582">
        <ele>390.807061</ele>
        <time>2021-11-21T10:58:17.195Z</time>
      </trkpt>
      <trkpt lat="47.485480" lon="7.990116">
        <ele>388.884922</ele>
        <time>2021-11-21T10:58:33.245Z</time>
      </trkpt>
      <trkpt lat="47.485638" lon="7.990371">
        <ele>388.559296</ele>
        <time>2021-11-21T10:58:36.088Z</time>
      </trkpt>
      <trkpt lat="47.485781" lon="7.990604">
        <ele>388.304330</ele>
        <time>2021-11-21T10:58:38.681Z</time>
      </trkpt>
      <trkpt lat="47.486196" lon="7.991276">
        <ele>387.901613</ele>
        <time>2021-11-21T10:58:46.490Z</time>
      </trkpt>
      <trkpt lat="47.486319" lon="7.991471">
        <ele>387.783610</ele>
        <time>2021-11-21T10:58:48.848Z</time>
      </trkpt>
      <trkpt lat="47.487177" lon="7.992841">
        <ele>386.786875</ele>
        <time>2021-11-21T10:59:05.836Z</time>
      </trkpt>
      <trkpt lat="47.487367" lon="7.993069">
        <ele>386.494374</ele>
        <time>2021-11-21T10:59:08.813Z</time>
      </trkpt>
      <trkpt lat="47.487787" lon="7.993572">
        <ele>385.848301</ele>
        <time>2021-11-21T10:59:15.150Z</time>
      </trkpt>
      <trkpt lat="47.488382" lon="7.994128">
        <ele>385.004323</ele>
        <time>2021-11-21T10:59:23.185Z</time>
      </trkpt>
      <trkpt lat="47.488991" lon="7.994692">
        <ele>383.776529</ele>
        <time>2021-11-21T10:59:31.374Z</time>
      </trkpt>
      <trkpt lat="47.489245" lon="7.994928">
        <ele>383.263973</ele>
        <time>2021-11-21T10:59:34.771Z</time>
      </trkpt>
      <trkpt lat="47.489950" lon="7.995621">
        <ele>381.792222</ele>
        <time>2021-11-21T10:59:44.175Z</time>
      </trkpt>
      <trkpt lat="47.490016" lon="7.995686">
        <ele>381.628448</ele>
        <time>2021-11-21T10:59:45.091Z</time>
      </trkpt>
      <trkpt lat="47.490899" lon="7.996664">
        <ele>379.350060</ele>
        <time>2021-11-21T10:59:57.225Z</time>
      </trkpt>
      <trkpt lat="47.490940" lon="7.996698">
        <ele>379.252972</ele>
        <time>2021-11-21T10:59:57.744Z</time>
      </trkpt>
      <trkpt lat="47.491068" lon="7.996814">
        <ele>378.942911</ele>
        <time>2021-11-21T10:59:59.315Z</time>
      </trkpt>
      <trkpt lat="47.491354" lon="7.997016">
        <ele>378.288258</ele>
        <time>2021-11-21T11:00:02.737Z</time>
      </trkpt>
      <trkpt lat="47.491886" lon="7.997365">
        <ele>377.086451</ele>
        <time>2021-11-21T11:00:08.986Z</time>
      </trkpt>
      <trkpt lat="47.492317" lon="7.997637">
        <ele>376.118801</ele>
        <time>2021-11-21T11:00:13.920Z</time>
      </trkpt>
      <trkpt lat="47.492477" lon="7.997747">
        <ele>375.754457</ele>
        <time>2021-11-21T11:00:15.844Z</time>
      </trkpt>
      <trkpt lat="47.492617" lon="7.997908">
        <ele>375.388302</ele>
        <time>2021-11-21T11:00:17.785Z</time>
      </trkpt>
      <trkpt lat="47.492722" lon="7.998050">
        <ele>375.094558</ele>
        <time>2021-11-21T11:00:19.471Z</time>
      </trkpt>
      <trkpt lat="47.492747" lon="7.998084">
        <ele>375.024439</ele>
        <time>2021-11-21T11:00:19.858Z</time>
      </trkpt>
      <trkpt lat="47.492877" lon="7.998257">
        <ele>374.663389</ele>
        <time>2021-11-21T11:00:21.759Z</time>
      </trkpt>
      <trkpt lat="47.493144" lon="7.998645">
        <ele>374.289682</ele>
        <time>2021-11-21T11:00:26.119Z</time>
      </trkpt>
      <trkpt lat="47.493296" lon="7.998833">
        <ele>374.144737</ele>
        <time>2021-11-21T11:00:28.620Z</time>
      </trkpt>
      <trkpt lat="47.493358" lon="7.998911">
        <ele>374.085195</ele>
        <time>2021-11-21T11:00:29.549Z</time>
      </trkpt>
      <trkpt lat="47.493433" lon="7.998996">
        <ele>374.016074</ele>
        <time>2021-11-21T11:00:30.788Z</time>
      </trkpt>
      <trkpt lat="47.493502" lon="7.999071">
        <ele>373.953432</ele>
        <time>2021-11-21T11:00:31.913Z</time>
      </trkpt>
      <trkpt lat="47.493603" lon="7.999152">
        <ele>373.869377</ele>
        <time>2021-11-21T11:00:33.336Z</time>
      </trkpt>
      <trkpt lat="47.493603" lon="7.999152">
        <ele>373.869377</ele>
        <time>2021-11-21T11:00:33.339Z</time>
      </trkpt>
      <trkpt lat="47.493742" lon="7.999216">
        <ele>373.762860</ele>
        <time>2021-11-21T11:00:35.177Z</time>
      </trkpt>
      <trkpt lat="47.493751" lon="7.999220">
        <ele>373.755984</ele>
        <time>2021-11-21T11:00:35.354Z</time>
      </trkpt>
      <trkpt lat="47.493937" lon="7.999285">
        <ele>373.616143</ele>
        <time>2021-11-21T11:00:37.876Z</time>
      </trkpt>
      <trkpt lat="47.493961" lon="7.999292">
        <ele>373.598244</ele>
        <time>2021-11-21T11:00:38.144Z</time>
      </trkpt>
      <trkpt lat="47.494272" lon="7.999381">
        <ele>373.366467</ele>
        <time>2021-11-21T11:00:42.672Z</time>
      </trkpt>
      <trkpt lat="47.494295" lon="7.999385">
        <ele>373.349521</ele>
        <time>2021-11-21T11:00:42.982Z</time>
      </trkpt>
      <trkpt lat="47.494454" lon="7.999411">
        <ele>373.232471</ele>
        <time>2021-11-21T11:00:45.388Z</time>
      </trkpt>
      <trkpt lat="47.494489" lon="7.999417">
        <ele>373.206690</ele>
        <time>2021-11-21T11:00:45.980Z</time>
      </trkpt>
      <trkpt lat="47.494643" lon="7.999430">
        <ele>373.128515</ele>
        <time>2021-11-21T11:00:48.364Z</time>
      </trkpt>
      <trkpt lat="47.494812" lon="7.999457">
        <ele>373.047834</ele>
        <time>2021-11-21T11:00:50.806Z</time>
      </trkpt>
      <trkpt lat="47.495197" lon="7.999589">
        <ele>372.860257</ele>
        <time>2021-11-21T11:00:56.367Z</time>
      </trkpt>
      <trkpt lat="47.495430" lon="7.999752">
        <ele>372.737933</ele>
        <time>2021-11-21T11:00:59.854Z</time>
      </trkpt>
      <trkpt lat="47.495718" lon="8.000005">
        <ele>372.578971</ele>
        <time>2021-11-21T11:01:04.361Z</time>
      </trkpt>
      <trkpt lat="47.496011" lon="8.000286">
        <ele>372.413256</ele>
        <time>2021-11-21T11:01:08.821Z</time>
      </trkpt>
      <trkpt lat="47.496234" lon="8.000584">
        <ele>372.120381</ele>
        <time>2021-11-21T11:01:12.472Z</time>
      </trkpt>
      <trkpt lat="47.496272" lon="8.000651">
        <ele>372.030520</ele>
        <time>2021-11-21T11:01:13.358Z</time>
      </trkpt>
      <trkpt lat="47.496280" lon="8.000664">
        <ele>372.012456</ele>
        <time>2021-11-21T11:01:13.496Z</time>
      </trkpt>
      <trkpt lat="47.496429" lon="8.000925">
        <ele>371.661448</ele>
        <time>2021-11-21T11:01:16.142Z</time>
      </trkpt>
      <trkpt lat="47.496517" lon="8.001077">
        <ele>371.455822</ele>
        <time>2021-11-21T11:01:17.894Z</time>
      </trkpt>
      <trkpt lat="47.496533" lon="8.001104">
        <ele>371.418929</ele>
        <time>2021-11-21T11:01:18.128Z</time>
      </trkpt>
      <trkpt lat="47.496535" lon="8.001108">
        <ele>371.413817</ele>
        <time>2021-11-21T11:01:18.167Z</time>
      </trkpt>
      <trkpt lat="47.496585" lon="8.001187">
        <ele>371.302619</ele>
        <time>2021-11-21T11:01:18.998Z</time>
      </trkpt>
      <trkpt lat="47.496820" lon="8.001547">
        <ele>370.788400</ele>
        <time>2021-11-21T11:01:22.877Z</time>
      </trkpt>
      <trkpt lat="47.496861" lon="8.001608">
        <ele>370.700012</ele>
        <time>2021-11-21T11:01:23.517Z</time>
      </trkpt>
      <trkpt lat="47.496908" lon="8.001680">
        <ele>370.597168</ele>
        <time>2021-11-21T11:01:24.273Z</time>
      </trkpt>
      <trkpt lat="47.496932" lon="8.001715">
        <ele>370.545941</ele>
        <time>2021-11-21T11:01:24.638Z</time>
      </trkpt>
      <trkpt lat="47.497207" lon="8.002132">
        <ele>369.947348</ele>
        <time>2021-11-21T11:01:28.943Z</time>
      </trkpt>
      <trkpt lat="47.497264" lon="8.002219">
        <ele>369.822859</ele>
        <time>2021-11-21T11:01:29.901Z</time>
      </trkpt>
      <trkpt lat="47.497307" lon="8.002279">
        <ele>369.733009</ele>
        <time>2021-11-21T11:01:30.515Z</time>
      </trkpt>
      <trkpt lat="47.497390" lon="8.002409">
        <ele>369.537857</ele>
        <time>2021-11-21T11:01:31.892Z</time>
      </trkpt>
      <trkpt lat="47.497540" lon="8.002634">
        <ele>369.145601</ele>
        <time>2021-11-21T11:01:34.266Z</time>
      </trkpt>
      <trkpt lat="47.497607" lon="8.002710">
        <ele>368.990557</ele>
        <time>2021-11-21T11:01:35.215Z</time>
      </trkpt>
      <trkpt lat="47.497951" lon="8.003094">
        <ele>368.199175</ele>
        <time>2021-11-21T11:01:40.044Z</time>
      </trkpt>
      <trkpt lat="47.498072" lon="8.003250">
        <ele>367.904442</ele>
        <time>2021-11-21T11:01:41.776Z</time>
      </trkpt>
      <trkpt lat="47.498166" lon="8.003383">
        <ele>367.665595</ele>
        <time>2021-11-21T11:01:43.255Z</time>
      </trkpt>
      <trkpt lat="47.498213" lon="8.003454">
        <ele>367.542247</ele>
        <time>2021-11-21T11:01:44.021Z</time>
      </trkpt>
      <trkpt lat="47.498450" lon="8.003874">
        <ele>366.863185</ele>
        <time>2021-11-21T11:01:48.141Z</time>
      </trkpt>
      <trkpt lat="47.498698" lon="8.004313">
        <ele>366.199279</ele>
        <time>2021-11-21T11:01:52.396Z</time>
      </trkpt>
      <trkpt lat="47.498753" lon="8.004410">
        <ele>366.091374</ele>
        <time>2021-11-21T11:01:53.346Z</time>
      </trkpt>
      <trkpt lat="47.498898" lon="8.004636">
        <ele>365.825803</ele>
        <time>2021-11-21T11:01:55.738Z</time>
      </trkpt>
      <trkpt lat="47.498965" lon="8.004710">
        <ele>365.720369</ele>
        <time>2021-11-21T11:01:56.734Z</time>
      </trkpt>
      <trkpt lat="47.499012" lon="8.004762">
        <ele>365.646362</ele>
        <time>2021-11-21T11:01:57.424Z</time>
      </trkpt>
      <trkpt lat="47.499183" lon="8.004875">
        <ele>365.410175</ele>
        <time>2021-11-21T11:01:59.667Z</time>
      </trkpt>
      <trkpt lat="47.499409" lon="8.005000">
        <ele>365.105889</ele>
        <time>2021-11-21T11:02:02.606Z</time>
      </trkpt>
      <trkpt lat="47.499496" lon="8.005059">
        <ele>364.985194</ele>
        <time>2021-11-21T11:02:03.979Z</time>
      </trkpt>
      <trkpt lat="47.499523" lon="8.005078">
        <ele>364.947489</ele>
        <time>2021-11-21T11:02:04.244Z</time>
      </trkpt>
      <trkpt lat="47.499770" lon="8.005268">
        <ele>364.596411</ele>
        <time>2021-11-21T11:02:07.915Z</time>
      </trkpt>
      <trkpt lat="47.499856" lon="8.005338">
        <ele>364.472628</ele>
        <time>2021-11-21T11:02:08.904Z</time>
      </trkpt>
      <trkpt lat="47.499880" lon="8.005358">
        <ele>364.437891</ele>
        <time>2021-11-21T11:02:09.241Z</time>
      </trkpt>
      <trkpt lat="47.499991" lon="8.005468">
        <ele>364.269417</ele>
        <time>2021-11-21T11:02:10.934Z</time>
      </trkpt>
      <trkpt lat="47.500009" lon="8.005488">
        <ele>364.241030</ele>
        <time>2021-11-21T11:02:11.256Z</time>
      </trkpt>
      <trkpt lat="47.500207" lon="8.005727">
        <ele>363.980881</ele>
        <time>2021-11-21T11:02:14.325Z</time>
      </trkpt>
      <trkpt lat="47.500252" lon="8.005784">
        <ele>363.947134</ele>
        <time>2021-11-21T11:02:15.207Z</time>
      </trkpt>
      <trkpt lat="47.500310" lon="8.005852">
        <ele>363.904976</ele>
        <time>2021-11-21T11:02:16.231Z</time>
      </trkpt>
      <trkpt lat="47.500540" lon="8.006079">
        <ele>363.747465</ele>
        <time>2021-11-21T11:02:19.706Z</time>
      </trkpt>
      <trkpt lat="47.500647" lon="8.006180">
        <ele>363.675156</ele>
        <time>2021-11-21T11:02:21.862Z</time>
      </trkpt>
      <trkpt lat="47.500764" lon="8.006290">
        <ele>363.596181</ele>
        <time>2021-11-21T11:02:23.389Z</time>
      </trkpt>
      <trkpt lat="47.500997" lon="8.006551">
        <ele>363.429690</ele>
        <time>2021-11-21T11:02:27.580Z</time>
      </trkpt>
      <trkpt lat="47.501276" lon="8.006911">
        <ele>363.218800</ele>
        <time>2021-11-21T11:02:32.832Z</time>
      </trkpt>
      <trkpt lat="47.501293" lon="8.006936">
        <ele>363.205145</ele>
        <time>2021-11-21T11:02:33.157Z</time>
      </trkpt>
      <trkpt lat="47.501496" lon="8.007247">
        <ele>363.038682</ele>
        <time>2021-11-21T11:02:37.111Z</time>
      </trkpt>
      <trkpt lat="47.501537" lon="8.007308">
        <ele>363.004006</ele>
        <time>2021-11-21T11:02:37.855Z</time>
      </trkpt>
      <trkpt lat="47.501943" lon="8.008353">
        <ele>362.100070</ele>
        <time>2021-11-21T11:02:48.328Z</time>
      </trkpt>
      <trkpt lat="47.502062" lon="8.008650">
        <ele>361.841142</ele>
        <time>2021-11-21T11:02:51.268Z</time>
      </trkpt>
      <trkpt lat="47.502158" lon="8.008808">
        <ele>361.681797</ele>
        <time>2021-11-21T11:02:52.975Z</time>
      </trkpt>
      <trkpt lat="47.502267" lon="8.008979">
        <ele>361.505506</ele>
        <time>2021-11-21T11:02:54.807Z</time>
      </trkpt>
      <trkpt lat="47.502773" lon="8.009928">
        <ele>360.275192</ele>
        <time>2021-11-21T11:03:03.786Z</time>
      </trkpt>
      <trkpt lat="47.502959" lon="8.010415">
        <ele>359.525890</ele>
        <time>2021-11-21T11:03:07.921Z</time>
      </trkpt>
      <trkpt lat="47.503207" lon="8.011279">
        <ele>358.268549</ele>
        <time>2021-11-21T11:03:14.835Z</time>
      </trkpt>
      <trkpt lat="47.503268" lon="8.011479">
        <ele>357.974640</ele>
        <time>2021-11-21T11:03:16.535Z</time>
      </trkpt>
      <trkpt lat="47.503325" lon="8.011662">
        <ele>357.704738</ele>
        <time>2021-11-21T11:03:18.000Z</time>
      </trkpt>
      <trkpt lat="47.503561" lon="8.012433">
        <ele>356.795308</ele>
        <time>2021-11-21T11:03:24.293Z</time>
      </trkpt>
      <trkpt lat="47.503675" lon="8.012805">
        <ele>356.388639</ele>
        <time>2021-11-21T11:03:27.281Z</time>
      </trkpt>
      <trkpt lat="47.503759" lon="8.013139">
        <ele>356.033831</ele>
        <time>2021-11-21T11:03:29.992Z</time>
      </trkpt>
      <trkpt lat="47.503818" lon="8.013443">
        <ele>355.718944</ele>
        <time>2021-11-21T11:03:32.555Z</time>
      </trkpt>
      <trkpt lat="47.503854" lon="8.013721">
        <ele>355.437143</ele>
        <time>2021-11-21T11:03:34.923Z</time>
      </trkpt>
      <trkpt lat="47.503922" lon="8.014235">
        <ele>354.915714</ele>
        <time>2021-11-21T11:03:39.571Z</time>
      </trkpt>
      <trkpt lat="47.504106" lon="8.015484">
        <ele>354.349410</ele>
        <time>2021-11-21T11:03:50.229Z</time>
      </trkpt>
      <trkpt lat="47.504246" lon="8.016448">
        <ele>353.970184</ele>
        <time>2021-11-21T11:03:58.847Z</time>
      </trkpt>
      <trkpt lat="47.504281" lon="8.016674">
        <ele>353.881009</ele>
        <time>2021-11-21T11:04:00.893Z</time>
      </trkpt>
      <trkpt lat="47.504393" lon="8.017182">
        <ele>353.783329</ele>
        <time>2021-11-21T11:04:06.218Z</time>
      </trkpt>
      <trkpt lat="47.504413" lon="8.017267">
        <ele>353.788186</ele>
        <time>2021-11-21T11:04:07.340Z</time>
      </trkpt>
      <trkpt lat="47.504588" lon="8.017986">
        <ele>353.829425</ele>
        <time>2021-11-21T11:04:15.811Z</time>
      </trkpt>
      <trkpt lat="47.504626" lon="8.018141">
        <ele>353.838323</ele>
        <time>2021-11-21T11:04:17.445Z</time>
      </trkpt>
      <trkpt lat="47.504819" lon="8.018974">
        <ele>353.885843</ele>
        <time>2021-11-21T11:04:26.302Z</time>
      </trkpt>
      <trkpt lat="47.504877" lon="8.019222">
        <ele>353.900005</ele>
        <time>2021-11-21T11:04:29.091Z</time>
      </trkpt>
      <trkpt lat="47.504896" lon="8.019304">
        <ele>353.904682</ele>
        <time>2021-11-21T11:04:30.151Z</time>
      </trkpt>
      <trkpt lat="47.504998" lon="8.019743">
        <ele>353.715483</ele>
        <time>2021-11-21T11:04:35.069Z</time>
      </trkpt>
      <trkpt lat="47.505207" lon="8.020615">
        <ele>353.096768</ele>
        <time>2021-11-21T11:04:43.480Z</time>
      </trkpt>
      <trkpt lat="47.505291" lon="8.020961">
        <ele>352.850913</ele>
        <time>2021-11-21T11:04:46.586Z</time>
      </trkpt>
      <trkpt lat="47.505529" lon="8.021539">
        <ele>352.398267</ele>
        <time>2021-11-21T11:04:51.794Z</time>
      </trkpt>
      <trkpt lat="47.505600" lon="8.021664">
        <ele>352.289061</ele>
        <time>2021-11-21T11:04:52.928Z</time>
      </trkpt>
      <trkpt lat="47.505653" lon="8.021731">
        <ele>352.220070</ele>
        <time>2021-11-21T11:04:53.720Z</time>
      </trkpt>
      <trkpt lat="47.506220" lon="8.022129">
        <ele>350.685270</ele>
        <time>2021-11-21T11:05:00.452Z</time>
      </trkpt>
      <trkpt lat="47.506503" lon="8.022393">
        <ele>349.788030</ele>
        <time>2021-11-21T11:05:04.055Z</time>
      </trkpt>
      <trkpt lat="47.506535" lon="8.022414">
        <ele>349.694140</ele>
        <time>2021-11-21T11:05:04.375Z</time>
      </trkpt>
      <trkpt lat="47.506621" lon="8.022234">
        <ele>349.294662</ele>
        <time>2021-11-21T11:05:05.963Z</time>
      </trkpt>
      <trkpt lat="47.506655" lon="8.022123">
        <ele>349.073828</ele>
        <time>2021-11-21T11:05:06.831Z</time>
      </trkpt>
      <trkpt lat="47.506678" lon="8.022015">
        <ele>348.868647</ele>
        <time>2021-11-21T11:05:07.630Z</time>
      </trkpt>
      <trkpt lat="47.506735" lon="8.021861">
        <ele>348.550471</ele>
        <time>2021-11-21T11:05:08.797Z</time>
      </trkpt>
      <trkpt lat="47.506867" lon="8.021604">
        <ele>347.965492</ele>
        <time>2021-11-21T11:05:11.027Z</time>
      </trkpt>
      <trkpt lat="47.506910" lon="8.021529">
        <ele>347.787250</ele>
        <time>2021-11-21T11:05:11.658Z</time>
      </trkpt>
      <trkpt lat="47.506949" lon="8.021459">
        <ele>347.622842</ele>
        <time>2021-11-21T11:05:12.300Z</time>
      </trkpt>
      <trkpt lat="47.507007" lon="8.021362">
        <ele>347.388124</ele>
        <time>2021-11-21T11:05:13.193Z</time>
      </trkpt>
      <trkpt lat="47.507213" lon="8.021061">
        <ele>346.747653</ele>
        <time>2021-11-21T11:05:16.133Z</time>
      </trkpt>
      <trkpt lat="47.507466" lon="8.020697">
        <ele>345.985854</ele>
        <time>2021-11-21T11:05:19.766Z</time>
      </trkpt>
      <trkpt lat="47.507609" lon="8.020484">
        <ele>345.547825</ele>
        <time>2021-11-21T11:05:21.901Z</time>
      </trkpt>
      <trkpt lat="47.507666" lon="8.020400">
        <ele>345.374158</ele>
        <time>2021-11-21T11:05:22.763Z</time>
      </trkpt>
      <trkpt lat="47.507863" lon="8.020075">
        <ele>344.737237</ele>
        <time>2021-11-21T11:05:25.951Z</time>
      </trkpt>
      <trkpt lat="47.507895" lon="8.020117">
        <ele>344.644893</ele>
        <time>2021-11-21T11:05:26.417Z</time>
      </trkpt>
      <trkpt lat="47.507995" lon="8.020296">
        <ele>344.306082</ele>
        <time>2021-11-21T11:05:28.218Z</time>
      </trkpt>
      <trkpt lat="47.508000" lon="8.020315">
        <ele>344.276340</ele>
        <time>2021-11-21T11:05:28.349Z</time>
      </trkpt>
      <trkpt lat="47.508039" lon="8.020467">
        <ele>344.039180</ele>
        <time>2021-11-21T11:05:29.559Z</time>
      </trkpt>
      <trkpt lat="47.508047" lon="8.020508">
        <ele>343.976933</ele>
        <time>2021-11-21T11:05:29.854Z</time>
      </trkpt>
      <trkpt lat="47.508194" lon="8.021281">
        <ele>343.895300</ele>
        <time>2021-11-21T11:05:36.300Z</time>
      </trkpt>
      <trkpt lat="47.508213" lon="8.021364">
        <ele>343.992381</ele>
        <time>2021-11-21T11:05:37.129Z</time>
      </trkpt>
      <trkpt lat="47.508331" lon="8.021703">
        <ele>344.414845</ele>
        <time>2021-11-21T11:05:42.907Z</time>
      </trkpt>
      <trkpt lat="47.508453" lon="8.021990">
        <ele>344.790491</ele>
        <time>2021-11-21T11:05:47.283Z</time>
      </trkpt>
      <trkpt lat="47.508643" lon="8.022392">
        <ele>345.334001</ele>
        <time>2021-11-21T11:05:55.396Z</time>
      </trkpt>
      <trkpt lat="47.508786" lon="8.022604">
        <ele>345.665890</ele>
        <time>2021-11-21T11:06:01.552Z</time>
      </trkpt>
      <trkpt lat="47.508863" lon="8.022719">
        <ele>345.845264</ele>
        <time>2021-11-21T11:06:04.183Z</time>
      </trkpt>
      <trkpt lat="47.508958" lon="8.022838">
        <ele>346.049348</ele>
        <time>2021-11-21T11:06:08.499Z</time>
      </trkpt>
      <trkpt lat="47.509187" lon="8.023037">
        <ele>346.481072</ele>
        <time>2021-11-21T11:06:15.715Z</time>
      </trkpt>
      <trkpt lat="47.509313" lon="8.023129">
        <ele>346.703634</ele>
        <time>2021-11-21T11:06:20.281Z</time>
      </trkpt>
      <trkpt lat="47.509881" lon="8.023632">
        <ele>347.752137</ele>
        <time>2021-11-21T11:06:36.132Z</time>
      </trkpt>
      <trkpt lat="47.510365" lon="8.024216">
        <ele>348.741277</ele>
        <time>2021-11-21T11:06:49.347Z</time>
      </trkpt>
      <trkpt lat="47.510388" lon="8.024167">
        <ele>348.805126</ele>
        <time>2021-11-21T11:06:49.878Z</time>
      </trkpt>
      <trkpt lat="47.510638" lon="8.023374">
        <ele>348.540180</ele>
        <time>2021-11-21T11:07:01.432Z</time>
      </trkpt>
      <trkpt lat="47.510740" lon="8.023224">
        <ele>348.239231</ele>
        <time>2021-11-21T11:07:03.438Z</time>
      </trkpt>
      <trkpt lat="47.510935" lon="8.022959">
        <ele>347.685145</ele>
        <time>2021-11-21T11:07:07.941Z</time>
      </trkpt>
      <trkpt lat="47.512343" lon="8.021241">
        <ele>343.667658</ele>
        <time>2021-11-21T11:07:34.920Z</time>
      </trkpt>
      <trkpt lat="47.512778" lon="8.020828">
        <ele>342.451385</ele>
        <time>2021-11-21T11:07:43.122Z</time>
      </trkpt>
      <trkpt lat="47.513167" lon="8.020663">
        <ele>341.498978</ele>
        <time>2021-11-21T11:07:49.445Z</time>
      </trkpt>
      <trkpt lat="47.513370" lon="8.020582">
        <ele>341.088824</ele>
        <time>2021-11-21T11:07:52.702Z</time>
      </trkpt>
      <trkpt lat="47.513856" lon="8.020390">
        <ele>340.357771</ele>
        <time>2021-11-21T11:08:00.824Z</time>
      </trkpt>
      <trkpt lat="47.514214" lon="8.020312">
        <ele>339.831859</ele>
        <time>2021-11-21T11:08:06.811Z</time>
      </trkpt>
      <trkpt lat="47.514447" lon="8.020326">
        <ele>339.492943</ele>
        <time>2021-11-21T11:08:10.647Z</time>
      </trkpt>
      <trkpt lat="47.514678" lon="8.020338">
        <ele>339.157007</ele>
        <time>2021-11-21T11:08:14.616Z</time>
      </trkpt>
      <trkpt lat="47.514794" lon="8.020346">
        <ele>338.988233</ele>
        <time>2021-11-21T11:08:16.569Z</time>
      </trkpt>
      <trkpt lat="47.515011" lon="8.020364">
        <ele>338.672356</ele>
        <time>2021-11-21T11:08:20.372Z</time>
      </trkpt>
      <trkpt lat="47.515050" lon="8.020367">
        <ele>338.615597</ele>
        <time>2021-11-21T11:08:21.047Z</time>
      </trkpt>
      <trkpt lat="47.515452" lon="8.020407">
        <ele>338.374678</ele>
        <time>2021-11-21T11:08:28.088Z</time>
      </trkpt>
      <trkpt lat="47.515648" lon="8.020395">
        <ele>338.258580</ele>
        <time>2021-11-21T11:08:31.605Z</time>
      </trkpt>
      <trkpt lat="47.515685" lon="8.020393">
        <ele>338.236668</ele>
        <time>2021-11-21T11:08:32.257Z</time>
      </trkpt>
      <trkpt lat="47.516146" lon="8.020218">
        <ele>337.955011</ele>
        <time>2021-11-21T11:08:40.936Z</time>
      </trkpt>
      <trkpt lat="47.516172" lon="8.020201">
        <ele>337.938190</ele>
        <time>2021-11-21T11:08:41.434Z</time>
      </trkpt>
      <trkpt lat="47.516265" lon="8.020138">
        <ele>337.877663</ele>
        <time>2021-11-21T11:08:43.383Z</time>
      </trkpt>
      <trkpt lat="47.516418" lon="8.020012">
        <ele>337.774050</ele>
        <time>2021-11-21T11:08:46.825Z</time>
      </trkpt>
      <trkpt lat="47.516592" lon="8.019879">
        <ele>337.658159</ele>
        <time>2021-11-21T11:08:50.503Z</time>
      </trkpt>
      <trkpt lat="47.516606" lon="8.019868">
        <ele>337.648779</ele>
        <time>2021-11-21T11:08:50.926Z</time>
      </trkpt>
      <trkpt lat="47.516775" lon="8.019794">
        <ele>337.547265</ele>
        <time>2021-11-21T11:08:54.309Z</time>
      </trkpt>
      <trkpt lat="47.516798" lon="8.019784">
        <ele>337.549097</ele>
        <time>2021-11-21T11:08:54.772Z</time>
      </trkpt>
      <trkpt lat="47.517087" lon="8.019737">
        <ele>337.571313</ele>
        <time>2021-11-21T11:09:00.720Z</time>
      </trkpt>
      <trkpt lat="47.517205" lon="8.019691">
        <ele>337.580638</ele>
        <time>2021-11-21T11:09:02.835Z</time>
      </trkpt>
      <trkpt lat="47.517322" lon="8.019626">
        <ele>337.590187</ele>
        <time>2021-11-21T11:09:05.700Z</time>
      </trkpt>
      <trkpt lat="47.517543" lon="8.019449">
        <ele>337.609387</ele>
        <time>2021-11-21T11:09:10.621Z</time>
      </trkpt>
      <trkpt lat="47.517699" lon="8.019320">
        <ele>337.623040</ele>
        <time>2021-11-21T11:09:13.880Z</time>
      </trkpt>
      <trkpt lat="47.517787" lon="8.019247">
        <ele>337.630748</ele>
        <time>2021-11-21T11:09:15.236Z</time>
      </trkpt>
      <trkpt lat="47.517873" lon="8.019154">
        <ele>337.638886</ele>
        <time>2021-11-21T11:09:16.774Z</time>
      </trkpt>
      <trkpt lat="47.517945" lon="8.019080">
        <ele>337.645583</ele>
        <time>2021-11-21T11:09:18.630Z</time>
      </trkpt>
      <trkpt lat="47.518228" lon="8.018741">
        <ele>337.673399</ele>
        <time>2021-11-21T11:09:24.753Z</time>
      </trkpt>
      <trkpt lat="47.518485" lon="8.018258">
        <ele>337.459754</ele>
        <time>2021-11-21T11:09:30.965Z</time>
      </trkpt>
      <trkpt lat="47.518569" lon="8.018073">
        <ele>337.335168</ele>
        <time>2021-11-21T11:09:32.693Z</time>
      </trkpt>
      <trkpt lat="47.518733" lon="8.017694">
        <ele>337.083608</ele>
        <time>2021-11-21T11:09:36.633Z</time>
      </trkpt>
      <trkpt lat="47.518855" lon="8.017453">
        <ele>336.915283</ele>
        <time>2021-11-21T11:09:39.235Z</time>
      </trkpt>
      <trkpt lat="47.519079" lon="8.017167">
        <ele>336.670522</ele>
        <time>2021-11-21T11:09:42.716Z</time>
      </trkpt>
      <trkpt lat="47.519096" lon="8.017126">
        <ele>336.643635</ele>
        <time>2021-11-21T11:09:43.099Z</time>
      </trkpt>
      <trkpt lat="47.519107" lon="8.017079">
        <ele>336.615835</ele>
        <time>2021-11-21T11:09:43.533Z</time>
      </trkpt>
      <trkpt lat="47.519117" lon="8.017042">
        <ele>336.593563</ele>
        <time>2021-11-21T11:09:43.857Z</time>
      </trkpt>
      <trkpt lat="47.519123" lon="8.016537">
        <ele>336.311293</ele>
        <time>2021-11-21T11:09:47.913Z</time>
      </trkpt>
      <trkpt lat="47.519126" lon="8.016373">
        <ele>336.219605</ele>
        <time>2021-11-21T11:09:49.295Z</time>
      </trkpt>
      <trkpt lat="47.519171" lon="8.016191">
        <ele>336.102620</ele>
        <time>2021-11-21T11:09:50.738Z</time>
      </trkpt>
      <trkpt lat="47.519228" lon="8.016109">
        <ele>336.030122</ele>
        <time>2021-11-21T11:09:51.724Z</time>
      </trkpt>
      <trkpt lat="47.519330" lon="8.015986">
        <ele>335.910120</ele>
        <time>2021-11-21T11:09:53.337Z</time>
      </trkpt>
      <trkpt lat="47.519346" lon="8.015845">
        <ele>335.822035</ele>
        <time>2021-11-21T11:09:54.377Z</time>
      </trkpt>
      <trkpt lat="47.519424" lon="8.015360">
        <ele>335.514880</ele>
        <time>2021-11-21T11:09:58.382Z</time>
      </trkpt>
      <trkpt lat="47.519518" lon="8.015145">
        <ele>335.357089</ele>
        <time>2021-11-21T11:10:00.449Z</time>
      </trkpt>
      <trkpt lat="47.519564" lon="8.015041">
        <ele>335.280498</ele>
        <time>2021-11-21T11:10:01.561Z</time>
      </trkpt>
      <trkpt lat="47.519666" lon="8.015011">
        <ele>335.185631</ele>
        <time>2021-11-21T11:10:02.790Z</time>
      </trkpt>
      <trkpt lat="47.520115" lon="8.014648">
        <ele>334.718956</ele>
        <time>2021-11-21T11:10:09.243Z</time>
      </trkpt>
      <trkpt lat="47.520539" lon="8.014558">
        <ele>334.512547</ele>
        <time>2021-11-21T11:10:15.563Z</time>
      </trkpt>
      <trkpt lat="47.520848" lon="8.014542">
        <ele>334.459595</ele>
        <time>2021-11-21T11:10:20.009Z</time>
      </trkpt>
      <trkpt lat="47.520953" lon="8.014530">
        <ele>334.441559</ele>
        <time>2021-11-21T11:10:21.344Z</time>
      </trkpt>
      <trkpt lat="47.521150" lon="8.014447">
        <ele>334.406482</ele>
        <time>2021-11-21T11:10:24.554Z</time>
      </trkpt>
      <trkpt lat="47.521292" lon="8.014319">
        <ele>334.378011</ele>
        <time>2021-11-21T11:10:26.755Z</time>
      </trkpt>
      <trkpt lat="47.521454" lon="8.014134">
        <ele>334.342975</ele>
        <time>2021-11-21T11:10:29.951Z</time>
      </trkpt>
      <trkpt lat="47.521508" lon="8.014076">
        <ele>334.331550</ele>
        <time>2021-11-21T11:10:30.892Z</time>
      </trkpt>
      <trkpt lat="47.521532" lon="8.014046">
        <ele>334.326172</ele>
        <time>2021-11-21T11:10:31.344Z</time>
      </trkpt>
      <trkpt lat="47.521611" lon="8.013949">
        <ele>334.308596</ele>
        <time>2021-11-21T11:10:32.606Z</time>
      </trkpt>
      <trkpt lat="47.521782" lon="8.013652">
        <ele>334.263457</ele>
        <time>2021-11-21T11:10:36.841Z</time>
      </trkpt>
      <trkpt lat="47.521857" lon="8.013314">
        <ele>334.266660</ele>
        <time>2021-11-21T11:10:40.493Z</time>
      </trkpt>
      <trkpt lat="47.521867" lon="8.013168">
        <ele>334.280033</ele>
        <time>2021-11-21T11:10:41.919Z</time>
      </trkpt>
      <trkpt lat="47.521884" lon="8.013019">
        <ele>334.293803</ele>
        <time>2021-11-21T11:10:43.660Z</time>
      </trkpt>
      <trkpt lat="47.521999" lon="8.011997">
        <ele>334.388219</ele>
        <time>2021-11-21T11:10:57.295Z</time>
      </trkpt>
      <trkpt lat="47.522135" lon="8.011541">
        <ele>334.433644</ele>
        <time>2021-11-21T11:11:04.340Z</time>
      </trkpt>
      <trkpt lat="47.522752" lon="8.010942">
        <ele>334.699799</ele>
        <time>2021-11-21T11:11:21.396Z</time>
      </trkpt>
      <trkpt lat="47.523475" lon="8.009886">
        <ele>335.363163</ele>
        <time>2021-11-21T11:11:45.461Z</time>
      </trkpt>
      <trkpt lat="47.523750" lon="8.009595">
        <ele>335.583953</ele>
        <time>2021-11-21T11:11:53.102Z</time>
      </trkpt>
      <trkpt lat="47.525125" lon="8.008474">
        <ele>335.686354</ele>
        <time>2021-11-21T11:12:26.183Z</time>
      </trkpt>
      <trkpt lat="47.525704" lon="8.008036">
        <ele>335.279024</ele>
        <time>2021-11-21T11:12:37.892Z</time>
      </trkpt>
      <trkpt lat="47.526398" lon="8.007517">
        <ele>334.200481</ele>
        <time>2021-11-21T11:12:50.869Z</time>
      </trkpt>
      <trkpt lat="47.527466" lon="8.006442">
        <ele>332.145340</ele>
        <time>2021-11-21T11:13:11.424Z</time>
      </trkpt>
      <trkpt lat="47.528852" lon="8.005150">
        <ele>329.062725</ele>
        <time>2021-11-21T11:13:37.516Z</time>
      </trkpt>
      <trkpt lat="47.529337" lon="8.004498">
        <ele>327.769627</ele>
        <time>2021-11-21T11:13:48.269Z</time>
      </trkpt>
      <trkpt lat="47.529391" lon="8.004422">
        <ele>327.622563</ele>
        <time>2021-11-21T11:13:49.457Z</time>
      </trkpt>
      <trkpt lat="47.530077" lon="8.003471">
        <ele>325.665453</ele>
        <time>2021-11-21T11:14:03.757Z</time>
      </trkpt>
      <trkpt lat="47.531127" lon="8.002157">
        <ele>322.445193</ele>
        <time>2021-11-21T11:14:24.818Z</time>
      </trkpt>
      <trkpt lat="47.531407" lon="8.001793">
        <ele>321.846609</ele>
        <time>2021-11-21T11:14:30.555Z</time>
      </trkpt>
      <trkpt lat="47.531789" lon="8.001140">
        <ele>321.188724</ele>
        <time>2021-11-21T11:14:39.800Z</time>
      </trkpt>
      <trkpt lat="47.532176" lon="8.000088">
        <ele>320.276519</ele>
        <time>2021-11-21T11:14:54.539Z</time>
      </trkpt>
      <trkpt lat="47.532283" lon="7.999633">
        <ele>320.102106</ele>
        <time>2021-11-21T11:15:01.469Z</time>
      </trkpt>
      <trkpt lat="47.532321" lon="7.999312">
        <ele>320.146828</ele>
        <time>2021-11-21T11:15:06.227Z</time>
      </trkpt>
      <trkpt lat="47.532314" lon="7.998991">
        <ele>320.190901</ele>
        <time>2021-11-21T11:15:10.672Z</time>
      </trkpt>
      <trkpt lat="47.532616" lon="7.998942">
        <ele>320.252649</ele>
        <time>2021-11-21T11:15:17.251Z</time>
      </trkpt>
      <trkpt lat="47.532745" lon="7.998891">
        <ele>320.279785</ele>
        <time>2021-11-21T11:15:20.286Z</time>
      </trkpt>
      <trkpt lat="47.532880" lon="7.998728">
        <ele>320.315186</ele>
        <time>2021-11-21T11:15:24.027Z</time>
      </trkpt>
      <trkpt lat="47.534115" lon="7.996823">
        <ele>320.210063</ele>
        <time>2021-11-21T11:16:01.562Z</time>
      </trkpt>
      <trkpt lat="47.535091" lon="7.993681">
        <ele>318.419850</ele>
        <time>2021-11-21T11:16:42.354Z</time>
      </trkpt>
      <trkpt lat="47.535530" lon="7.992828">
        <ele>318.239184</ele>
        <time>2021-11-21T11:16:54.512Z</time>
      </trkpt>
      <trkpt lat="47.535601" lon="7.992617">
        <ele>318.214773</ele>
        <time>2021-11-21T11:16:58.129Z</time>
      </trkpt>
      <trkpt lat="47.535603" lon="7.992576">
        <ele>318.210517</ele>
        <time>2021-11-21T11:16:59.149Z</time>
      </trkpt>
      <trkpt lat="47.535497" lon="7.992318">
        <ele>318.179244</ele>
        <time>2021-11-21T11:17:02.833Z</time>
      </trkpt>
      <trkpt lat="47.535110" lon="7.991631">
        <ele>318.086600</ele>
        <time>2021-11-21T11:17:16.645Z</time>
      </trkpt>
      <trkpt lat="47.534860" lon="7.991148">
        <ele>318.472470</ele>
        <time>2021-11-21T11:17:26.112Z</time>
      </trkpt>
      <trkpt lat="47.534644" lon="7.990797">
        <ele>319.007237</ele>
        <time>2021-11-21T11:17:33.877Z</time>
      </trkpt>
      <trkpt lat="47.534606" lon="7.990590">
        <ele>319.248781</ele>
        <time>2021-11-21T11:17:37.224Z</time>
      </trkpt>
      <trkpt lat="47.534609" lon="7.990394">
        <ele>319.469533</ele>
        <time>2021-11-21T11:17:40.833Z</time>
      </trkpt>
      <trkpt lat="47.534723" lon="7.989575">
        <ele>320.411119</ele>
        <time>2021-11-21T11:17:57.502Z</time>
      </trkpt>
      <trkpt lat="47.534771" lon="7.988562">
        <ele>321.449340</ele>
        <time>2021-11-21T11:18:18.186Z</time>
      </trkpt>
      <trkpt lat="47.534795" lon="7.988078">
        <ele>321.879265</ele>
        <time>2021-11-21T11:18:26.952Z</time>
      </trkpt>
      <trkpt lat="47.534363" lon="7.987895">
        <ele>322.468840</ele>
        <time>2021-11-21T11:18:35.834Z</time>
      </trkpt>
      <trkpt lat="47.534466" lon="7.987626">
        <ele>322.742803</ele>
        <time>2021-11-21T11:18:39.728Z</time>
      </trkpt>
      <trkpt lat="47.534590" lon="7.987330">
        <ele>323.051404</ele>
        <time>2021-11-21T11:18:44.052Z</time>
      </trkpt>
      <trkpt lat="47.534974" lon="7.986602">
        <ele>323.472660</ele>
        <time>2021-11-21T11:18:54.640Z</time>
      </trkpt>
      <trkpt lat="47.535270" lon="7.985985">
        <ele>323.549543</ele>
        <time>2021-11-21T11:19:02.308Z</time>
      </trkpt>
      <trkpt lat="47.535614" lon="7.985212">
        <ele>323.643582</ele>
        <time>2021-11-21T11:19:10.789Z</time>
      </trkpt>
      <trkpt lat="47.536026" lon="7.984206">
        <ele>324.511836</ele>
        <time>2021-11-21T11:19:23.530Z</time>
      </trkpt>
      <trkpt lat="47.536199" lon="7.983737">
        <ele>325.136448</ele>
        <time>2021-11-21T11:19:30.631Z</time>
      </trkpt>
      <trkpt lat="47.536410" lon="7.983244">
        <ele>325.818653</ele>
        <time>2021-11-21T11:19:39.788Z</time>
      </trkpt>
      <trkpt lat="47.536530" lon="7.982859">
        <ele>326.314249</ele>
        <time>2021-11-21T11:19:47.126Z</time>
      </trkpt>
      <trkpt lat="47.536764" lon="7.982225">
        <ele>327.361075</ele>
        <time>2021-11-21T11:20:00.796Z</time>
      </trkpt>
      <trkpt lat="47.536775" lon="7.982096">
        <ele>327.600099</ele>
        <time>2021-11-21T11:20:03.209Z</time>
      </trkpt>
      <trkpt lat="47.536842" lon="7.981878">
        <ele>328.040419</ele>
        <time>2021-11-21T11:20:07.950Z</time>
      </trkpt>
      <trkpt lat="47.536896" lon="7.981697">
        <ele>328.404190</ele>
        <time>2021-11-21T11:20:11.787Z</time>
      </trkpt>
      <trkpt lat="47.536959" lon="7.981602">
        <ele>328.648988</ele>
        <time>2021-11-21T11:20:14.161Z</time>
      </trkpt>
      <trkpt lat="47.537107" lon="7.981082">
        <ele>329.686371</ele>
        <time>2021-11-21T11:20:24.883Z</time>
      </trkpt>
      <trkpt lat="47.537461" lon="7.980118">
        <ele>331.703060</ele>
        <time>2021-11-21T11:20:43.436Z</time>
      </trkpt>
      <trkpt lat="47.537583" lon="7.979760">
        <ele>331.677123</ele>
        <time>2021-11-21T11:20:49.440Z</time>
      </trkpt>
      <trkpt lat="47.537955" lon="7.978125">
        <ele>331.565531</ele>
        <time>2021-11-21T11:21:05.783Z</time>
      </trkpt>
      <trkpt lat="47.538107" lon="7.977240">
        <ele>331.065982</ele>
        <time>2021-11-21T11:21:12.689Z</time>
      </trkpt>
      <trkpt lat="47.538242" lon="7.976347">
        <ele>329.933710</ele>
        <time>2021-11-21T11:21:19.566Z</time>
      </trkpt>
      <trkpt lat="47.538706" lon="7.974459">
        <ele>327.276812</ele>
        <time>2021-11-21T11:21:34.495Z</time>
      </trkpt>
      <trkpt lat="47.539262" lon="7.971768">
        <ele>322.952822</ele>
        <time>2021-11-21T11:21:54.839Z</time>
      </trkpt>
      <trkpt lat="47.539783" lon="7.969587">
        <ele>319.418257</ele>
        <time>2021-11-21T11:22:11.319Z</time>
      </trkpt>
      <trkpt lat="47.540214" lon="7.967628">
        <ele>317.045237</ele>
        <time>2021-11-21T11:22:27.119Z</time>
      </trkpt>
      <trkpt lat="47.540896" lon="7.964711">
        <ele>315.082805</ele>
        <time>2021-11-21T11:22:53.225Z</time>
      </trkpt>
      <trkpt lat="47.541095" lon="7.964204">
        <ele>314.740439</ele>
        <time>2021-11-21T11:22:58.261Z</time>
      </trkpt>
      <trkpt lat="47.541169" lon="7.964123">
        <ele>314.660871</ele>
        <time>2021-11-21T11:22:59.219Z</time>
      </trkpt>
      <trkpt lat="47.541129" lon="7.964008">
        <ele>314.585350</ele>
        <time>2021-11-21T11:23:00.662Z</time>
      </trkpt>
      <trkpt lat="47.541019" lon="7.963815">
        <ele>314.437896</ele>
        <time>2021-11-21T11:23:03.012Z</time>
      </trkpt>
      <trkpt lat="47.541123" lon="7.963520">
        <ele>314.243614</ele>
        <time>2021-11-21T11:23:05.745Z</time>
      </trkpt>
      <trkpt lat="47.541217" lon="7.963187">
        <ele>314.032907</ele>
        <time>2021-11-21T11:23:08.647Z</time>
      </trkpt>
      <trkpt lat="47.541258" lon="7.962975">
        <ele>313.904169</ele>
        <time>2021-11-21T11:23:11.042Z</time>
      </trkpt>
      <trkpt lat="47.541293" lon="7.962730">
        <ele>313.757978</ele>
        <time>2021-11-21T11:23:13.026Z</time>
      </trkpt>
      <trkpt lat="47.541308" lon="7.962513">
        <ele>313.560628</ele>
        <time>2021-11-21T11:23:15.051Z</time>
      </trkpt>
      <trkpt lat="47.541314" lon="7.962377">
        <ele>313.356521</ele>
        <time>2021-11-21T11:23:16.404Z</time>
      </trkpt>
      <trkpt lat="47.541316" lon="7.962197">
        <ele>313.086917</ele>
        <time>2021-11-21T11:23:17.748Z</time>
      </trkpt>
      <trkpt lat="47.541242" lon="7.961294">
        <ele>311.724662</ele>
        <time>2021-11-21T11:23:24.772Z</time>
      </trkpt>
      <trkpt lat="47.541153" lon="7.960814">
        <ele>310.979193</ele>
        <time>2021-11-21T11:23:28.302Z</time>
      </trkpt>
      <trkpt lat="47.541060" lon="7.960321">
        <ele>310.212591</ele>
        <time>2021-11-21T11:23:31.892Z</time>
      </trkpt>
      <trkpt lat="47.541027" lon="7.959944">
        <ele>309.617774</ele>
        <time>2021-11-21T11:23:34.394Z</time>
      </trkpt>
      <trkpt lat="47.541019" lon="7.959792">
        <ele>309.250406</ele>
        <time>2021-11-21T11:23:35.439Z</time>
      </trkpt>
      <trkpt lat="47.541012" lon="7.959578">
        <ele>308.734151</ele>
        <time>2021-11-21T11:23:36.914Z</time>
      </trkpt>
      <trkpt lat="47.541016" lon="7.959388">
        <ele>308.276108</ele>
        <time>2021-11-21T11:23:38.116Z</time>
      </trkpt>
      <trkpt lat="47.541081" lon="7.958828">
        <ele>306.906943</ele>
        <time>2021-11-21T11:23:41.885Z</time>
      </trkpt>
      <trkpt lat="47.541226" lon="7.958150">
        <ele>305.193227</ele>
        <time>2021-11-21T11:23:46.646Z</time>
      </trkpt>
      <trkpt lat="47.541305" lon="7.957787">
        <ele>304.274223</ele>
        <time>2021-11-21T11:23:49.130Z</time>
      </trkpt>
      <trkpt lat="47.541355" lon="7.957559">
        <ele>303.696580</ele>
        <time>2021-11-21T11:23:50.832Z</time>
      </trkpt>
      <trkpt lat="47.541450" lon="7.956897">
        <ele>302.700036</ele>
        <time>2021-11-21T11:23:55.466Z</time>
      </trkpt>
      <trkpt lat="47.541464" lon="7.956698">
        <ele>302.472904</ele>
        <time>2021-11-21T11:23:56.871Z</time>
      </trkpt>
      <trkpt lat="47.541533" lon="7.955526">
        <ele>301.137384</ele>
        <time>2021-11-21T11:24:05.705Z</time>
      </trkpt>
      <trkpt lat="47.541554" lon="7.955311">
        <ele>300.890771</ele>
        <time>2021-11-21T11:24:07.743Z</time>
      </trkpt>
      <trkpt lat="47.541735" lon="7.953892">
        <ele>300.335324</ele>
        <time>2021-11-21T11:24:21.952Z</time>
      </trkpt>
      <trkpt lat="47.541773" lon="7.953695">
        <ele>300.357669</ele>
        <time>2021-11-21T11:24:24.199Z</time>
      </trkpt>
      <trkpt lat="47.541791" lon="7.953601">
        <ele>300.368325</ele>
        <time>2021-11-21T11:24:25.234Z</time>
      </trkpt>
      <trkpt lat="47.541991" lon="7.952667">
        <ele>300.475189</ele>
        <time>2021-11-21T11:24:36.090Z</time>
      </trkpt>
      <trkpt lat="47.542169" lon="7.951815">
        <ele>300.586789</ele>
        <time>2021-11-21T11:24:45.828Z</time>
      </trkpt>
      <trkpt lat="47.542192" lon="7.951713">
        <ele>300.602563</ele>
        <time>2021-11-21T11:24:47.091Z</time>
      </trkpt>
      <trkpt lat="47.542357" lon="7.951037">
        <ele>300.708001</ele>
        <time>2021-11-21T11:24:54.555Z</time>
      </trkpt>
      <trkpt lat="47.542444" lon="7.950687">
        <ele>300.762708</ele>
        <time>2021-11-21T11:24:58.386Z</time>
      </trkpt>
      <trkpt lat="47.542546" lon="7.950274">
        <ele>300.827213</ele>
        <time>2021-11-21T11:25:02.733Z</time>
      </trkpt>
      <trkpt lat="47.542554" lon="7.950231">
        <ele>300.833756</ele>
        <time>2021-11-21T11:25:03.219Z</time>
      </trkpt>
      <trkpt lat="47.542560" lon="7.950202">
        <ele>300.838205</ele>
        <time>2021-11-21T11:25:03.553Z</time>
      </trkpt>
      <trkpt lat="47.542609" lon="7.949914">
        <ele>300.881769</ele>
        <time>2021-11-21T11:25:06.552Z</time>
      </trkpt>
      <trkpt lat="47.542719" lon="7.949175">
        <ele>301.228386</ele>
        <time>2021-11-21T11:25:14.455Z</time>
      </trkpt>
      <trkpt lat="47.542826" lon="7.948298">
        <ele>301.792652</ele>
        <time>2021-11-21T11:25:25.398Z</time>
      </trkpt>
      <trkpt lat="47.542838" lon="7.948225">
        <ele>301.840222</ele>
        <time>2021-11-21T11:25:26.225Z</time>
      </trkpt>
      <trkpt lat="47.542875" lon="7.948001">
        <ele>301.986231</ele>
        <time>2021-11-21T11:25:29.109Z</time>
      </trkpt>
      <trkpt lat="47.542928" lon="7.947798">
        <ele>302.124038</ele>
        <time>2021-11-21T11:25:32.032Z</time>
      </trkpt>
      <trkpt lat="47.542957" lon="7.947651">
        <ele>302.221003</ele>
        <time>2021-11-21T11:25:33.740Z</time>
      </trkpt>
      <trkpt lat="47.543050" lon="7.947411">
        <ele>302.396215</ele>
        <time>2021-11-21T11:25:38.104Z</time>
      </trkpt>
      <trkpt lat="47.543087" lon="7.947317">
        <ele>302.465109</ele>
        <time>2021-11-21T11:25:39.383Z</time>
      </trkpt>
      <trkpt lat="47.543092" lon="7.947257">
        <ele>302.503386</ele>
        <time>2021-11-21T11:25:40.172Z</time>
      </trkpt>
      <trkpt lat="47.543097" lon="7.947186">
        <ele>302.548583</ele>
        <time>2021-11-21T11:25:41.022Z</time>
      </trkpt>
      <trkpt lat="47.543086" lon="7.947052">
        <ele>302.659859</ele>
        <time>2021-11-21T11:25:42.852Z</time>
      </trkpt>
      <trkpt lat="47.543056" lon="7.946935">
        <ele>302.819924</ele>
        <time>2021-11-21T11:25:45.219Z</time>
      </trkpt>
      <trkpt lat="47.543045" lon="7.946881">
        <ele>302.892062</ele>
        <time>2021-11-21T11:25:46.331Z</time>
      </trkpt>
      <trkpt lat="47.542982" lon="7.946547">
        <ele>303.335587</ele>
        <time>2021-11-21T11:25:50.930Z</time>
      </trkpt>
      <trkpt lat="47.542974" lon="7.946495">
        <ele>303.403796</ele>
        <time>2021-11-21T11:25:52.143Z</time>
      </trkpt>
      <trkpt lat="47.542960" lon="7.946400">
        <ele>303.528156</ele>
        <time>2021-11-21T11:25:53.980Z</time>
      </trkpt>
      <trkpt lat="47.542916" lon="7.945730">
        <ele>304.389084</ele>
        <time>2021-11-21T11:26:04.556Z</time>
      </trkpt>
      <trkpt lat="47.542913" lon="7.945267">
        <ele>304.981256</ele>
        <time>2021-11-21T11:26:12.043Z</time>
      </trkpt>
      <trkpt lat="47.543007" lon="7.943867">
        <ele>306.190483</ele>
        <time>2021-11-21T11:26:32.782Z</time>
      </trkpt>
      <trkpt lat="47.543161" lon="7.942213">
        <ele>306.676785</ele>
        <time>2021-11-21T11:26:51.188Z</time>
      </trkpt>
      <trkpt lat="47.543435" lon="7.940670">
        <ele>305.678468</ele>
        <time>2021-11-21T11:27:04.136Z</time>
      </trkpt>
      <trkpt lat="47.543826" lon="7.939433">
        <ele>304.408404</ele>
        <time>2021-11-21T11:27:14.537Z</time>
      </trkpt>
      <trkpt lat="47.544472" lon="7.937932">
        <ele>302.266308</ele>
        <time>2021-11-21T11:27:27.861Z</time>
      </trkpt>
      <trkpt lat="47.544705" lon="7.937395">
        <ele>301.487690</ele>
        <time>2021-11-21T11:27:32.701Z</time>
      </trkpt>
      <trkpt lat="47.544903" lon="7.936917">
        <ele>300.854426</ele>
        <time>2021-11-21T11:27:36.961Z</time>
      </trkpt>
      <trkpt lat="47.545074" lon="7.936484">
        <ele>300.361447</ele>
        <time>2021-11-21T11:27:40.792Z</time>
      </trkpt>
      <trkpt lat="47.545457" lon="7.935110">
        <ele>298.900638</ele>
        <time>2021-11-21T11:27:52.161Z</time>
      </trkpt>
      <trkpt lat="47.545674" lon="7.933625">
        <ele>298.616600</ele>
        <time>2021-11-21T11:28:05.241Z</time>
      </trkpt>
      <trkpt lat="47.545702" lon="7.933290">
        <ele>298.670928</ele>
        <time>2021-11-21T11:28:08.821Z</time>
      </trkpt>
      <trkpt lat="47.545724" lon="7.932758">
        <ele>298.756710</ele>
        <time>2021-11-21T11:28:15.088Z</time>
      </trkpt>
      <trkpt lat="47.545721" lon="7.931992">
        <ele>298.913695</ele>
        <time>2021-11-21T11:28:25.127Z</time>
      </trkpt>
      <trkpt lat="47.545696" lon="7.931497">
        <ele>299.567902</ele>
        <time>2021-11-21T11:28:32.333Z</time>
      </trkpt>
      <trkpt lat="47.545661" lon="7.930955">
        <ele>300.285491</ele>
        <time>2021-11-21T11:28:41.028Z</time>
      </trkpt>
      <trkpt lat="47.545563" lon="7.929641">
        <ele>302.027815</ele>
        <time>2021-11-21T11:29:03.367Z</time>
      </trkpt>
      <trkpt lat="47.545475" lon="7.928419">
        <ele>301.991921</ele>
        <time>2021-11-21T11:29:19.670Z</time>
      </trkpt>
      <trkpt lat="47.545421" lon="7.927686">
        <ele>301.687153</ele>
        <time>2021-11-21T11:29:25.774Z</time>
      </trkpt>
      <trkpt lat="47.545406" lon="7.927306">
        <ele>301.529820</ele>
        <time>2021-11-21T11:29:28.677Z</time>
      </trkpt>
      <trkpt lat="47.545407" lon="7.927001">
        <ele>301.403753</ele>
        <time>2021-11-21T11:29:30.964Z</time>
      </trkpt>
      <trkpt lat="47.545409" lon="7.926773">
        <ele>301.309507</ele>
        <time>2021-11-21T11:29:32.593Z</time>
      </trkpt>
      <trkpt lat="47.545417" lon="7.925848">
        <ele>299.132230</ele>
        <time>2021-11-21T11:29:38.928Z</time>
      </trkpt>
      <trkpt lat="47.545446" lon="7.925350">
        <ele>297.891685</ele>
        <time>2021-11-21T11:29:42.220Z</time>
      </trkpt>
      <trkpt lat="47.545466" lon="7.924880">
        <ele>296.722907</ele>
        <time>2021-11-21T11:29:45.273Z</time>
      </trkpt>
      <trkpt lat="47.545481" lon="7.924396">
        <ele>295.520433</ele>
        <time>2021-11-21T11:29:48.357Z</time>
      </trkpt>
      <trkpt lat="47.545521" lon="7.923709">
        <ele>294.139557</ele>
        <time>2021-11-21T11:29:52.882Z</time>
      </trkpt>
      <trkpt lat="47.545536" lon="7.923407">
        <ele>293.675631</ele>
        <time>2021-11-21T11:29:55.272Z</time>
      </trkpt>
      <trkpt lat="47.545553" lon="7.923142">
        <ele>293.267813</ele>
        <time>2021-11-21T11:29:56.993Z</time>
      </trkpt>
      <trkpt lat="47.545587" lon="7.922895">
        <ele>292.881612</ele>
        <time>2021-11-21T11:29:59.394Z</time>
      </trkpt>
      <trkpt lat="47.545641" lon="7.922610">
        <ele>292.428108</ele>
        <time>2021-11-21T11:30:01.393Z</time>
      </trkpt>
      <trkpt lat="47.545690" lon="7.922369">
        <ele>292.042502</ele>
        <time>2021-11-21T11:30:04.084Z</time>
      </trkpt>
      <trkpt lat="47.545699" lon="7.922325">
        <ele>291.972066</ele>
        <time>2021-11-21T11:30:04.345Z</time>
      </trkpt>
      <trkpt lat="47.545714" lon="7.922249">
        <ele>291.850756</ele>
        <time>2021-11-21T11:30:04.935Z</time>
      </trkpt>
      <trkpt lat="47.545778" lon="7.921947">
        <ele>291.365817</ele>
        <time>2021-11-21T11:30:08.091Z</time>
      </trkpt>
      <trkpt lat="47.545810" lon="7.921755">
        <ele>291.062834</ele>
        <time>2021-11-21T11:30:09.448Z</time>
      </trkpt>
      <trkpt lat="47.545881" lon="7.921096">
        <ele>290.470944</ele>
        <time>2021-11-21T11:30:14.796Z</time>
      </trkpt>
      <trkpt lat="47.545913" lon="7.920765">
        <ele>290.359750</ele>
        <time>2021-11-21T11:30:17.663Z</time>
      </trkpt>
      <trkpt lat="47.545973" lon="7.920313">
        <ele>290.206561</ele>
        <time>2021-11-21T11:30:22.811Z</time>
      </trkpt>
      <trkpt lat="47.546128" lon="7.919617">
        <ele>289.962841</ele>
        <time>2021-11-21T11:30:29.274Z</time>
      </trkpt>
      <trkpt lat="47.546262" lon="7.919081">
        <ele>289.772766</ele>
        <time>2021-11-21T11:30:35.273Z</time>
      </trkpt>
      <trkpt lat="47.546821" lon="7.916867">
        <ele>288.954327</ele>
        <time>2021-11-21T11:30:56.025Z</time>
      </trkpt>
      <trkpt lat="47.547032" lon="7.916218">
        <ele>288.767038</ele>
        <time>2021-11-21T11:31:02.516Z</time>
      </trkpt>
      <trkpt lat="47.547091" lon="7.916039">
        <ele>288.756723</ele>
        <time>2021-11-21T11:31:04.334Z</time>
      </trkpt>
      <trkpt lat="47.547113" lon="7.915971">
        <ele>288.752818</ele>
        <time>2021-11-21T11:31:04.932Z</time>
      </trkpt>
      <trkpt lat="47.547423" lon="7.915080">
        <ele>288.700911</ele>
        <time>2021-11-21T11:31:14.576Z</time>
      </trkpt>
      <trkpt lat="47.547994" lon="7.913433">
        <ele>289.027786</ele>
        <time>2021-11-21T11:31:34.296Z</time>
      </trkpt>
      <trkpt lat="47.548027" lon="7.913334">
        <ele>289.091010</ele>
        <time>2021-11-21T11:31:35.655Z</time>
      </trkpt>
      <trkpt lat="47.548412" lon="7.912168">
        <ele>289.834269</ele>
        <time>2021-11-21T11:31:52.058Z</time>
      </trkpt>
      <trkpt lat="47.549012" lon="7.910340">
        <ele>291.324251</ele>
        <time>2021-11-21T11:32:19.024Z</time>
      </trkpt>
      <trkpt lat="47.549102" lon="7.910058">
        <ele>291.572846</ele>
        <time>2021-11-21T11:32:23.164Z</time>
      </trkpt>
      <trkpt lat="47.549195" lon="7.909756">
        <ele>291.837388</ele>
        <time>2021-11-21T11:32:27.453Z</time>
      </trkpt>
      <trkpt lat="47.549271" lon="7.909502">
        <ele>292.058809</ele>
        <time>2021-11-21T11:32:31.075Z</time>
      </trkpt>
      <trkpt lat="47.549306" lon="7.909387">
        <ele>292.159344</ele>
        <time>2021-11-21T11:32:32.641Z</time>
      </trkpt>
      <trkpt lat="47.549520" lon="7.908678">
        <ele>293.102763</ele>
        <time>2021-11-21T11:32:42.750Z</time>
      </trkpt>
      <trkpt lat="47.549539" lon="7.908625">
        <ele>293.182346</ele>
        <time>2021-11-21T11:32:43.495Z</time>
      </trkpt>
      <trkpt lat="47.550497" lon="7.905558">
        <ele>298.692972</ele>
        <time>2021-11-21T11:33:38.355Z</time>
      </trkpt>
      <trkpt lat="47.550283" lon="7.905413">
        <ele>299.413827</ele>
        <time>2021-11-21T11:33:46.522Z</time>
      </trkpt>
      <trkpt lat="47.550067" lon="7.905245">
        <ele>300.161141</ele>
        <time>2021-11-21T11:33:55.208Z</time>
      </trkpt>
      <trkpt lat="47.549867" lon="7.905155">
        <ele>300.801445</ele>
        <time>2021-11-21T11:34:02.836Z</time>
      </trkpt>
      <trkpt lat="47.549868" lon="7.905010">
        <ele>301.101262</ele>
        <time>2021-11-21T11:34:06.241Z</time>
      </trkpt>
      <trkpt lat="47.550025" lon="7.904774">
        <ele>301.895541</ele>
        <time>2021-11-21T11:34:14.393Z</time>
      </trkpt>
      <trkpt lat="47.550302" lon="7.904164">
        <ele>303.781909</ele>
        <time>2021-11-21T11:34:32.692Z</time>
      </trkpt>
      <trkpt lat="47.550498" lon="7.903445">
        <ele>305.771466</ele>
        <time>2021-11-21T11:34:52.264Z</time>
      </trkpt>
      <trkpt lat="47.550688" lon="7.902451">
        <ele>308.435205</ele>
        <time>2021-11-21T11:35:14.812Z</time>
      </trkpt>
      <trkpt lat="47.550757" lon="7.901591">
        <ele>310.773038</ele>
        <time>2021-11-21T11:35:34.608Z</time>
      </trkpt>
      <trkpt lat="47.550769" lon="7.901362">
        <ele>311.393061</ele>
        <time>2021-11-21T11:35:40.516Z</time>
      </trkpt>
      <trkpt lat="47.550801" lon="7.900244">
        <ele>314.413703</ele>
        <time>2021-11-21T11:36:04.913Z</time>
      </trkpt>
      <trkpt lat="47.550819" lon="7.898109">
        <ele>319.869319</ele>
        <time>2021-11-21T11:36:51.954Z</time>
      </trkpt>
      <trkpt lat="47.550648" lon="7.896481">
        <ele>322.853518</ele>
        <time>2021-11-21T11:37:19.609Z</time>
      </trkpt>
      <trkpt lat="47.550639" lon="7.896345">
        <ele>322.988418</ele>
        <time>2021-11-21T11:37:21.984Z</time>
      </trkpt>
      <trkpt lat="47.550660" lon="7.896255">
        <ele>323.082423</ele>
        <time>2021-11-21T11:37:22.785Z</time>
      </trkpt>
      <trkpt lat="47.550838" lon="7.895509">
        <ele>323.863521</ele>
        <time>2021-11-21T11:37:32.953Z</time>
      </trkpt>
      <trkpt lat="47.550878" lon="7.895158">
        <ele>324.214923</ele>
        <time>2021-11-21T11:37:37.015Z</time>
      </trkpt>
      <trkpt lat="47.550908" lon="7.894308">
        <ele>325.276014</ele>
        <time>2021-11-21T11:37:47.487Z</time>
      </trkpt>
      <trkpt lat="47.550892" lon="7.893176">
        <ele>327.149228</ele>
        <time>2021-11-21T11:38:02.205Z</time>
      </trkpt>
      <trkpt lat="47.550904" lon="7.891725">
        <ele>330.114124</ele>
        <time>2021-11-21T11:38:31.967Z</time>
      </trkpt>
      <trkpt lat="47.550915" lon="7.890600">
        <ele>334.520322</ele>
        <time>2021-11-21T11:39:00.807Z</time>
      </trkpt>
      <trkpt lat="47.550833" lon="7.889069">
        <ele>340.577415</ele>
        <time>2021-11-21T11:39:43.440Z</time>
      </trkpt>
      <trkpt lat="47.550831" lon="7.888611">
        <ele>342.450429</ele>
        <time>2021-11-21T11:39:56.011Z</time>
      </trkpt>
      <trkpt lat="47.550789" lon="7.887816">
        <ele>345.711499</ele>
        <time>2021-11-21T11:40:16.622Z</time>
      </trkpt>
      <trkpt lat="47.550758" lon="7.887295">
        <ele>347.850376</ele>
        <time>2021-11-21T11:40:30.444Z</time>
      </trkpt>
      <trkpt lat="47.550677" lon="7.886476">
        <ele>351.103755</ele>
        <time>2021-11-21T11:40:51.933Z</time>
      </trkpt>
      <trkpt lat="47.550548" lon="7.885799">
        <ele>353.484572</ele>
        <time>2021-11-21T11:41:09.136Z</time>
      </trkpt>
      <trkpt lat="47.550391" lon="7.885109">
        <ele>355.948965</ele>
        <time>2021-11-21T11:41:26.773Z</time>
      </trkpt>
      <trkpt lat="47.550332" lon="7.884727">
        <ele>357.275241</ele>
        <time>2021-11-21T11:41:35.463Z</time>
      </trkpt>
      <trkpt lat="47.550234" lon="7.883221">
        <ele>361.559673</ele>
        <time>2021-11-21T11:42:08.295Z</time>
      </trkpt>
      <trkpt lat="47.549927" lon="7.881490">
        <ele>365.873467</ele>
        <time>2021-11-21T11:42:40.559Z</time>
      </trkpt>
      <trkpt lat="47.549726" lon="7.880786">
        <ele>368.012362</ele>
        <time>2021-11-21T11:42:56.535Z</time>
      </trkpt>
      <trkpt lat="47.549327" lon="7.879547">
        <ele>371.865641</ele>
        <time>2021-11-21T11:43:26.319Z</time>
      </trkpt>
      <trkpt lat="47.549318" lon="7.879398">
        <ele>372.285538</ele>
        <time>2021-11-21T11:43:29.508Z</time>
      </trkpt>
      <trkpt lat="47.549140" lon="7.879391">
        <ele>373.026034</ele>
        <time>2021-11-21T11:43:36.378Z</time>
      </trkpt>
      <trkpt lat="47.548718" lon="7.879258">
        <ele>374.369965</ele>
        <time>2021-11-21T11:43:50.049Z</time>
      </trkpt>
      <trkpt lat="47.548422" lon="7.878959">
        <ele>375.389515</ele>
        <time>2021-11-21T11:44:00.695Z</time>
      </trkpt>
      <trkpt lat="47.548234" lon="7.878638">
        <ele>376.205883</ele>
        <time>2021-11-21T11:44:09.127Z</time>
      </trkpt>
      <trkpt lat="47.547992" lon="7.877974">
        <ele>377.655420</ele>
        <time>2021-11-21T11:44:22.225Z</time>
      </trkpt>
      <trkpt lat="47.547574" lon="7.876801">
        <ele>377.415180</ele>
        <time>2021-11-21T11:44:35.988Z</time>
      </trkpt>
      <trkpt lat="47.547126" lon="7.875801">
        <ele>375.918864</ele>
        <time>2021-11-21T11:44:44.771Z</time>
      </trkpt>
      <trkpt lat="47.546309" lon="7.874154">
        <ele>369.726561</ele>
        <time>2021-11-21T11:44:57.959Z</time>
      </trkpt>
      <trkpt lat="47.546135" lon="7.873859">
        <ele>368.260081</ele>
        <time>2021-11-21T11:45:00.341Z</time>
      </trkpt>
      <trkpt lat="47.546077" lon="7.873763">
        <ele>367.777797</ele>
        <time>2021-11-21T11:45:01.152Z</time>
      </trkpt>
      <trkpt lat="47.545934" lon="7.873549">
        <ele>366.650578</ele>
        <time>2021-11-21T11:45:02.957Z</time>
      </trkpt>
      <trkpt lat="47.545746" lon="7.873302">
        <ele>365.257060</ele>
        <time>2021-11-21T11:45:05.245Z</time>
      </trkpt>
      <trkpt lat="47.545515" lon="7.873015">
        <ele>363.197004</ele>
        <time>2021-11-21T11:45:07.944Z</time>
      </trkpt>
      <trkpt lat="47.545478" lon="7.872968">
        <ele>362.862372</ele>
        <time>2021-11-21T11:45:08.386Z</time>
      </trkpt>
      <trkpt lat="47.545375" lon="7.872836">
        <ele>361.927316</ele>
        <time>2021-11-21T11:45:09.579Z</time>
      </trkpt>
      <trkpt lat="47.545131" lon="7.872664">
        <ele>360.072086</ele>
        <time>2021-11-21T11:45:12.038Z</time>
      </trkpt>
      <trkpt lat="47.544883" lon="7.872555">
        <ele>358.296017</ele>
        <time>2021-11-21T11:45:14.360Z</time>
      </trkpt>
      <trkpt lat="47.544390" lon="7.872423">
        <ele>354.856348</ele>
        <time>2021-11-21T11:45:18.822Z</time>
      </trkpt>
      <trkpt lat="47.543332" lon="7.872237">
        <ele>348.755830</ele>
        <time>2021-11-21T11:45:28.585Z</time>
      </trkpt>
      <trkpt lat="47.543251" lon="7.872152">
        <ele>348.229734</ele>
        <time>2021-11-21T11:45:29.534Z</time>
      </trkpt>
      <trkpt lat="47.543233" lon="7.872082">
        <ele>347.961742</ele>
        <time>2021-11-21T11:45:29.955Z</time>
      </trkpt>
      <trkpt lat="47.543013" lon="7.872182">
        <ele>346.742089</ele>
        <time>2021-11-21T11:45:32.182Z</time>
      </trkpt>
      <trkpt lat="47.542919" lon="7.872226">
        <ele>346.219611</ele>
        <time>2021-11-21T11:45:33.111Z</time>
      </trkpt>
      <trkpt lat="47.542814" lon="7.872280">
        <ele>345.630529</ele>
        <time>2021-11-21T11:45:34.164Z</time>
      </trkpt>
      <trkpt lat="47.542714" lon="7.872334">
        <ele>345.066415</ele>
        <time>2021-11-21T11:45:35.234Z</time>
      </trkpt>
      <trkpt lat="47.542537" lon="7.872430">
        <ele>344.067418</ele>
        <time>2021-11-21T11:45:36.977Z</time>
      </trkpt>
      <trkpt lat="47.542436" lon="7.872494">
        <ele>343.485202</ele>
        <time>2021-11-21T11:45:38.282Z</time>
      </trkpt>
      <trkpt lat="47.542394" lon="7.872341">
        <ele>343.333798</ele>
        <time>2021-11-21T11:45:39.362Z</time>
      </trkpt>
      <trkpt lat="47.542218" lon="7.871866">
        <ele>343.333798</ele>
        <time>2021-11-21T11:45:43.033Z</time>
      </trkpt>
      <trkpt lat="47.542091" lon="7.871721">
        <ele>343.333798</ele>
        <time>2021-11-21T11:45:44.560Z</time>
      </trkpt>
      <trkpt lat="47.542067" lon="7.871664">
        <ele>343.333798</ele>
        <time>2021-11-21T11:45:45.268Z</time>
      </trkpt>
      <trkpt lat="47.542039" lon="7.871556">
        <ele>343.333798</ele>
        <time>2021-11-21T11:45:46.138Z</time>
      </trkpt>
      <trkpt lat="47.541953" lon="7.871286">
        <ele>343.333798</ele>
        <time>2021-11-21T11:45:48.352Z</time>
      </trkpt>
      <trkpt lat="47.541796" lon="7.871042">
        <ele>343.333798</ele>
        <time>2021-11-21T11:45:50.881Z</time>
      </trkpt>
      <trkpt lat="47.541758" lon="7.870976">
        <ele>343.333798</ele>
        <time>2021-11-21T11:45:51.551Z</time>
      </trkpt>
    </trkseg>
  </trk>
</gpx>